[[{"header":{"parameterUnit":"m.s-1","parameterCategory":1,"la1":30.6,"la2":29.2853,"lo1":-89.7004,"lo2":-87.6739,"dy":0.0162,"dx":0.0183,"nx":112,"ny":82,"refTime":"2023-07-28T06:00:00:Z","depth":0,"parameterNumber":2,"parameterNumberName":"U-component_of_WINDS"},"data":[0.0,0.0,0.0,0.0,0.0,0.0,0.0,0.0,0.0,0.0,0.0,0.0,0.0,0.0,0.0,0.0,0.0,0.0,0.0,0.0,0.0,0.0,0.0,0.0,0.0,0.0,0.0,0.0,0.0,0.0,0.0,0.0,0.0,0.0,0.0,0.0,0.0,0.0,0.0,0.0,0.0,0.0,0.0,0.0,0.0,0.0,0.0,0.0,0.0,0.0,0.0,0.0,0.0,0.0,0.0,0.0,0.0,0.0,0.0,0.0,0.0,0.0,0.0,0.0,0.0,0.0,0.0,0.0,0.0,0.0,0.0,0.0,0.0,0.0,0.0,0.0,0.0,0.0,0.0,0.0,0.0,0.0,0.0,0.0,0.0,0.0,0.0,0.0,0.0,0.0,0.2877,0.3065,0.3307,0.3499,0.3499,0.3565,0.3532,0.3354,0.0,0.0,0.0,0.0,0.0,0.0,0.0,0.0,0.0,0.0,0.0,0.0,0.0,0.0,0.0,0.0,0.0,0.0,0.0,0.0,0.0,0.0,0.0,0.0,0.0,0.0,0.0,0.0,0.0,0.0,0.0,0.0,0.0,0.0,0.0,0.0,0.0,0.0,0.0,0.0,0.0,0.0,0.0,0.0,0.0,0.0,0.0,0.0,0.0,0.0,0.0,0.0,0.0,0.0,0.0,0.0,0.0,0.0,0.0,0.0,0.0,0.0,0.0,0.0,0.0,0.0,0.0,0.0,0.0,0.0,0.0,0.0,0.0,0.0,0.0,0.0,0.0,0.0,0.0,0.0,0.0,0.0,0.0,0.0,0.0,0.0,0.0,0.0,0.0,0.0,0.0,0.0,0.0,0.0,0.0,0.0,0.0,0.0,0.0,0.0,0.0,0.0,0.0,0.0,0.295,0.3269,0.342,0.3499,0.3499,0.3511,0.344,0.3258,0.0,0.0,0.0,0.0,0.0,0.0,0.0,0.0,0.0,0.0,0.0,0.0,0.0,0.0,0.0,0.0,0.0,0.0,0.0,0.0,0.0,0.0,0.0,0.0,0.0,0.0,0.0,0.0,0.0,0.0,0.0,0.0,0.0,0.0,0.0,0.0,0.0,0.0,0.0,0.0,0.0,0.0,0.0,0.0,0.0,0.0,0.0,0.0,0.0,0.0,0.0,0.0,0.0,0.0,0.0,0.0,0.0,0.0,0.0,0.0,0.0,0.0,0.0,0.0,0.0,0.0,0.0,0.0,0.0,0.0,0.0,0.0,0.0,0.0,0.0,0.0,0.0,0.0,0.0,0.0,0.0,0.0,0.0,0.0,0.0,0.0,0.0,0.0,0.0,0.0,0.0,0.0,0.0,0.0,0.0,0.0,0.0,0.0,0.0,0.0,0.0,0.0,0.0,0.2938,0.3071,0.3336,0.3401,0.3446,0.3495,0.3454,0.3389,0.3307,0.3293,0.0,0.0,0.0,0.0,0.0,0.0,0.0,0.0,0.0,0.0,0.0,0.0,0.0,0.0,0.0,0.0,0.0,0.0,0.0,0.0,0.0,0.0,0.0,0.0,0.0,0.0,0.0,0.0,0.0,0.0,0.0,0.0,0.0,0.0,0.0,0.0,0.0,0.0,0.0,0.0,0.0,0.0,0.0,0.0,0.0,0.0,0.0,0.0,0.0,0.0,0.0,0.0,0.0,0.0,0.0,0.0,0.0,0.0,0.0,0.0,0.0,0.0,0.0,0.0,0.0,0.0,0.0,0.0,0.0,0.0,0.0,0.0,0.0,0.0,0.0,0.0,0.0,0.0,0.0,0.0,0.0,0.0,0.0,0.0,0.0,0.0,0.0,0.0,0.0,0.0,0.0,0.0,0.0,0.0,0.0,0.0,0.0,0.0,0.0,0.0,0.0,0.0,0.3066,0.3185,0.3346,0.3434,0.3391,0.3462,0.3403,0.3434,0.3434,0.3277,0.0,0.0,0.0,0.0,0.0,0.0,0.0,0.0,0.0,0.0,0.0,0.0,0.0,0.0,0.0,0.0,0.0,0.0,0.0,0.0,0.0,0.0,0.0,0.0,0.0,0.0,0.0,0.0,0.0,0.0,0.0,0.0,0.0,0.0,0.0,0.0,0.0,0.0,0.0,0.0,0.0,0.0,0.0,0.0,0.0,0.0,0.0,0.0,0.0,0.0,0.0,0.0,0.0,0.0,0.0,0.0,0.0,0.0,0.0,0.0,0.0,0.0,0.0,0.0,0.0,0.0,0.0,0.0,0.0,0.0,0.0,0.0,0.0,0.0,0.0,0.0,0.0,0.0,0.0,0.0,0.0,0.0,0.0,0.0,0.0,0.0,0.0,0.0,0.0,0.0,0.0,0.0,0.0,0.0,0.0,0.0,0.0,0.0,0.0,0.0,0.0,0.0,0.316,0.3254,0.3352,0.3434,0.3436,0.3373,0.3438,0.3434,0.3434,0.3277,0.0,0.0,0.0,0.0,0.0,0.0,0.0,0.0,0.0,0.0,0.0,0.0,0.0,0.0,0.0,0.0,0.0,0.0,0.0,0.0,0.0,0.0,0.0,0.0,0.0,0.0,0.0,0.0,0.0,0.0,0.0,0.0,0.0,0.0,0.0,0.0,0.0,0.0,0.0,0.0,0.0,0.0,0.0,0.0,0.0,0.0,0.0,0.0,0.0,0.0,0.0,0.0,0.0,0.0,0.0,0.0,0.0,0.0,0.0,0.0,0.0,0.0,0.0,0.0,0.0,0.0,0.0,0.0,0.0,0.0,0.0,0.0,0.0,0.0,0.0,0.0,0.0,0.0,0.0,0.0,0.0,0.0,0.0,0.0,0.0,0.0,0.0,0.0,0.0,0.0,0.0,0.0,0.0,0.0,0.0,0.0,0.0,0.0,0.0,0.0,0.0,0.0,0.3171,0.324,0.3275,0.333,0.3434,0.3434,0.3416,0.3448,0.3448,0.0,0.0,0.0,0.0,0.0,0.0,0.0,0.0,0.0,0.0,0.0,0.0,0.0,0.0,0.0,0.0,0.0,0.0,0.0,0.0,0.0,0.0,0.0,0.0,0.0,0.0,0.0,0.0,0.0,0.0,0.0,0.0,0.0,0.0,0.0,0.0,0.0,0.0,0.0,0.0,0.0,0.0,0.0,0.0,0.0,0.0,0.0,0.0,0.0,0.0,0.0,0.0,0.0,0.0,0.0,0.0,0.0,0.0,0.0,0.0,0.0,0.0,0.0,0.0,0.0,0.0,0.0,0.0,0.0,0.0,0.0,0.0,0.0,0.0,0.0,0.0,0.0,0.0,0.0,0.0,0.0,0.0,0.0,0.0,0.0,0.0,0.0,0.0,0.0,0.0,0.0,0.0,0.0,0.0,0.0,0.0,0.0,0.0,0.0,0.0,0.0,0.0,0.3173,0.3232,0.3281,0.3311,0.3371,0.3407,0.3407,0.3465,0.3511,0.3538,0.0,0.0,0.0,0.0,0.0,0.0,0.0,0.0,0.0,0.0,0.0,0.0,0.0,0.0,0.0,0.0,0.0,0.0,0.0,0.0,0.0,0.0,0.0,0.0,0.0,0.0,0.0,0.0,0.0,0.0,0.0,0.0,0.0,0.0,0.0,0.0,0.0,0.0,0.0,0.0,0.0,0.0,0.0,0.0,0.0,0.0,0.0,0.0,0.0,0.0,0.0,0.0,0.0,0.0,0.0,0.0,0.0,0.0,0.0,0.0,0.0,0.0,0.0,0.0,0.0,0.0,0.0,0.0,0.0,0.0,0.0,0.0,0.0,0.0,0.0,0.0,0.0,0.0,0.0,0.0,0.0,0.0,0.0,0.0,0.0,0.0,0.0,0.0,0.0,0.0,0.0,0.0,0.0,0.0,0.0,0.0,0.0,0.0,0.0,0.0,0.0,0.0,0.3352,0.3434,0.3399,0.3491,0.3501,0.3501,0.3501,0.3501,0.3538,0.0,0.0,0.0,0.0,0.0,0.0,0.0,0.0,0.0,0.0,0.0,0.0,0.0,0.0,0.0,0.0,0.0,0.0,0.0,0.0,0.0,0.0,0.0,0.0,0.0,0.0,0.0,0.0,0.0,0.0,0.0,0.0,0.0,0.0,0.0,0.0,0.0,0.0,0.0,0.0,0.0,0.0,0.0,0.0,0.0,0.0,0.0,0.0,0.0,0.0,0.0,0.0,0.0,0.0,0.0,0.0,0.0,0.0,0.0,0.0,0.0,0.0,0.0,0.0,0.0,0.0,0.0,0.0,0.0,0.0,0.0,0.0,0.0,0.0,0.0,0.0,0.0,0.0,0.0,0.0,0.0,0.0,0.0,0.0,0.0,0.0,0.0,0.0,0.0,0.0,0.0,0.0,0.0,0.0,0.0,0.0,0.0,0.0,0.0,0.0,0.0,0.0,0.0,0.3448,0.346,0.3471,0.3497,0.3554,0.3589,0.3589,0.3648,0.3695,0.3722,0.0,0.0,0.0,0.0,0.0,0.0,0.0,0.0,0.0,0.0,0.0,0.0,0.0,0.0,0.0,0.0,0.0,0.0,0.0,0.0,0.0,0.0,0.0,0.0,0.0,0.0,0.0,0.0,0.0,0.0,0.0,0.0,0.0,0.0,0.0,0.0,0.0,0.0,0.0,0.0,0.0,0.0,0.0,0.0,0.0,0.0,0.0,0.0,0.0,0.0,0.0,0.0,0.0,0.0,0.0,0.0,0.0,0.0,0.0,0.0,0.0,0.0,0.0,0.0,0.0,0.0,0.0,0.0,0.0,0.0,0.0,0.0,0.0,0.0,0.0,0.0,0.0,0.0,0.0,0.0,0.0,0.0,0.0,0.0,0.0,0.0,0.0,0.0,0.0,0.0,0.0,0.0,0.0,0.0,0.0,0.0,0.0,0.0,0.0,0.0,0.0,0.0,0.3538,0.355,0.3565,0.3601,0.3683,0.3736,0.3736,0.3785,0.3818,0.3818,0.0,0.0,0.0,0.0,0.0,0.0,0.0,0.0,0.0,0.0,0.0,0.0,0.0,0.0,0.0,0.0,0.0,0.0,0.0,0.0,0.0,0.0,0.0,0.0,0.0,0.0,0.0,0.0,0.0,0.0,0.0,0.0,0.0,0.0,0.0,0.0,0.0,0.0,0.0,0.0,0.0,0.0,0.0,0.0,0.0,0.0,0.0,0.0,0.0,0.0,0.0,0.0,0.0,0.0,0.0,0.0,0.0,0.0,0.0,0.0,0.0,0.0,0.0,0.0,0.0,0.0,0.0,0.0,0.0,0.0,0.0,0.0,0.0,0.0,0.0,0.0,0.0,0.0,0.0,0.0,0.0,0.0,0.0,0.0,0.0,0.0,0.0,0.0,0.0,0.0,0.0,0.0,0.0,0.0,0.0,0.0,0.0,0.0,0.0,0.0,0.0,0.0,0.3628,0.3646,0.3683,0.3767,0.3857,0.3912,0.3912,0.3912,0.3912,0.3912,0.0,0.0,0.0,0.0,0.0,0.0,0.0,0.0,0.0,0.0,0.0,0.0,0.0,0.0,0.0,0.0,0.0,0.0,0.0,0.0,0.0,0.0,0.0,0.0,0.0,0.0,0.0,0.0,0.0,0.0,0.0,0.0,0.0,0.0,0.0,0.0,0.0,0.0,0.0,0.0,0.0,0.0,0.0,0.0,0.0,0.0,0.0,0.0,0.0,0.0,0.0,0.0,0.0,0.0,0.0,0.0,0.0,0.0,0.0,0.0,0.3127,0.3354,0.0,0.0,0.0,0.0,0.0,0.0,0.0,0.0,0.0,0.0,0.0,0.0,0.0,0.0,0.0,0.0,0.0,0.0,0.0,0.0,0.0,0.0,0.0,0.0,0.0,0.0,0.0,0.0,0.0,0.0,0.0,0.0,0.0,0.0,0.0,0.0,0.0,0.0,0.0,0.0,0.3722,0.3797,0.3848,0.3869,0.3952,0.4006,0.4006,0.4006,0.4006,0.4006,0.3989,0.0,0.0,0.0,0.0,0.0,0.0,0.0,0.0,0.0,0.0,0.0,0.0,0.0,0.0,0.0,0.0,0.0,0.0,0.0,0.0,0.0,0.0,0.0,0.0,0.0,0.0,0.0,0.0,0.0,0.0,0.0,0.0,0.0,0.0,0.0,0.0,0.0,0.0,0.0,0.0,0.0,0.0,0.0,0.0,0.0,0.0,0.0,0.0,0.0,0.0,0.0,0.0,0.0,0.0,0.0,0.0,0.0,0.0,0.0,0.297,0.2817,0.0,0.0,0.0,0.0,0.0,0.0,0.0,0.0,0.0,0.0,0.0,0.0,0.0,0.0,0.0,0.0,0.0,0.0,0.0,0.0,0.0,0.0,0.0,0.0,0.0,0.0,0.0,0.0,0.0,0.0,0.0,0.0,0.0,0.0,0.0,0.0,0.0,0.0,0.0,0.0,0.3887,0.3934,0.3965,0.3965,0.4046,0.4102,0.4102,0.4102,0.4102,0.4102,0.4061,0.0,0.0,0.0,0.0,0.0,0.0,0.0,0.0,0.0,0.0,0.0,0.0,0.0,0.0,0.0,0.0,0.0,0.0,0.0,0.0,0.0,0.0,0.0,0.0,0.0,0.0,0.0,0.0,0.0,0.0,0.0,0.0,0.0,0.0,0.0,0.0,0.0,0.0,0.0,0.0,0.0,0.0,0.0,0.0,0.0,0.0,0.0,0.0,0.0,0.0,0.0,0.0,0.0,0.3358,0.3578,0.3574,0.3937,0.4118,0.4021,0.2826,0.2324,0.2449,0.3063,0.0,0.0,0.0,0.0,0.0,0.0,0.0,0.0,0.0,0.0,0.0,0.0,0.0,0.0,0.0,0.0,0.0,0.0,0.0,0.0,0.0,0.0,0.3744,0.3587,0.3516,0.3526,0.3526,0.0,0.0,0.0,0.0,0.0,0.0,0.0,0.0,0.0,0.0,0.0,0.353,0.3542,0.3551,0.3551,0.3795,0.3932,0.3756,0.3845,0.3932,0.3756,0.3606,0.3569,0.0,0.0,0.0,0.0,0.0,0.0,0.0,0.0,0.0,0.0,0.0,0.0,0.0,0.0,0.0,0.0,0.0,0.0,0.0,0.0,0.0,0.0,0.0,0.0,0.0,0.0,0.0,0.0,0.0,0.0,0.0,0.0,0.0919,0.1015,0.0,0.0,0.0,0.0,0.0,0.0,0.0,0.0,0.0,0.0,0.0,0.0,0.0,0.4167,0.4086,0.4174,0.4258,0.433,0.3863,0.3745,0.3874,0.3479,0.3381,0.338,0.3261,0.0,0.3894,0.4054,0.0,0.0,0.0,0.0,0.0,0.0,0.0,0.0,0.0,0.0,0.0,0.0,0.0,0.0,0.0,0.0,0.0,0.0,0.0,0.0,0.0,0.0,0.2677,0.1908,0.1665,0.1686,0.1686,0.2924,0.3781,0.2938,0.2769,0.2769,0.0,0.0,0.0,0.0,0.0,0.0,0.168,0.1624,0.1643,0.1643,0.2467,0.2676,0.1872,0.2587,0.2676,0.1783,0.1778,0.1775,0.1775,0.1658,0.0,0.0,0.0,0.0,0.0,0.0,0.0,0.0,0.0,0.0,0.0,0.0,0.0,0.0,0.0,0.0,0.0,0.0,0.0,0.0,0.0,0.0,0.0,0.0,0.0,0.0,0.0,0.0,0.0,0.2158,0.2289,0.1892,0.2581,0.3113,0.0,0.0,0.0,0.0,0.0,0.0,0.0,0.0,0.0,0.4023,0.4304,0.4185,0.3832,0.417,0.425,0.4062,0.4104,0.4181,0.4283,0.4348,0.433,0.4327,0.4386,0.4444,0.461,0.4179,0.398,0.382,0.0,0.0,0.0,0.0,0.4306,0.4269,0.432,0.4338,0.4344,0.4383,0.0,0.0,0.0,0.0,0.0,0.0,0.0,0.2352,0.2007,0.1934,0.1858,0.1406,0.1324,0.1332,0.1332,0.1944,0.2346,0.1985,0.2413,0.2838,0.2749,0.2723,0.0,0.0,0.0,0.3411,0.3011,0.304,0.3058,0.3058,0.3445,0.3539,0.3047,0.3401,0.3492,0.3042,0.3042,0.2774,0.2238,0.222,0.211,0.0,0.0,0.0,0.0,0.0,0.0,0.0,0.0,0.0,0.0,0.0,0.0,0.0,0.0,0.0,0.0,0.0,0.0,0.0,0.0,0.0,0.0,0.0,0.0,0.0,0.0,0.0,0.0,0.2703,0.2847,0.2288,0.3021,0.3512,0.0,0.0,0.0,0.0,0.0,0.0,0.4271,0.4297,0.4328,0.4177,0.4479,0.4451,0.3882,0.425,0.4329,0.41,0.4152,0.4335,0.4423,0.4482,0.4679,0.4899,0.4947,0.5086,0.5086,0.4491,0.4127,0.3944,0.4319,0.4449,0.4387,0.4549,0.4549,0.4483,0.4575,0.4591,0.4577,0.46,0.4608,0.4604,0.4579,0.0,0.0,0.0,0.0,0.1237,0.1047,0.0955,0.0863,0.0575,0.0578,0.058,0.058,0.0773,0.0963,0.0954,0.1599,0.2142,0.2049,0.2115,0.0,0.3093,0.3184,0.3111,0.2879,0.2884,0.2884,0.2884,0.335,0.3422,0.2823,0.3258,0.3339,0.2887,0.2872,0.2596,0.215,0.2151,0.1868,0.1313,0.0,0.0,0.0,0.0,0.0,0.0,0.0,0.0,0.0,0.0,0.0,0.0,0.0,0.0,0.0,0.0,0.0,0.0,0.0,0.0,0.0,0.0,0.0,0.0,0.0,0.0,0.0,0.0,0.0,0.1455,0.2312,0.0,0.0,0.0,0.0,0.4159,0.4318,0.4455,0.4547,0.4634,0.4765,0.4945,0.4951,0.4998,0.4988,0.4994,0.519,0.5256,0.414,0.3644,0.3876,0.3168,0.3285,0.3872,0.4453,0.4987,0.5453,0.5098,0.4851,0.4694,0.4696,0.4638,0.4571,0.4667,0.4645,0.4579,0.4669,0.4645,0.4587,0.4673,0.4702,0.4685,0.4598,0.3806,0.0,0.0,0.2188,0.1142,0.0191,-0.0,-0.0293,-0.1274,-0.1492,-0.1411,-0.1411,-0.0604,-0.0,-0.0,-0.0,0.0095,-0.0,0.0,0.0095,0.0095,0.0095,-0.019,-0.1047,-0.1237,-0.1237,-0.1237,0.0475,0.0855,-0.1046,0.056,0.0922,-0.1108,-0.1179,-0.0717,0.009,0.0179,0.0537,0.134,0.1316,0.0,0.0,0.0,0.0,0.0,0.0,0.0,0.0,0.0,0.0,0.0,0.0,0.0,0.0,0.0,0.0,0.0,0.0,0.0,0.0,0.0,0.0,0.0,0.0,0.0,0.0,0.0,0.0,0.3217,0.3545,0.0,0.3838,0.4191,0.4455,0.4514,0.4626,0.4757,0.491,0.4949,0.5073,0.5308,0.5316,0.5361,0.5451,0.5512,0.5573,0.5639,0.5223,0.504,0.5093,0.48,0.4897,0.5136,0.5198,0.5393,0.547,0.5004,0.4937,0.5049,0.4988,0.491,0.4841,0.4932,0.4908,0.4843,0.4934,0.4945,0.4912,0.4885,0.4472,0.3857,0.3729,0.2514,0.1106,0.1106,0.0203,-0.0715,-0.1011,-0.1114,-0.1224,-0.1549,-0.1652,-0.1651,-0.1669,-0.1347,-0.1126,-0.1112,-0.0494,-0.0097,-0.0097,-0.0096,0.0095,0.0667,0.0762,0.067,0.0484,0.0388,0.0388,0.0388,0.1067,0.1158,0.0381,0.0945,0.1124,0.037,0.0367,0.0273,-0.0,-0.0,-0.009,-0.0358,-0.0445,-0.0176,0.0,0.0,0.0,0.0,0.0,0.0,0.0,0.0,0.0,0.0,0.0,0.0,0.0,0.0,0.0,0.0,0.0,0.0,0.0,0.0,0.0,0.0,0.0,0.0,0.0,0.0,0.4072,0.3706,0.4175,0.4371,0.3974,0.4447,0.4824,0.4885,0.4761,0.487,0.5235,0.5025,0.5117,0.5547,0.5553,0.5468,0.5291,0.5349,0.5391,0.5422,0.5234,0.5287,0.5586,0.5256,0.5356,0.55,0.5414,0.5497,0.5616,0.523,0.5238,0.541,0.5039,0.491,0.5028,0.512,0.5096,0.5026,0.5088,0.5108,0.4992,0.4616,0.3972,0.324,0.2822,0.1359,-0.0,-0.0,-0.0844,-0.17,-0.1681,-0.1676,-0.1681,-0.1699,-0.169,-0.1682,-0.17,-0.169,-0.1676,-0.1676,-0.1118,-0.0594,-0.0594,-0.0588,-0.0389,0.0194,0.0291,0.039,0.0395,0.0495,0.0495,0.0495,0.0791,0.0787,0.0389,0.0675,0.0765,0.0377,0.0281,0.0185,-0.0091,-0.0181,-0.0271,-0.0538,-0.0807,-0.0715,-0.0177,0.0,0.0,0.0,0.0,0.0,0.0,0.0,0.0,0.0,0.0,0.0,0.0,0.0,0.0,0.0,0.0,0.0,0.0,0.0,0.0,0.0,0.0,0.0,0.3674,0.4324,0.4039,0.2841,0.3959,0.4391,0.3194,0.4332,0.5144,0.5148,0.4668,0.4745,0.5512,0.4943,0.4865,0.5532,0.5655,0.5303,0.4714,0.4717,0.4754,0.4828,0.4221,0.4288,0.5166,0.4348,0.4354,0.5164,0.4964,0.5302,0.5914,0.5827,0.5786,0.5753,0.48,0.4726,0.513,0.5112,0.5086,0.501,0.5014,0.5012,0.4796,0.3623,0.3196,0.2981,0.1808,0.0745,-0.0107,-0.0107,-0.0853,-0.1707,-0.1706,-0.1706,-0.1707,-0.1708,-0.1708,-0.1709,-0.171,-0.1708,-0.1707,-0.1707,-0.166,-0.162,-0.162,-0.162,-0.162,-0.162,-0.1619,0.0,-0.1618,-0.1618,-0.1617,-0.1617,-0.0706,-0.0504,-0.1515,-0.0694,-0.049,-0.1571,-0.1833,-0.1418,-0.0462,-0.0554,-0.0092,0.0987,0.0269,-0.0181,-0.037,0.0,0.0,0.0,0.0,0.0,0.0,0.0,0.0,0.0,0.0,0.0,0.0,0.0,0.0,0.0,0.0,0.0,0.0,0.0,0.0,0.0,0.0,-0.0097,0.0951,0.1676,0.205,0.169,0.2055,0.2318,0.2021,0.3161,0.3983,0.4145,0.4861,0.5377,0.57,0.5588,0.5387,0.5106,0.5659,0.5538,0.4867,0.5416,0.5706,0.5729,0.5479,0.5534,0.5886,0.5608,0.5737,0.5886,0.5863,0.5946,0.5888,0.5487,0.5529,0.5767,0.5391,0.527,0.5288,0.4408,0.3473,0.2655,0.2687,0.2677,0.265,0.2208,0.1533,0.0868,0.0434,-0.0434,-0.1303,-0.1303,-0.1533,-0.1765,-0.1743,-0.1753,-0.1776,-0.1797,-0.1803,-0.1809,-0.1831,-0.1802,-0.177,-0.177,-0.1721,-0.168,-0.168,-0.168,-0.168,-0.168,-0.1869,-0.1956,-0.1956,-0.2137,-0.212,-0.192,-0.1616,-0.1515,-0.1617,-0.1307,-0.1295,-0.1573,-0.1857,-0.1835,-0.1514,-0.1702,-0.1697,-0.1407,-0.1595,-0.141,0.0,0.0,0.0,0.0,0.0,0.0,0.0,0.0,0.0,0.0,0.0,0.0,0.0,0.0,0.0,0.0,0.0,0.0,0.0,0.0,0.0,0.0,-0.1121,-0.1166,-0.1072,0.0217,0.0995,0.0681,0.1732,0.2108,0.1419,0.3312,0.4392,0.4194,0.4706,0.5093,0.5348,0.4925,0.4716,0.4972,0.5428,0.5447,0.5022,0.5447,0.5726,0.5726,0.5726,0.5768,0.5847,0.607,0.6072,0.5847,0.6068,0.5874,0.5166,0.4786,0.447,0.4246,0.0,0.0,0.0,0.0,0.2421,0.1717,0.1734,0.1729,0.1715,0.1029,0.0454,-0.0113,-0.0677,-0.1354,-0.1806,-0.1806,-0.1819,-0.1829,-0.1811,-0.182,-0.1834,-0.1839,-0.185,-0.1861,-0.1866,-0.1849,-0.1833,-0.2062,-0.2019,0.0,-0.1981,-0.1838,-0.1704,-0.1917,-0.1901,-0.1987,-0.2284,-0.226,-0.224,-0.2224,-0.2121,-0.2121,-0.1919,-0.1919,0.0,0.0,0.0,-0.2364,-0.2318,-0.2011,0.0,0.0,0.0,-0.1721,-0.1638,-0.1624,0.0,0.0,-0.0548,-0.0365,0.0,0.0,0.0,0.0,0.0,0.0,0.0,0.0,0.0,0.0,0.0,0.0,0.0,0.0,0.0,0.0,-0.2302,-0.2307,-0.2414,-0.072,0.0359,-0.0363,0.1717,0.2598,0.0986,0.3584,0.5074,0.4569,0.4133,0.4146,0.4708,0.3686,0.0,0.0,0.0,0.5161,0.5153,0.5163,0.5166,0.5166,0.5166,0.5076,0.5277,0.5858,0.5866,0.5407,0.5856,0.5259,0.4048,0.3921,0.3006,0.1848,0.2422,0.2863,0.3064,0.1883,0.1412,0.1294,0.1297,0.0,0.0,-0.0,-0.0353,-0.0471,-0.1531,-0.1886,-0.1886,-0.1886,-0.1886,-0.1886,-0.1886,-0.1888,-0.1884,-0.1857,-0.1874,-0.1889,-0.1862,-0.1874,-0.2008,-0.2358,-0.2331,-0.2304,-0.2296,-0.1989,-0.1821,-0.2143,-0.1925,-0.1912,-0.2405,-0.2292,-0.2272,-0.2434,-0.2429,0.0,-0.2422,-0.2422,-0.2422,-0.2422,-0.2623,-0.2804,-0.2856,-0.2031,-0.1836,-0.2458,-0.1643,-0.1643,-0.2754,-0.2708,-0.2877,-0.307,-0.0953,-0.0476,0.0,0.0,0.0,0.0,0.0,0.0,0.0,0.0,0.0,0.0,0.0,0.0,0.0,0.0,0.0,-0.2201,-0.2564,-0.2821,-0.2536,-0.2439,-0.1921,-0.1002,-0.038,-0.0,0.0124,0.1261,0.2162,0.2513,0.2927,0.346,0.409,0.3984,0.3991,0.4236,0.4816,0.5216,0.5154,0.5214,0.5245,0.5245,0.459,0.0,0.5359,0.5477,0.5745,0.6158,0.5072,0.4496,0.4044,0.287,0.167,0.0501,0.1581,0.1321,0.0359,0.0236,-0.0353,-0.118,-0.1196,-0.1191,-0.1299,-0.1435,-0.1547,-0.1649,-0.1885,-0.1886,0.0,-0.1886,-0.1886,-0.1886,-0.1886,-0.1904,-0.1921,-0.1915,-0.1937,-0.1958,-0.1952,-0.1936,-0.2035,-0.2245,-0.2351,-0.2444,-0.2606,-0.2349,-0.2,-0.1889,-0.1976,-0.2174,-0.2275,-0.2567,-0.2737,-0.2481,-0.2683,-0.2666,-0.2425,-0.2422,-0.2422,-0.2422,-0.2623,-0.2922,-0.3114,-0.2901,-0.2901,-0.3012,-0.2899,-0.2901,-0.3112,-0.31,-0.3095,-0.3192,-0.261,-0.2571,0.0,0.0,0.0,0.0,0.0,0.0,0.0,0.0,0.0,0.0,0.0,-0.2566,0.0,0.0,-0.2862,-0.2816,-0.2941,-0.3053,-0.312,-0.3168,-0.2908,-0.2199,-0.1557,-0.1163,-0.1139,0.0128,0.0898,0.0892,0.1291,0.1557,0.1932,0.1567,0.1705,0.2344,0.264,0.3048,0.3419,0.3443,0.3322,0.3189,0.2791,0.2669,0.2687,0.309,0.3357,0.3492,0.3089,0.2664,0.197,0.0518,-0.0511,-0.1132,-0.0369,-0.061,-0.1219,-0.1088,-0.1447,-0.1933,-0.1949,-0.1944,-0.1934,-0.1949,-0.1944,-0.1931,-0.1931,-0.1931,-0.1931,-0.1931,-0.1931,-0.1931,-0.1931,-0.1942,-0.195,-0.1934,-0.1954,-0.1973,-0.1957,-0.2075,-0.2191,-0.2416,-0.2637,-0.2847,-0.2801,-0.2756,-0.2604,-0.247,-0.245,-0.254,-0.2846,-0.2931,-0.3005,-0.2951,-0.3025,-0.2998,-0.2868,-0.2841,-0.2826,-0.2826,-0.2927,-0.3029,-0.323,-0.323,-0.323,-0.323,-0.323,-0.323,-0.323,-0.323,-0.323,-0.3229,-0.3169,-0.314,0.0,0.0,0.0,0.0,0.0,0.0,0.0,0.0,-0.2872,-0.2777,-0.2879,-0.2973,-0.2933,-0.3039,-0.3264,-0.3472,-0.332,-0.3396,-0.3697,-0.3472,-0.335,-0.3447,-0.2248,-0.1576,-0.1938,-0.0647,-0.0,-0.0388,-0.0393,-0.0526,-0.039,-0.0797,-0.0535,0.0397,0.0401,0.0806,0.1476,0.1342,0.1208,0.094,0.0805,0.0403,-0.0,0.0671,0.0806,0.0672,0.1074,0.0534,-0.0528,-0.1548,-0.2165,-0.2405,-0.2128,-0.1987,-0.1977,-0.1977,-0.1977,-0.1977,-0.1977,-0.1977,-0.1977,-0.1977,-0.1977,-0.1977,-0.1977,-0.1977,-0.1977,-0.1977,-0.1977,-0.1977,-0.1977,-0.1977,-0.197,-0.1946,-0.1959,-0.197,-0.1945,-0.2202,-0.2466,-0.2581,-0.2925,-0.3264,-0.3124,-0.318,-0.323,-0.3063,-0.2815,-0.2907,-0.3315,-0.3193,-0.3167,-0.3329,-0.3375,-0.333,-0.3307,-0.3259,-0.323,-0.323,-0.323,-0.323,-0.323,-0.323,-0.323,-0.323,-0.323,-0.323,-0.323,-0.323,-0.323,-0.323,-0.323,-0.323,-0.2887,-0.2864,-0.2899,-0.3004,-0.3129,-0.3109,0.0,0.0,-0.3481,-0.349,-0.3725,-0.3797,-0.3639,-0.3811,-0.3833,-0.359,-0.3681,-0.3752,-0.3758,-0.3764,-0.3901,-0.4164,-0.2952,-0.1859,-0.1422,-0.1582,-0.1597,-0.1053,-0.1597,-0.1742,-0.107,-0.0672,-0.0403,-0.0,0.0403,0.0672,0.1208,0.0537,0.0134,0.0134,-0.0538,-0.0538,-0.0,0.0134,0.0403,0.094,0.0134,-0.094,-0.2014,-0.2142,-0.2108,-0.2187,-0.2056,-0.2022,-0.1977,-0.1977,-0.1977,-0.1977,-0.1977,-0.1977,-0.1977,-0.1977,-0.1977,-0.1977,-0.1977,-0.1977,-0.1977,-0.1977,-0.1977,-0.1977,-0.1977,-0.1977,-0.1976,-0.1973,-0.1974,-0.1975,-0.1973,-0.1974,-0.2214,-0.2788,-0.293,-0.3172,-0.3679,-0.3813,-0.3579,-0.3052,-0.2744,-0.2706,-0.2851,-0.3045,-0.311,-0.317,-0.333,-0.3358,-0.3249,-0.3234,-0.323,-0.323,-0.323,-0.323,-0.323,-0.323,-0.323,-0.323,-0.323,-0.323,-0.323,-0.323,-0.323,-0.323,-0.323,-0.323,-0.3042,-0.3029,0.0,0.0,-0.3259,-0.3369,-0.3602,-0.3683,-0.3741,-0.3861,-0.3982,-0.406,-0.4034,-0.401,-0.3966,0.0,-0.3873,-0.3902,-0.4038,-0.4008,-0.4109,-0.4206,-0.3675,-0.3287,-0.3039,-0.3207,-0.3355,-0.2936,-0.3219,-0.3228,-0.2959,-0.2826,-0.2556,-0.2286,-0.2017,-0.1882,-0.1746,-0.2016,-0.2286,-0.2555,-0.2824,-0.2824,-0.2555,-0.2555,-0.2285,-0.1746,-0.1749,-0.2019,-0.2423,-0.2269,-0.2113,-0.2089,-0.2071,-0.2049,-0.2023,-0.1989,-0.1977,-0.1977,-0.1977,-0.1977,-0.1977,-0.1977,-0.1977,-0.1977,-0.1977,-0.1977,-0.1977,-0.1977,-0.1977,-0.1977,-0.1977,-0.1977,-0.1977,-0.1977,-0.1977,-0.2099,-0.2222,-0.2469,-0.271,-0.2937,-0.3317,-0.3565,-0.3641,-0.3745,-0.3852,-0.3466,-0.337,-0.3297,-0.3286,-0.3377,-0.3342,-0.3285,-0.3368,-0.3413,-0.3293,-0.3283,-0.3268,-0.3233,-0.323,-0.323,-0.323,-0.323,-0.323,-0.323,-0.323,-0.323,-0.323,-0.323,-0.323,-0.323,-0.323,-0.323,-0.3131,0.0,0.0,-0.3377,-0.3496,-0.3624,-0.3822,-0.3901,-0.3967,-0.4086,-0.418,-0.4237,-0.4219,-0.3987,-0.4014,-0.4282,-0.4014,-0.402,-0.4305,-0.424,-0.4176,-0.4131,-0.4097,-0.4117,-0.4222,-0.4263,-0.4289,-0.4307,-0.4308,-0.4308,-0.4308,-0.4172,-0.4038,-0.3902,-0.3902,-0.3902,-0.3902,-0.3902,-0.4038,-0.4308,-0.4308,-0.4308,-0.4308,-0.4308,-0.4038,-0.3632,-0.3096,-0.2693,-0.2557,-0.2264,-0.2117,-0.2107,-0.2085,-0.2071,-0.2059,-0.2142,-0.212,-0.1987,-0.1979,-0.1977,-0.1977,-0.1977,-0.1977,-0.1977,-0.1977,-0.1977,-0.1977,-0.2099,-0.2099,-0.2099,-0.2223,-0.2223,-0.2223,-0.2223,-0.2223,-0.2346,-0.259,-0.2837,-0.3085,-0.3085,-0.3455,-0.3703,-0.358,-0.3792,-0.388,-0.3862,-0.3785,-0.37,-0.3623,-0.3598,-0.3564,-0.3503,-0.3496,-0.3455,-0.3356,-0.3346,-0.332,-0.3259,-0.3256,-0.3248,-0.3232,-0.323,-0.323,-0.323,-0.323,-0.323,-0.323,-0.323,-0.323,-0.323,-0.323,-0.323,0.0,0.0,-0.3298,-0.3594,-0.3714,-0.3823,-0.406,-0.4116,-0.4153,-0.4274,-0.4301,-0.4286,-0.4228,-0.4218,-0.4219,-0.4219,-0.4219,-0.424,-0.4298,-0.4204,-0.4128,-0.4125,-0.4026,-0.3978,0.0,-0.415,-0.4244,-0.4304,-0.4308,-0.4308,-0.4308,-0.4038,-0.3902,-0.4308,-0.3902,-0.3902,-0.4308,-0.4308,-0.4308,-0.4308,-0.4308,-0.4308,-0.4308,-0.4308,-0.3902,-0.3228,-0.3228,-0.2826,-0.2155,-0.2154,-0.2136,-0.2109,-0.2108,-0.209,-0.2192,-0.2448,-0.2298,-0.2013,-0.1986,-0.1977,-0.1977,-0.1977,-0.1977,-0.1977,-0.1977,-0.1977,-0.2099,-0.2344,-0.2467,-0.259,-0.2838,-0.2961,-0.2961,-0.2961,-0.2961,-0.2961,-0.2961,-0.2961,-0.3085,-0.3455,-0.3455,-0.358,-0.3826,-0.395,-0.3928,-0.3869,-0.3857,-0.3811,-0.3691,-0.3624,-0.3564,-0.3503,-0.3496,-0.3473,-0.3414,-0.341,-0.3384,-0.3323,-0.3319,-0.3292,-0.3233,-0.323,-0.323,-0.323,-0.323,-0.323,-0.323,-0.323,-0.323,-0.323,-0.323,-0.323,0.0,0.0,-0.364,-0.386,-0.4022,-0.4168,-0.4326,-0.4362,-0.4364,-0.4367,-0.4271,-0.4157,-0.4059,-0.4007,-0.3993,-0.4033,-0.4105,-0.4164,-0.4184,-0.4151,-0.4082,-0.3963,-0.395,0.0,0.0,0.0,0.0,-0.424,-0.4247,-0.4264,-0.4305,-0.4172,-0.4172,-0.4308,-0.4172,-0.4172,-0.4308,-0.4308,-0.4308,-0.4308,-0.4308,-0.4308,-0.4308,-0.4038,-0.3768,-0.3632,-0.3096,-0.2827,-0.2826,-0.2558,-0.2685,-0.2806,-0.2806,-0.2798,-0.2783,-0.3021,-0.2853,-0.2684,-0.2771,-0.2739,-0.2716,-0.2716,-0.2716,-0.2716,-0.2716,-0.2716,-0.2716,-0.2838,-0.2837,-0.2837,-0.2961,-0.2984,-0.2999,-0.2968,-0.2984,-0.3123,-0.3339,-0.3332,-0.3455,-0.3703,-0.3703,-0.3826,-0.3828,-0.3951,-0.3929,-0.3869,-0.3792,-0.3725,-0.3684,-0.3625,-0.3579,-0.3559,-0.3556,-0.3533,-0.3473,-0.3469,-0.3427,-0.3327,-0.3322,-0.3294,-0.3233,-0.323,-0.323,-0.323,-0.323,-0.323,-0.323,-0.323,-0.323,-0.323,-0.323,-0.323,-0.3529,-0.3726,-0.3913,-0.4115,-0.4253,-0.4365,-0.4461,-0.4433,-0.4365,-0.4285,-0.4159,-0.4021,-0.3879,-0.3822,-0.3808,-0.3847,-0.3917,-0.3996,-0.408,-0.4038,-0.3988,-0.3959,-0.3933,-0.392,0.0,0.0,0.0,-0.4206,-0.4237,-0.4266,-0.4305,-0.4308,-0.4308,-0.4308,-0.4308,-0.4308,-0.4308,-0.4308,-0.4308,-0.4308,-0.4172,-0.4172,-0.4172,-0.3902,-0.3768,-0.3632,-0.3231,-0.3096,-0.3228,-0.2961,-0.2961,-0.3228,-0.3228,-0.3228,-0.3223,-0.3312,-0.3396,-0.3218,-0.3172,-0.2999,-0.2961,-0.2961,-0.2973,-0.2983,-0.2965,-0.2973,-0.3106,-0.3213,-0.3208,-0.3212,-0.3353,-0.3382,-0.3402,-0.3389,-0.3395,-0.3523,-0.3614,-0.3716,-0.3703,-0.3828,-0.3951,-0.3951,-0.3951,-0.3951,-0.3937,-0.3898,-0.3808,-0.3736,-0.3713,-0.3657,-0.362,-0.362,-0.3601,-0.3571,-0.3531,-0.3529,-0.3488,-0.339,-0.3365,-0.3326,-0.3266,-0.3243,-0.323,-0.323,-0.323,-0.323,-0.323,-0.323,-0.323,-0.323,-0.323,-0.323,-0.3722,-0.3917,-0.4109,-0.4343,-0.4405,-0.442,-0.4467,-0.4339,-0.4177,-0.4056,-0.3973,-0.3869,0.0,0.0,-0.3662,-0.3668,-0.3681,-0.3773,-0.4003,-0.3895,-0.3873,0.0,0.0,0.0,0.0,0.0,0.0,-0.4204,0.0,-0.4301,-0.4308,-0.4308,-0.4308,-0.4308,-0.4308,-0.4308,-0.4308,-0.4308,-0.4308,-0.4308,-0.4037,-0.3768,-0.3768,-0.3768,-0.3632,-0.3228,-0.3632,-0.3498,-0.3228,-0.3228,-0.3228,-0.3228,-0.3228,-0.3228,-0.3357,-0.3578,-0.3658,-0.3606,-0.3301,-0.3126,-0.3086,-0.3088,-0.3119,-0.3147,-0.3105,-0.3123,-0.3149,-0.3478,-0.3587,-0.3598,-0.3899,-0.4041,-0.4057,-0.4112,-0.4082,-0.4038,-0.4036,-0.3991,-0.3951,-0.3951,-0.3951,-0.3951,-0.3951,-0.3951,-0.3951,-0.3951,-0.3902,-0.3842,-0.3782,-0.3718,-0.3679,-0.3679,-0.3624,-0.3587,-0.3587,-0.3587,-0.3561,-0.35,-0.3443,-0.3386,-0.3324,-0.3263,-0.323,-0.323,-0.323,-0.323,-0.323,-0.323,-0.323,-0.323,-0.323,-0.323,-0.397,-0.4168,-0.4331,-0.4435,-0.4495,-0.451,-0.4436,-0.4279,-0.4115,-0.3997,-0.3747,-0.3522,0.0,0.0,0.0,-0.3529,-0.3733,0.0,-0.4021,-0.4074,0.0,-0.4061,0.0,-0.4052,-0.4036,-0.4104,0.0,0.0,-0.4188,-0.4211,-0.4303,-0.4308,-0.4308,-0.4308,-0.4308,-0.4308,-0.4308,-0.4308,-0.4308,-0.4308,-0.4172,-0.4172,-0.4172,-0.3902,-0.3768,-0.3632,-0.3498,-0.3498,-0.3632,-0.3632,-0.3768,-0.4038,-0.4038,-0.4038,-0.4035,-0.4155,-0.4113,-0.4053,-0.3867,-0.3784,-0.371,-0.3749,-0.3771,-0.3789,-0.3817,-0.3836,-0.3844,-0.3957,-0.3953,-0.3956,-0.41,-0.4136,-0.4162,-0.4132,-0.4113,-0.409,-0.4045,-0.3991,-0.3951,-0.3951,-0.3951,-0.3951,-0.3951,-0.3951,-0.3951,-0.3951,-0.3937,-0.3905,-0.3845,-0.3744,-0.3679,-0.3679,-0.3624,-0.3587,-0.3587,-0.3587,-0.3561,-0.35,-0.3443,-0.3386,-0.3324,-0.3263,-0.323,-0.323,-0.323,-0.323,-0.323,-0.323,-0.323,-0.323,-0.323,-0.323,-0.4187,-0.4358,-0.4476,-0.4481,-0.4489,-0.4459,-0.4312,-0.4139,-0.3952,-0.3755,-0.3553,0.0,0.0,0.0,0.0,0.0,0.0,0.0,-0.3935,-0.4016,-0.4083,0.0,-0.4161,0.0,-0.4155,-0.4192,-0.4228,0.0,-0.4225,-0.4236,-0.4304,-0.4308,-0.4308,-0.4308,-0.4308,-0.4308,-0.4308,-0.4308,-0.4308,-0.4308,-0.4172,-0.4038,-0.4038,-0.3902,-0.3768,-0.3768,-0.3768,-0.3768,-0.4038,-0.4038,-0.4172,-0.4308,-0.4308,-0.4308,-0.4304,-0.4278,-0.4245,-0.4209,-0.4146,-0.4064,-0.3988,-0.3996,-0.4033,-0.4076,-0.4083,-0.4123,-0.4159,-0.4134,-0.4125,-0.4132,-0.4158,-0.4191,-0.4214,-0.4207,-0.4185,-0.4149,-0.4087,-0.405,-0.4019,-0.3993,-0.3988,-0.398,-0.3955,-0.3951,-0.3951,-0.3951,-0.3951,-0.3937,-0.3903,-0.3816,-0.3758,-0.3758,-0.368,-0.3627,-0.3627,-0.3602,-0.3572,-0.3538,-0.3481,-0.3422,-0.3364,-0.3303,-0.3258,-0.3232,-0.323,-0.323,-0.323,-0.323,-0.323,-0.323,-0.323,-0.323,-0.4372,-0.4485,-0.4541,-0.4504,-0.4435,-0.4326,-0.4143,-0.3951,-0.3732,-0.3447,0.0,-0.3307,-0.3155,-0.3177,-0.3244,-0.332,0.0,-0.3556,-0.3834,-0.3892,-0.4004,-0.4264,-0.4256,-0.4249,-0.4303,-0.426,-0.4251,-0.4304,-0.4308,-0.4308,-0.4308,-0.4308,-0.4308,-0.4308,-0.4308,-0.4308,-0.4308,-0.4308,-0.4308,-0.4308,-0.4038,-0.3902,-0.3902,-0.3902,-0.3902,-0.3902,-0.4172,-0.4308,-0.4308,-0.4308,-0.4308,-0.4308,-0.4308,-0.4308,-0.4301,-0.4248,-0.4229,-0.4219,-0.4158,-0.4104,-0.4049,-0.3992,-0.4042,-0.4117,-0.4072,-0.4138,-0.4217,-0.4165,-0.415,-0.4162,-0.4215,-0.4229,-0.4241,-0.4294,-0.426,-0.4202,-0.415,-0.4131,-0.411,-0.4057,-0.404,-0.4019,-0.397,-0.3955,-0.3951,-0.3951,-0.3951,-0.3951,-0.3951,-0.3898,-0.386,-0.386,-0.3751,-0.3679,-0.3679,-0.3623,-0.3587,-0.3587,-0.353,-0.3471,-0.3414,-0.3353,-0.3293,-0.3232,-0.323,-0.323,-0.323,-0.323,-0.323,-0.323,-0.323,-0.323,-0.4495,-0.4488,-0.445,-0.4537,-0.4401,-0.4202,-0.4022,-0.3763,0.0,0.0,0.0,-0.3042,-0.3061,-0.3115,0.0,-0.3371,0.0,0.0,0.0,0.0,-0.4174,0.0,0.0,0.0,0.0,0.0,0.0,0.0,-0.4308,-0.4308,-0.4308,-0.4308,-0.4308,-0.4308,-0.4308,-0.4308,-0.4308,-0.4308,-0.4308,-0.4308,-0.4307,-0.4172,-0.4172,-0.4172,-0.4172,-0.4172,-0.4308,-0.4308,-0.4308,-0.4308,-0.4308,-0.4308,-0.4308,-0.4308,-0.4307,-0.4296,-0.4292,-0.4283,-0.4222,-0.4194,-0.4176,-0.4115,-0.4109,-0.4134,-0.4173,-0.4234,-0.4289,-0.4279,-0.4275,-0.4278,-0.4289,-0.4292,-0.4294,-0.4305,-0.426,-0.4214,-0.4203,-0.4161,-0.4123,-0.4112,-0.4068,-0.4031,-0.4022,-0.3981,-0.3951,-0.3951,-0.3951,-0.3951,-0.3951,-0.3898,-0.386,-0.386,-0.3751,-0.3679,-0.3679,-0.3623,-0.3587,-0.3587,-0.353,-0.3471,-0.3414,-0.3353,-0.3293,-0.3232,-0.323,-0.323,-0.323,-0.323,-0.323,-0.323,-0.323,-0.323,-0.4486,-0.4485,-0.4448,-0.4476,-0.43,-0.4067,-0.3857,0.0,0.0,0.0,0.0,-0.3108,-0.3139,0.0,0.0,0.0,0.0,0.0,0.0,0.0,0.0,0.0,0.0,0.0,0.0,0.0,0.0,-0.4308,-0.4308,-0.4308,-0.4308,-0.4308,-0.4308,-0.4308,-0.4308,-0.4308,-0.4308,-0.4308,-0.4308,-0.4308,-0.4308,-0.4308,-0.4308,-0.4308,-0.4308,-0.4308,-0.4308,-0.4308,-0.4308,-0.4308,-0.4308,-0.4308,-0.4308,-0.4308,-0.4308,-0.4308,-0.4308,-0.4304,-0.4274,-0.4243,-0.4207,-0.4145,-0.4147,-0.4179,-0.4207,-0.4259,-0.4308,-0.4308,-0.4308,-0.4308,-0.4308,-0.4308,-0.4308,-0.4308,-0.426,-0.4225,-0.4258,-0.4215,-0.4164,-0.4132,-0.4102,-0.4063,-0.4001,-0.3969,-0.3951,-0.3951,-0.3951,-0.3951,-0.3951,-0.3925,-0.3907,-0.3907,-0.3798,-0.3726,-0.3726,-0.364,-0.3587,-0.3587,-0.356,-0.3504,-0.3416,-0.3384,-0.3324,-0.3233,-0.323,-0.323,-0.323,-0.323,-0.323,-0.323,-0.323,-0.323,-0.4432,-0.4455,-0.4437,-0.4406,-0.4196,-0.3937,-0.371,-0.3463,0.0,0.0,-0.2988,-0.3129,-0.3141,0.0,0.0,0.0,0.0,0.0,0.0,0.0,0.0,0.0,0.0,0.0,0.0,0.0,0.0,-0.4308,-0.4308,-0.4308,-0.4308,-0.4308,-0.4308,-0.4308,-0.4308,-0.4308,-0.4308,-0.4308,-0.4308,-0.4308,-0.4308,-0.4308,-0.4308,-0.4308,-0.4308,-0.4308,-0.4308,-0.4308,-0.4308,-0.4308,-0.4308,-0.4308,-0.4308,-0.4308,-0.4308,-0.4308,-0.4308,-0.4308,-0.4308,-0.4275,-0.4229,-0.418,-0.4188,-0.4214,-0.4202,-0.4248,-0.4308,-0.4308,-0.4308,-0.4308,-0.4308,-0.4308,-0.4308,-0.4308,-0.4271,-0.4249,-0.4297,-0.427,-0.4222,-0.4174,-0.4143,-0.4097,-0.4004,-0.3967,-0.3951,-0.3951,-0.3951,-0.3951,-0.3951,-0.3951,-0.3951,-0.3951,-0.3842,-0.377,-0.377,-0.3657,-0.3587,-0.3587,-0.3587,-0.3541,-0.3435,-0.3418,-0.3361,-0.3252,-0.3237,-0.323,-0.323,-0.323,-0.323,-0.323,-0.323,-0.323,-0.4373,-0.4365,-0.4335,-0.4386,-0.4135,-0.3827,-0.3639,0.0,0.0,-0.292,-0.2928,-0.2984,-0.3133,-0.3098,0.0,0.0,0.0,0.0,0.0,0.0,0.0,0.0,0.0,0.0,0.0,0.0,0.0,-0.4308,-0.4308,-0.4308,-0.4308,-0.4308,-0.4308,-0.4308,-0.4308,-0.4308,-0.4308,-0.4308,-0.4308,-0.4308,-0.4308,-0.4308,-0.4308,-0.4308,-0.4308,-0.4308,-0.4308,-0.4308,-0.4308,-0.4308,-0.4308,-0.4308,-0.4308,-0.4308,-0.4308,-0.4308,-0.4308,-0.4308,-0.4308,-0.4304,-0.4298,-0.4293,-0.4258,-0.4206,-0.4151,-0.4215,-0.4308,-0.4308,-0.4308,-0.4308,-0.4308,-0.4308,-0.4308,-0.4308,-0.4304,-0.43,-0.4307,-0.4304,-0.4297,-0.4292,-0.4202,-0.4123,-0.4112,-0.4022,-0.3951,-0.3951,-0.3951,-0.3951,-0.3951,-0.3951,-0.3951,-0.3951,-0.3842,-0.377,-0.377,-0.3657,-0.3587,-0.3587,-0.3587,-0.3557,-0.3492,-0.344,-0.3382,-0.3315,-0.3259,-0.323,-0.323,-0.323,-0.323,-0.323,-0.323,-0.323,-0.4181,-0.427,-0.4305,-0.4292,-0.4045,-0.3758,-0.3574,0.0,0.0,-0.2903,-0.2891,-0.2936,-0.3126,-0.3068,-0.3125,0.0,0.0,0.0,0.0,0.0,0.0,0.0,0.0,0.0,0.0,0.0,-0.4308,-0.4308,-0.4308,-0.4308,-0.4308,-0.4308,-0.4308,-0.4308,-0.4308,-0.4308,-0.4308,-0.4308,-0.4308,-0.4308,-0.4308,-0.4308,-0.4308,-0.4308,-0.4308,-0.4308,-0.4308,-0.4308,-0.4308,-0.4308,-0.4308,-0.4308,-0.4308,-0.4308,-0.4308,-0.4308,-0.4308,-0.4301,-0.4266,-0.4253,-0.4247,-0.421,-0.4181,-0.4164,-0.4177,-0.4214,-0.4253,-0.4253,-0.4279,-0.4308,-0.4308,-0.4308,-0.4308,-0.4308,-0.4308,-0.4308,-0.4308,-0.4279,-0.4253,-0.4253,-0.4154,-0.4071,-0.4071,-0.4004,-0.3951,-0.3951,-0.3951,-0.3951,-0.3951,-0.3951,-0.3951,-0.3951,-0.3875,-0.3809,-0.3773,-0.3691,-0.3627,-0.359,-0.3587,-0.356,-0.3499,-0.3443,-0.3384,-0.3323,-0.3262,-0.323,-0.323,-0.323,-0.323,-0.323,-0.323,-0.323,-0.3937,-0.4108,-0.4217,-0.4173,-0.3937,-0.3673,0.0,0.0,0.0,-0.2894,-0.2887,-0.2929,-0.3125,-0.3064,-0.3109,-0.3214,0.0,-0.3273,0.0,0.0,0.0,0.0,0.0,0.0,0.0,0.0,-0.4308,-0.4308,-0.4308,-0.4308,-0.4308,-0.4308,-0.4308,-0.4308,-0.4308,-0.4308,-0.4308,-0.4308,-0.4308,-0.4308,-0.4308,-0.4308,-0.4308,-0.4308,-0.4308,-0.4308,-0.4308,-0.4308,-0.4308,-0.4308,-0.4297,-0.4281,-0.4281,-0.427,-0.4256,-0.4274,-0.4281,-0.4277,-0.4252,-0.4232,-0.421,-0.4166,-0.4128,-0.4106,-0.415,-0.4176,-0.4194,-0.4211,-0.426,-0.4308,-0.4308,-0.4308,-0.4308,-0.4308,-0.4308,-0.4308,-0.4308,-0.4274,-0.4243,-0.4243,-0.4145,-0.4061,-0.4061,-0.4,-0.3951,-0.3951,-0.3951,-0.3951,-0.3951,-0.3951,-0.3951,-0.3951,-0.3913,-0.3856,-0.3777,-0.3713,-0.3653,-0.3591,-0.3587,-0.3568,-0.3525,-0.3451,-0.3392,-0.3349,-0.3271,-0.323,-0.323,-0.323,-0.323,-0.323,-0.323,-0.323,-0.365,-0.3857,-0.4037,-0.4037,-0.3811,-0.3559,0.0,0.0,-0.2943,-0.2886,-0.2918,-0.2977,-0.3133,-0.3098,-0.3158,-0.3221,-0.323,0.0,0.0,0.0,0.0,0.0,0.0,0.0,0.0,0.0,-0.4308,-0.4308,-0.4308,-0.4308,-0.4308,-0.4308,-0.4308,-0.4308,-0.4308,-0.4308,-0.4308,-0.4308,-0.4308,-0.4308,-0.4308,-0.4308,-0.4308,-0.4308,-0.4308,-0.4308,-0.4308,-0.4308,-0.4308,-0.4308,-0.4271,-0.4217,-0.4217,-0.4181,-0.4135,-0.4195,-0.4217,-0.4226,-0.4286,-0.4267,-0.4217,-0.4215,-0.4134,-0.4036,-0.4036,-0.4079,-0.4139,-0.42,-0.426,-0.4308,-0.4308,-0.4308,-0.4308,-0.4308,-0.4308,-0.4308,-0.4308,-0.4307,-0.4307,-0.4307,-0.4209,-0.4125,-0.4125,-0.4027,-0.3951,-0.3951,-0.3951,-0.3951,-0.3951,-0.3951,-0.3951,-0.3951,-0.395,-0.3901,-0.3779,-0.3713,-0.3653,-0.3591,-0.3587,-0.3587,-0.3587,-0.3474,-0.3413,-0.3412,-0.3292,-0.323,-0.323,-0.323,-0.323,-0.323,-0.323,-0.323,-0.339,-0.3579,-0.3718,-0.3677,-0.3536,-0.3373,-0.3253,0.0,-0.2941,-0.2886,-0.2888,-0.2931,-0.3126,-0.3065,-0.311,-0.3214,-0.323,0.0,0.0,0.0,0.0,0.0,0.0,0.0,0.0,0.0,-0.4308,-0.4308,-0.4308,-0.4308,-0.4308,-0.4308,-0.4308,-0.4308,-0.4308,-0.4308,-0.4308,-0.4308,-0.4308,-0.4308,-0.4308,-0.4308,-0.4308,-0.4308,-0.4308,-0.4308,-0.4308,-0.4308,-0.4308,-0.4308,-0.4296,-0.4274,-0.4233,-0.4204,-0.4185,-0.4162,-0.4154,-0.4151,-0.413,-0.4108,-0.4091,-0.4091,-0.404,-0.3984,-0.4023,-0.4048,-0.4085,-0.4188,-0.426,-0.4308,-0.4308,-0.4308,-0.4308,-0.4308,-0.4308,-0.4308,-0.4308,-0.4274,-0.4258,-0.4298,-0.4209,-0.4125,-0.4125,-0.406,-0.3995,-0.3956,-0.3951,-0.3951,-0.3951,-0.3951,-0.3951,-0.3951,-0.3951,-0.3918,-0.3838,-0.3775,-0.3714,-0.3653,-0.361,-0.3587,-0.3587,-0.3512,-0.3451,-0.3413,-0.3334,-0.3273,-0.323,-0.323,-0.323,-0.323,-0.323,-0.323,0.0,-0.3316,-0.3448,-0.3435,-0.3341,0.0,0.0,0.0,-0.2917,-0.2882,-0.2875,-0.291,-0.3122,-0.3144,-0.3089,-0.3211,-0.323,0.0,0.0,0.0,0.0,0.0,0.0,0.0,0.0,-0.4281,-0.4308,-0.4308,-0.4308,-0.4308,-0.4308,-0.4308,-0.4308,-0.4308,-0.4308,-0.4308,-0.4308,-0.4308,-0.4308,-0.4308,-0.4308,-0.4308,-0.4308,-0.4308,-0.4308,-0.4308,-0.4308,-0.4294,0.0,-0.4273,-0.4245,-0.42,-0.4162,-0.4135,-0.4115,-0.4098,-0.4091,-0.4089,-0.4074,-0.4055,-0.4034,-0.4034,-0.3997,-0.3956,-0.3993,-0.4034,-0.4085,-0.4161,-0.4243,-0.4308,-0.4308,-0.4308,-0.4308,-0.4308,-0.4308,-0.4308,-0.4308,-0.4278,-0.4255,-0.427,-0.4194,-0.4119,-0.4095,-0.4042,-0.3991,-0.3956,-0.3951,-0.3951,-0.3951,-0.3951,-0.3951,-0.3951,-0.3951,-0.3935,-0.3898,-0.3818,-0.3744,-0.3683,-0.3621,-0.3587,-0.3587,-0.3529,-0.347,-0.3414,-0.3352,-0.3292,-0.323,-0.323,-0.323,-0.323,-0.323,-0.323,0.0,0.0,0.0,0.0,0.0,0.0,0.0,0.0,0.0,-0.2875,-0.2877,-0.2914,-0.3123,-0.3053,-0.3094,-0.3211,-0.323,0.0,0.0,0.0,0.0,0.0,0.0,0.0,-0.412,-0.4236,-0.4308,-0.4308,-0.4308,-0.4308,-0.4308,-0.4308,-0.4308,-0.4308,-0.4308,-0.4308,-0.4308,-0.4308,-0.4308,-0.4308,-0.4308,-0.4308,-0.4308,-0.4308,-0.4308,-0.4308,-0.4308,-0.4273,-0.4217,-0.4217,-0.4147,-0.4041,-0.4036,-0.4003,-0.3962,-0.4011,-0.4029,-0.4037,-0.4093,-0.4076,-0.4029,-0.4029,-0.3993,-0.3951,-0.3951,-0.4033,-0.4125,-0.4125,-0.4214,-0.4308,-0.4308,-0.4308,-0.4308,-0.4308,-0.4308,-0.4308,-0.4308,-0.4304,-0.4285,-0.4228,-0.4168,-0.4106,-0.4045,-0.3991,-0.3955,-0.3951,-0.3951,-0.3951,-0.3951,-0.3951,-0.3951,-0.3951,-0.3951,-0.3951,-0.3951,-0.3843,-0.3749,-0.3688,-0.3627,-0.3591,-0.3587,-0.3533,-0.3476,-0.342,-0.3354,-0.3292,-0.323,-0.323,-0.323,-0.323,-0.323,-0.323,-0.2726,0.0,-0.2903,-0.2965,-0.2958,0.0,0.0,0.0,0.0,0.0,0.0,0.0,0.0,-0.3087,-0.3143,0.0,0.0,0.0,0.0,0.0,0.0,0.0,0.0,0.0,-0.4134,-0.4236,-0.4308,-0.4308,-0.4308,-0.4308,-0.4308,-0.4308,-0.4308,-0.4308,-0.4308,-0.4308,-0.4308,-0.4308,-0.4308,-0.4308,-0.4308,-0.4308,-0.4308,-0.4308,-0.4308,-0.4308,-0.4308,-0.4273,-0.4217,-0.4217,-0.4172,-0.41,-0.4053,-0.4026,-0.4011,-0.3981,-0.397,-0.3973,-0.3986,-0.3982,-0.397,-0.397,-0.3961,-0.3951,-0.3951,-0.4033,-0.4125,-0.4125,-0.4214,-0.4308,-0.4308,-0.4308,-0.4308,-0.4308,-0.4308,-0.4308,-0.4308,-0.4271,-0.4233,-0.4219,-0.4168,-0.4106,-0.4045,-0.4023,-0.4,-0.3956,-0.3951,-0.3951,-0.3951,-0.3951,-0.3951,-0.3951,-0.3951,-0.3951,-0.3951,-0.3882,-0.3812,-0.3752,-0.3691,-0.3636,-0.359,-0.3574,-0.3538,-0.3477,-0.3375,-0.3292,-0.323,-0.323,-0.323,-0.323,-0.323,-0.323,-0.2676,-0.2737,-0.2798,-0.2858,-0.2875,-0.2875,0.0,0.0,0.0,0.0,0.0,0.0,0.0,0.0,0.0,0.0,0.0,0.0,0.0,0.0,0.0,0.0,0.0,-0.4219,0.0,-0.4268,-0.4308,-0.4308,-0.4308,-0.4308,-0.4308,-0.4308,-0.4308,-0.4308,-0.4308,-0.4308,-0.4308,-0.4308,-0.4308,-0.4308,-0.4308,-0.4308,-0.4307,-0.4279,-0.4266,-0.4264,-0.4236,-0.4189,-0.4134,-0.4134,-0.4098,-0.4042,-0.4008,-0.3996,-0.3993,-0.3962,-0.3951,-0.3951,-0.3951,-0.3951,-0.3951,-0.3951,-0.3951,-0.3951,-0.3951,-0.4012,-0.409,-0.4117,-0.4194,-0.4273,-0.43,-0.4308,-0.4308,-0.4308,-0.4308,-0.43,-0.4271,-0.424,-0.42,-0.4143,-0.4106,-0.4065,-0.4006,-0.3996,-0.3985,-0.3955,-0.3951,-0.3951,-0.3951,-0.3951,-0.3951,-0.3951,-0.3951,-0.3951,-0.3951,-0.3921,-0.3875,-0.3815,-0.3728,-0.3664,-0.3631,-0.3602,-0.3559,-0.3497,-0.3409,-0.3346,-0.3313,-0.3286,-0.3273,-0.3271,-0.3244,-0.323,-0.2436,-0.2584,-0.282,-0.2864,-0.2875,-0.2875,0.0,0.0,0.0,0.0,0.0,0.0,0.0,0.0,0.0,0.0,0.0,0.0,0.0,0.0,0.0,0.0,0.0,0.0,-0.4271,-0.4296,-0.4308,-0.4308,-0.4308,-0.4308,-0.4308,-0.4308,-0.4308,-0.4308,-0.4308,-0.4308,-0.4308,-0.4308,-0.4308,-0.4308,-0.4308,-0.4303,-0.4292,-0.424,-0.4211,-0.42,-0.4149,-0.4091,-0.4034,-0.4034,-0.4001,-0.3951,-0.3951,-0.3951,-0.3951,-0.3951,-0.3951,-0.3951,-0.3951,-0.3951,-0.3951,-0.3951,-0.3951,-0.3951,-0.3951,-0.3984,-0.4034,-0.4094,-0.4155,-0.4214,-0.4266,-0.4279,-0.4279,-0.4279,-0.4279,-0.4266,-0.4214,-0.4195,-0.4158,-0.4055,-0.4027,-0.4007,-0.3959,-0.3951,-0.3951,-0.3951,-0.3951,-0.3951,-0.3951,-0.3951,-0.3951,-0.3951,-0.3951,-0.3951,-0.3951,-0.3943,-0.3918,-0.3877,-0.3759,-0.3684,-0.3665,-0.3615,-0.3559,-0.3497,-0.345,-0.3421,-0.3413,-0.3352,-0.3322,-0.332,-0.3259,-0.323,-0.1117,-0.1957,-0.2921,-0.2884,-0.2875,-0.2875,0.0,0.0,0.0,0.0,0.0,0.0,0.0,0.0,0.0,0.0,0.0,0.0,0.0,0.0,0.0,0.0,0.0,-0.4247,-0.4162,-0.4247,-0.4308,-0.4308,-0.4308,-0.4308,-0.4308,-0.4308,-0.4308,-0.4308,-0.4308,-0.4308,-0.4308,-0.4308,-0.4308,-0.4308,-0.4308,-0.4281,-0.423,-0.4221,-0.4188,-0.4139,-0.413,-0.4091,-0.4034,-0.4034,-0.4001,-0.3951,-0.3951,-0.3951,-0.3951,-0.3951,-0.3951,-0.3951,-0.3951,-0.3951,-0.3951,-0.3951,-0.3951,-0.3951,-0.3951,-0.3956,-0.3976,-0.4033,-0.4093,-0.4142,-0.4151,-0.4154,-0.4154,-0.4154,-0.4154,-0.4151,-0.4142,-0.41,-0.4057,-0.4038,-0.3996,-0.3961,-0.3952,-0.3951,-0.3951,-0.3951,-0.3951,-0.3951,-0.3951,-0.3951,-0.3951,-0.3951,-0.3951,-0.3951,-0.3951,-0.3903,-0.3892,-0.3933,-0.3822,-0.3709,-0.3605,-0.3593,-0.3559,-0.3497,-0.3488,-0.3461,-0.3413,-0.3352,-0.3322,-0.332,-0.3259,-0.323,-0.0604,-0.0976,-0.1545,-0.2006,-0.2577,-0.2961,0.0,0.0,0.0,0.0,0.0,0.0,0.0,0.0,0.0,0.0,0.0,0.0,0.0,0.0,-0.3932,0.0,0.0,-0.4213,-0.4222,-0.4274,-0.4308,-0.4308,-0.4308,-0.4308,-0.4308,-0.4308,-0.4292,-0.4259,-0.4259,-0.4243,-0.421,-0.421,-0.4226,-0.4258,-0.4225,-0.4195,-0.4166,-0.4134,-0.4104,-0.4075,-0.4045,-0.4015,-0.3989,-0.3989,-0.3974,-0.3951,-0.3951,-0.3951,-0.3951,-0.3951,-0.3951,-0.3951,-0.3951,-0.3951,-0.3951,-0.3951,-0.3951,-0.3951,-0.3951,-0.3951,-0.3956,-0.3982,-0.4031,-0.4085,-0.4117,-0.4125,-0.4125,-0.4125,-0.4125,-0.4116,-0.4083,-0.4055,-0.4026,-0.3996,-0.3969,-0.3951,-0.3951,-0.3951,-0.3951,-0.3951,-0.3951,-0.3951,-0.3951,-0.3951,-0.3951,-0.3951,-0.3951,-0.3951,-0.3951,-0.3895,-0.3858,-0.3853,-0.38,-0.3729,-0.364,-0.3605,-0.3574,-0.3546,-0.3545,-0.3533,-0.3507,-0.3446,-0.3416,-0.3414,-0.3322,-0.3279,0.0087,0.0089,-0.0,-0.0549,0.0,0.0,0.0,0.0,0.0,0.0,0.0,0.0,0.0,0.0,0.0,0.0,0.0,0.0,0.0,-0.3905,-0.3982,-0.4086,-0.4139,-0.4204,-0.4298,-0.4308,-0.4301,-0.4288,-0.4298,-0.4294,-0.4266,-0.4278,-0.4259,-0.4196,-0.4195,-0.4173,-0.4127,-0.4112,-0.4135,-0.4195,-0.4149,-0.4117,-0.4102,-0.4056,-0.4027,-0.4012,-0.397,-0.3951,-0.3951,-0.3951,-0.3951,-0.3951,-0.3951,-0.3951,-0.3951,-0.3951,-0.3951,-0.3951,-0.3951,-0.3951,-0.3951,-0.3951,-0.3951,-0.3951,-0.3951,-0.3951,-0.3951,-0.3951,-0.3981,-0.4026,-0.4072,-0.4085,-0.4085,-0.4085,-0.4085,-0.4072,-0.4025,-0.4015,-0.4003,-0.3959,-0.3951,-0.3951,-0.3951,-0.3951,-0.3951,-0.3951,-0.3951,-0.3951,-0.3951,-0.3951,-0.3951,-0.3951,-0.3951,-0.3946,-0.3931,-0.3887,-0.3834,-0.3774,-0.3756,-0.3721,-0.3659,-0.3612,-0.3587,-0.3587,-0.3587,-0.3587,-0.3587,-0.3526,-0.3496,-0.3493,-0.3391,-0.3342,0.1958,0.127,0.0734,0.1352,0.0,0.0,-0.2422,0.0,0.0,0.0,0.0,0.0,0.0,0.0,0.0,0.0,0.0,0.0,-0.4076,0.0,-0.4215,-0.4281,-0.4292,-0.4297,-0.4307,-0.4308,-0.4283,-0.4228,-0.4275,-0.4258,-0.4145,-0.4192,-0.4195,-0.4134,-0.4132,-0.413,-0.4125,-0.407,-0.4072,-0.4132,-0.4128,-0.4097,-0.4041,-0.4037,-0.4006,-0.3956,-0.3952,-0.3951,-0.3951,-0.3951,-0.3951,-0.3951,-0.3951,-0.3951,-0.3951,-0.3951,-0.3951,-0.3951,-0.3951,-0.3951,-0.3951,-0.3951,-0.3951,-0.3951,-0.3951,-0.3951,-0.3951,-0.3951,-0.3954,-0.3958,-0.3962,-0.3963,-0.3963,-0.3963,-0.3963,-0.3962,-0.3958,-0.3956,-0.3955,-0.3951,-0.3951,-0.3951,-0.3951,-0.3951,-0.3951,-0.3951,-0.3951,-0.3951,-0.3951,-0.3951,-0.3951,-0.3951,-0.3951,-0.3928,-0.3871,-0.3862,-0.3834,-0.3774,-0.3717,-0.3657,-0.3597,-0.359,-0.3587,-0.3587,-0.3587,-0.3587,-0.3587,-0.3526,-0.3496,-0.3495,-0.3435,-0.3406,0.2674,0.2162,0.1632,0.1914,0.0,0.0,0.0,0.0,0.0,0.0,0.0,0.0,0.0,0.0,0.0,0.0,0.0,-0.4006,-0.411,-0.4179,-0.4225,-0.4248,-0.4217,-0.421,-0.4247,-0.4217,-0.4185,-0.4162,-0.4181,-0.4174,-0.4128,-0.4147,-0.4132,-0.4071,-0.4068,-0.4052,-0.4016,-0.3995,-0.3995,-0.4016,-0.4016,-0.4004,-0.3982,-0.3982,-0.3971,-0.3951,-0.3951,-0.3951,-0.3951,-0.3951,-0.3951,-0.3951,-0.3951,-0.3951,-0.3951,-0.3951,-0.3951,-0.3951,-0.3951,-0.3951,-0.3951,-0.3951,-0.3951,-0.3951,-0.3951,-0.3951,-0.3951,-0.3951,-0.3951,-0.3951,-0.3951,-0.3951,-0.3951,-0.3951,-0.3951,-0.3951,-0.3951,-0.3951,-0.3951,-0.3951,-0.3951,-0.3951,-0.3951,-0.3951,-0.3951,-0.3951,-0.3951,-0.3951,-0.3951,-0.3951,-0.3951,-0.3951,-0.3951,-0.3927,-0.3865,-0.386,-0.3818,-0.3719,-0.3691,-0.3668,-0.3644,-0.3608,-0.3587,-0.3587,-0.3587,-0.3587,-0.3587,-0.3564,-0.3553,-0.3552,-0.3492,-0.3465,0.2761,0.2597,0.234,0.0,0.0,0.0,0.0,0.0,0.0,0.0,0.0,0.0,0.0,0.0,0.0,0.0,-0.3662,-0.3798,-0.3965,-0.402,-0.4188,-0.4188,-0.4151,-0.4142,-0.4184,-0.415,-0.4117,-0.4098,-0.4115,-0.4109,-0.4072,-0.4087,-0.407,-0.401,-0.4008,-0.3989,-0.3951,-0.3951,-0.3951,-0.3951,-0.3931,-0.3932,-0.3951,-0.3951,-0.3951,-0.3951,-0.3951,-0.3951,-0.3951,-0.3951,-0.3951,-0.3951,-0.3951,-0.3951,-0.3951,-0.3951,-0.3951,-0.3951,-0.3951,-0.3951,-0.3951,-0.3951,-0.3951,-0.3951,-0.3951,-0.3951,-0.3951,-0.3951,-0.3951,-0.3951,-0.3951,-0.3951,-0.3951,-0.3951,-0.3951,-0.3951,-0.3951,-0.3951,-0.3951,-0.3951,-0.3951,-0.3951,-0.3951,-0.3951,-0.3951,-0.3951,-0.3951,-0.3951,-0.3951,-0.3951,-0.3951,-0.3951,-0.3951,-0.3933,-0.3892,-0.3871,-0.3816,-0.3713,-0.3688,-0.367,-0.365,-0.3609,-0.3587,-0.3587,-0.3587,-0.3587,-0.3587,-0.3587,-0.3587,-0.3587,-0.3545,-0.3525,0.2315,0.2508,0.0,0.0,0.0,0.0,0.0,0.0,0.0,0.0,0.0,0.0,0.0,0.0,0.0,-0.2751,-0.3152,-0.3534,-0.3534,-0.3833,-0.4125,-0.4125,-0.4124,-0.4124,-0.4125,-0.4124,-0.41,-0.4038,-0.4089,-0.4072,-0.3956,-0.4003,-0.4007,-0.3951,-0.395,-0.395,-0.395,-0.395,-0.395,-0.3948,-0.3888,-0.3891,-0.395,-0.395,-0.395,-0.395,-0.395,-0.395,-0.395,-0.395,-0.395,-0.395,-0.395,-0.395,-0.395,-0.395,-0.395,-0.3951,-0.3951,-0.3951,-0.3951,-0.395,-0.395,-0.395,-0.395,-0.395,-0.395,-0.395,-0.395,-0.3951,-0.3951,-0.3951,-0.3951,-0.3951,-0.3951,-0.3951,-0.3951,-0.3951,-0.3951,-0.3951,-0.3951,-0.3951,-0.3951,-0.3951,-0.3951,-0.3951,-0.3951,-0.3951,-0.3951,-0.3951,-0.3951,-0.3951,-0.3951,-0.3951,-0.3951,-0.3895,-0.3834,-0.3774,-0.3711,-0.3651,-0.359,-0.3587,-0.3587,-0.3587,-0.3587,-0.3587,-0.3587,-0.3587,-0.3587,-0.3587,-0.3587,-0.3587,0.2683,0.0,0.0,0.0,0.0,0.0,0.0,0.0,0.0,0.0,0.0,0.0,0.0,0.0,0.0,-0.2803,-0.3147,-0.3479,-0.3479,-0.3775,-0.4061,-0.4061,-0.4027,-0.4018,-0.4057,-0.4026,-0.3995,-0.3977,-0.3952,-0.3924,-0.3888,-0.3903,-0.3884,-0.3826,-0.3865,-0.3867,-0.3823,-0.3823,-0.3823,-0.3823,-0.3805,-0.3828,-0.3886,-0.3842,-0.3823,-0.3823,-0.3823,-0.3823,-0.3823,-0.3823,-0.3823,-0.3823,-0.3823,-0.3849,-0.3887,-0.3887,-0.3914,-0.3951,-0.3951,-0.3951,-0.3944,-0.3901,-0.3887,-0.3879,-0.3837,-0.3853,-0.3887,-0.3887,-0.3918,-0.3951,-0.3951,-0.3951,-0.3951,-0.3951,-0.3951,-0.3951,-0.3951,-0.3951,-0.3951,-0.3951,-0.3951,-0.3951,-0.3951,-0.3951,-0.3951,-0.3951,-0.3951,-0.3951,-0.3951,-0.3951,-0.3951,-0.3951,-0.3951,-0.3951,-0.3951,-0.3895,-0.3834,-0.3774,-0.3711,-0.3651,-0.359,-0.3587,-0.3587,-0.3587,-0.3587,-0.3587,-0.3587,-0.3587,-0.3587,-0.3587,-0.3587,-0.3587,0.1699,0.0,0.0,0.0,0.0,0.0,0.0,0.0,0.0,0.0,0.0,0.0,-0.2725,-0.2601,0.0,-0.2707,-0.3023,-0.3325,-0.3427,-0.3716,-0.4001,-0.4001,-0.3971,-0.3954,-0.3965,-0.3935,-0.3783,-0.3637,-0.3845,-0.3823,-0.3704,-0.3823,-0.3807,-0.3771,-0.3805,-0.3807,-0.377,-0.377,-0.377,-0.377,-0.3745,-0.3752,-0.3788,-0.3775,-0.377,-0.377,-0.377,-0.377,-0.377,-0.377,-0.377,-0.377,-0.377,-0.3792,-0.3824,-0.3824,-0.3847,-0.3879,-0.3879,-0.3879,-0.3872,-0.3835,-0.3824,-0.3822,-0.3809,-0.3831,-0.3865,-0.389,-0.3922,-0.3951,-0.3951,-0.3951,-0.3951,-0.3951,-0.3951,-0.3951,-0.3951,-0.3951,-0.3951,-0.3951,-0.3951,-0.3951,-0.3951,-0.3951,-0.3951,-0.3951,-0.3951,-0.3951,-0.3951,-0.3951,-0.3951,-0.3951,-0.3951,-0.3951,-0.3951,-0.3895,-0.3834,-0.3774,-0.3711,-0.3651,-0.359,-0.3587,-0.3587,-0.3587,-0.3587,-0.3587,-0.3587,-0.3587,-0.3587,-0.3587,-0.3587,-0.3574,0.0,0.0,0.0,0.0,0.0,0.0,0.0,0.0,0.0,0.0,0.0,0.0,-0.276,-0.2379,-0.2121,-0.2708,-0.2895,-0.3057,-0.3376,-0.3655,-0.3933,-0.3933,-0.3933,-0.3913,-0.3857,-0.3852,-0.3709,-0.3418,-0.3646,-0.3643,-0.3407,-0.3643,-0.3759,-0.3753,-0.3758,-0.3758,-0.3752,-0.3752,-0.3752,-0.3752,-0.3696,-0.367,-0.3672,-0.3728,-0.3752,-0.3752,-0.3752,-0.3752,-0.3752,-0.3752,-0.3752,-0.3752,-0.3752,-0.3756,-0.376,-0.376,-0.3764,-0.377,-0.377,-0.377,-0.3768,-0.3763,-0.376,-0.377,-0.382,-0.3839,-0.3856,-0.391,-0.3933,-0.3943,-0.3943,-0.3947,-0.3951,-0.3951,-0.3951,-0.3951,-0.3951,-0.3951,-0.3951,-0.3951,-0.3951,-0.3951,-0.3951,-0.3951,-0.3951,-0.3951,-0.3951,-0.3951,-0.3951,-0.3951,-0.3951,-0.3951,-0.3951,-0.3951,-0.3951,-0.389,-0.3828,-0.3773,-0.3707,-0.3646,-0.359,-0.3587,-0.3587,-0.3587,-0.3587,-0.3587,-0.3587,-0.3587,-0.3585,-0.3579,-0.3579,-0.3546,0.0,0.0,0.0,0.0,0.0,0.0,0.0,0.0,0.0,0.0,0.0,-0.2005,-0.2486,-0.2126,-0.2004,-0.2356,-0.2606,-0.297,-0.3316,-0.3561,-0.3808,-0.3808,-0.3808,-0.3804,-0.379,-0.3789,-0.3783,-0.3652,-0.3725,-0.3698,-0.3582,-0.3698,-0.3676,-0.3628,-0.3673,-0.3674,-0.3627,-0.3627,-0.3627,-0.3627,-0.3613,-0.3606,-0.3608,-0.362,-0.3627,-0.3627,-0.3627,-0.3627,-0.3627,-0.3627,-0.3627,-0.3627,-0.3627,-0.3655,-0.3698,-0.3698,-0.3728,-0.377,-0.377,-0.377,-0.3762,-0.3713,-0.3698,-0.3692,-0.3657,-0.368,-0.3721,-0.3733,-0.3805,-0.388,-0.388,-0.3916,-0.3951,-0.3951,-0.3951,-0.3951,-0.3951,-0.3951,-0.3951,-0.3951,-0.3951,-0.3951,-0.3951,-0.3951,-0.3951,-0.3951,-0.3951,-0.3951,-0.3951,-0.3951,-0.3951,-0.3951,-0.3951,-0.3951,-0.3951,-0.385,-0.3783,-0.377,-0.3668,-0.3601,-0.3589,-0.3587,-0.3587,-0.3587,-0.3587,-0.3587,-0.3587,-0.3587,-0.3563,-0.3516,-0.3516,-0.3485,0.0,0.0,0.0,0.0,0.0,0.0,0.0,0.0,0.0,0.0,0.0,-0.2004,-0.2122,-0.2004,-0.1999,-0.245,-0.2695,-0.2934,-0.338,-0.3634,-0.377,-0.377,-0.377,-0.3758,-0.3729,-0.3726,-0.3598,-0.334,-0.3514,-0.3479,-0.3144,-0.3456,-0.3537,-0.3504,-0.3534,-0.3536,-0.3504,-0.3503,-0.3503,-0.3503,-0.3503,-0.3503,-0.3506,-0.3561,-0.3587,-0.3587,-0.3587,-0.3587,-0.3587,-0.3587,-0.3587,-0.3587,-0.3587,-0.3606,-0.3635,-0.3635,-0.3655,-0.3683,-0.3683,-0.3683,-0.3677,-0.3646,-0.3635,-0.3634,-0.3631,-0.3653,-0.3684,-0.3713,-0.3768,-0.3816,-0.3816,-0.3861,-0.3907,-0.3907,-0.3929,-0.3951,-0.3951,-0.3951,-0.3951,-0.3951,-0.3951,-0.3951,-0.3951,-0.3951,-0.3951,-0.3951,-0.3951,-0.3951,-0.3951,-0.3951,-0.3951,-0.3951,-0.3951,-0.3951,-0.3951,-0.3865,-0.3812,-0.3812,-0.3726,-0.3661,-0.3632,-0.3631,-0.3617,-0.3589,-0.3587,-0.3587,-0.3587,-0.3587,-0.3556,-0.3496,-0.3496,-0.3451,0.0,0.0,0.0,0.0,0.0,0.0,0.0,0.0,0.0,0.0,-0.1789,-0.1862,-0.1862,-0.1866,-0.2095,-0.2526,-0.2664,-0.3022,-0.3555,-0.3706,-0.3734,-0.3724,-0.3722,-0.3699,-0.3639,-0.3632,-0.3386,-0.2896,-0.3182,-0.3265,-0.2723,-0.3117,-0.3413,-0.3413,-0.3413,-0.3413,-0.3413,-0.3413,-0.3413,-0.3413,-0.3413,-0.3413,-0.3416,-0.3514,-0.3557,-0.3557,-0.3557,-0.3557,-0.3557,-0.3568,-0.3572,-0.3572,-0.3583,-0.3587,-0.3587,-0.3587,-0.3587,-0.3587,-0.3587,-0.3587,-0.3587,-0.3587,-0.3587,-0.3597,-0.3647,-0.3662,-0.3673,-0.3724,-0.3745,-0.3753,-0.3753,-0.3807,-0.386,-0.386,-0.3907,-0.3951,-0.3951,-0.3951,-0.3951,-0.3951,-0.3951,-0.3951,-0.3951,-0.3951,-0.3951,-0.3951,-0.3951,-0.3951,-0.3951,-0.3942,-0.3935,-0.3935,-0.3935,-0.3931,-0.392,-0.3873,-0.3845,-0.3845,-0.3788,-0.373,-0.368,-0.3679,-0.365,-0.3589,-0.3587,-0.3587,-0.3587,-0.3587,-0.3556,-0.3496,-0.3486,-0.3424,0.0,0.0,0.0,0.0,0.0,0.0,0.0,0.0,0.0,0.0,-0.1738,-0.1767,-0.1767,-0.1789,-0.1918,-0.2253,-0.2481,-0.282,-0.315,-0.3493,-0.3593,-0.354,-0.3533,-0.3511,-0.3454,-0.3448,-0.3444,-0.333,-0.3321,-0.3424,-0.3317,-0.331,-0.3413,-0.3413,-0.3413,-0.3413,-0.3413,-0.3413,-0.3413,-0.3413,-0.3413,-0.3413,-0.3413,-0.3428,-0.3436,-0.3436,-0.3436,-0.3436,-0.344,-0.3489,-0.3508,-0.3514,-0.3567,-0.3587,-0.3587,-0.3587,-0.3587,-0.3587,-0.3587,-0.3587,-0.3587,-0.3587,-0.3587,-0.3589,-0.3597,-0.36,-0.3601,-0.3609,-0.365,-0.3691,-0.3691,-0.3775,-0.386,-0.386,-0.3907,-0.3951,-0.3951,-0.3951,-0.3951,-0.3951,-0.3951,-0.3951,-0.3951,-0.3951,-0.3951,-0.3951,-0.3951,-0.3951,-0.3951,-0.3905,-0.3872,-0.3872,-0.3872,-0.3852,-0.3798,-0.3786,-0.3781,-0.3781,-0.3725,-0.3687,-0.3679,-0.3679,-0.365,-0.3589,-0.3587,-0.3587,-0.3587,-0.3587,-0.3556,-0.3495,-0.3446,-0.3387,0.0,0.0,0.0,0.0,0.0,0.0,0.0,0.0,0.0,-0.1655,-0.168,-0.1705,-0.1721,-0.1735,-0.1853,-0.218,-0.229,-0.2617,-0.2942,-0.3161,-0.3261,-0.3452,-0.345,-0.344,-0.3414,-0.3413,-0.3305,-0.3199,-0.3275,-0.3256,-0.315,-0.3225,-0.3311,-0.3311,-0.3311,-0.3311,-0.3311,-0.3311,-0.3311,-0.3311,-0.3311,-0.3311,-0.3311,-0.3311,-0.3347,-0.3413,-0.3413,-0.3413,-0.3414,-0.3439,-0.345,-0.3455,-0.3514,-0.3537,-0.3541,-0.3575,-0.3587,-0.3587,-0.3587,-0.3587,-0.3587,-0.3587,-0.3587,-0.3587,-0.3587,-0.3587,-0.3587,-0.3587,-0.3606,-0.3627,-0.3627,-0.3718,-0.3809,-0.3809,-0.3882,-0.3951,-0.3951,-0.3951,-0.3951,-0.3951,-0.3951,-0.3951,-0.3951,-0.3951,-0.3951,-0.3951,-0.3951,-0.3951,-0.3951,-0.3928,-0.3898,-0.3864,-0.386,-0.3835,-0.3774,-0.377,-0.377,-0.377,-0.3744,-0.3714,-0.368,-0.3679,-0.365,-0.3589,-0.3587,-0.3587,-0.3587,-0.3587,-0.3556,-0.3496,-0.3471,-0.341,0.0,0.0,0.0,0.0,0.0,0.0,0.0,0.0,0.0,0.0,-0.1635,-0.1657,-0.1678,-0.1694,-0.1811,-0.2024,-0.2131,-0.2344,-0.277,-0.2878,-0.3086,-0.3285,-0.3284,-0.3383,-0.3368,-0.3367,-0.326,-0.305,-0.3221,-0.3196,-0.2988,-0.3153,-0.323,-0.323,-0.323,-0.323,-0.323,-0.323,-0.323,-0.323,-0.323,-0.323,-0.323,-0.323,-0.3281,-0.3367,-0.3367,-0.3367,-0.3368,-0.3383,-0.339,-0.3397,-0.3469,-0.3496,-0.3504,-0.3565,-0.3587,-0.3587,-0.3587,-0.3587,-0.3587,-0.3587,-0.3587,-0.3587,-0.3587,-0.3587,-0.3587,-0.3587,-0.3587,-0.3587,-0.3587,-0.3677,-0.377,-0.377,-0.3862,-0.3951,-0.3951,-0.3951,-0.3951,-0.3951,-0.3951,-0.3951,-0.3951,-0.3951,-0.3951,-0.3951,-0.3951,-0.3951,-0.3951,-0.3937,-0.391,-0.3865,-0.386,-0.383,-0.3752,-0.376,-0.3763,-0.3747,-0.3747,-0.3733,-0.3703,-0.3687,-0.3657,-0.361,-0.3595,-0.3587,-0.3587,-0.3587,-0.3564,-0.3519,-0.3503,-0.345,0.0,0.0,0.0,0.0,0.0,0.0,0.0,0.0,0.0,-0.1611,-0.1618,-0.162,-0.1621,-0.1667,-0.1704,-0.1704,-0.2024,-0.2237,-0.2237,-0.2664,-0.2965,-0.2915,-0.3118,-0.3304,-0.3245,-0.324,-0.324,-0.324,-0.3237,-0.3236,-0.3236,-0.3232,-0.323,-0.323,-0.323,-0.323,-0.323,-0.323,-0.323,-0.323,-0.323,-0.323,-0.323,-0.323,-0.3234,-0.324,-0.324,-0.324,-0.3244,-0.3303,-0.3326,-0.3338,-0.3451,-0.3496,-0.3504,-0.3565,-0.3587,-0.3587,-0.3587,-0.3587,-0.3587,-0.3587,-0.3587,-0.3587,-0.3587,-0.3587,-0.3587,-0.3587,-0.3587,-0.3587,-0.3587,-0.3677,-0.377,-0.377,-0.3862,-0.3951,-0.3951,-0.3951,-0.3951,-0.3951,-0.3951,-0.3951,-0.3951,-0.3951,-0.3951,-0.3951,-0.3951,-0.3951,-0.3951,-0.3901,-0.3864,-0.386,-0.386,-0.3812,-0.3694,-0.3736,-0.3745,-0.3687,-0.3683,-0.3707,-0.3762,-0.3709,-0.3677,-0.3673,-0.3617,-0.3587,-0.3587,-0.3587,-0.3586,-0.358,-0.3523,-0.3493,0.0,0.0,0.0,0.0,0.0,0.0,0.0,0.0,-0.1575,-0.1585,-0.1603,-0.1617,-0.1617,-0.1634,-0.1648,-0.1648,-0.1751,-0.1855,-0.2061,-0.2267,-0.2467,-0.2755,-0.2956,-0.305,-0.3233,-0.323,-0.323,-0.323,-0.323,-0.323,-0.323,-0.323,-0.323,-0.323,-0.323,-0.323,-0.323,-0.323,-0.323,-0.323,-0.323,-0.323,-0.323,-0.323,-0.323,-0.323,-0.323,-0.323,-0.3232,-0.3255,-0.3263,-0.3271,-0.3352,-0.3409,-0.345,-0.3507,-0.3553,-0.3587,-0.3587,-0.3587,-0.3587,-0.3587,-0.3587,-0.3587,-0.3587,-0.3587,-0.3587,-0.3587,-0.3587,-0.3587,-0.3587,-0.3649,-0.3721,-0.376,-0.3833,-0.3882,-0.3842,-0.3895,-0.3951,-0.3951,-0.3951,-0.3951,-0.3951,-0.3951,-0.3951,-0.3951,-0.3951,-0.3951,-0.3951,-0.3932,-0.3903,-0.3864,-0.3826,-0.3768,-0.3685,-0.3662,-0.3659,-0.3677,-0.3679,-0.3706,-0.3766,-0.3748,-0.3736,-0.3736,-0.3677,-0.3627,-0.3587,-0.3587,-0.3587,-0.3587,-0.3565,-0.3533,0.0,0.0,0.0,0.0,0.0,0.0,0.0,0.0,-0.1559,-0.1569,-0.1596,-0.1617,-0.1617,-0.1617,-0.1617,-0.1617,-0.1617,-0.1617,-0.1819,-0.2021,-0.2222,-0.2624,-0.2826,-0.3027,-0.323,-0.323,-0.323,-0.323,-0.323,-0.323,-0.323,-0.323,-0.323,-0.323,-0.323,-0.323,-0.323,-0.323,-0.323,-0.323,-0.323,-0.323,-0.323,-0.323,-0.323,-0.323,-0.323,-0.323,-0.323,-0.323,-0.323,-0.3237,-0.3297,-0.3346,-0.3388,-0.3447,-0.3493,-0.3529,-0.3529,-0.3529,-0.3531,-0.355,-0.3556,-0.3561,-0.358,-0.3587,-0.3587,-0.3587,-0.3587,-0.3587,-0.3587,-0.3632,-0.3694,-0.3755,-0.38,-0.3819,-0.3778,-0.3865,-0.3944,-0.3924,-0.3936,-0.3951,-0.3951,-0.3951,-0.3951,-0.3951,-0.3933,-0.392,-0.392,-0.3902,-0.3883,-0.3862,-0.3805,-0.3753,-0.3713,-0.3653,-0.3635,-0.3676,-0.3679,-0.3706,-0.3766,-0.3749,-0.3748,-0.3768,-0.3689,-0.3638,-0.3619,-0.3597,-0.3587,-0.3587,-0.3587,-0.3565,0.0,0.0,0.0,0.0,0.0,0.0,0.0,0.0,-0.1533,-0.1563,-0.1594,-0.1615,-0.1615,-0.1616,-0.1617,-0.1617,-0.1617,-0.1617,-0.1617,-0.2019,-0.2422,-0.2422,-0.2826,-0.323,-0.323,-0.323,-0.323,-0.323,-0.323,-0.323,-0.323,-0.323,-0.323,-0.323,-0.323,-0.323,-0.323,-0.323,-0.323,-0.323,-0.323,-0.323,-0.323,-0.323,-0.323,-0.323,-0.323,-0.323,-0.323,-0.323,-0.323,-0.3236,-0.3296,-0.332,-0.3328,-0.3388,-0.3412,-0.3413,-0.3413,-0.3414,-0.3424,-0.3477,-0.3496,-0.351,-0.3567,-0.3586,-0.3587,-0.3587,-0.3587,-0.3587,-0.3587,-0.3631,-0.3691,-0.3749,-0.3764,-0.3766,-0.3764,-0.386,-0.3928,-0.3869,-0.3905,-0.3946,-0.3946,-0.3946,-0.3946,-0.3946,-0.3895,-0.3858,-0.386,-0.3808,-0.3796,-0.3857,-0.3808,-0.3773,-0.3773,-0.3714,-0.368,-0.3683,-0.368,-0.3706,-0.377,-0.3715,-0.371,-0.3768,-0.3653,-0.3621,-0.3679,-0.3617,-0.3587,-0.3587,-0.3587,-0.3587,-0.1436,0.0,0.0,0.0,0.0,0.0,0.0,0.0,-0.1495,-0.1504,-0.1547,-0.1584,-0.1584,-0.1602,-0.1617,-0.1617,-0.1617,-0.1718,-0.1819,-0.2021,-0.2222,-0.2624,-0.2826,-0.3027,-0.323,-0.323,-0.323,-0.323,-0.323,-0.323,-0.323,-0.323,-0.323,-0.323,-0.323,-0.323,-0.323,-0.323,-0.323,-0.323,-0.323,-0.323,-0.323,-0.323,-0.323,-0.323,-0.323,-0.323,-0.323,-0.323,-0.323,-0.3232,-0.3249,-0.3282,-0.3323,-0.3341,-0.3375,-0.3413,-0.3413,-0.3439,-0.3469,-0.3444,-0.3493,-0.3557,-0.353,-0.3552,-0.3587,-0.3587,-0.3587,-0.3587,-0.3587,-0.36,-0.3617,-0.3634,-0.3672,-0.3692,-0.3647,-0.3733,-0.3815,-0.3798,-0.3808,-0.3819,-0.3819,-0.3819,-0.3819,-0.3819,-0.3805,-0.3811,-0.3854,-0.3846,-0.3858,-0.392,-0.3871,-0.3835,-0.3835,-0.3739,-0.3717,-0.3804,-0.3728,-0.3725,-0.3831,-0.3819,-0.3797,-0.377,-0.3736,-0.3706,-0.3679,-0.3617,-0.3587,-0.3587,-0.3587,-0.3587,0.0,0.0,0.0,0.0,0.0,0.0,-0.1436,-0.1459,-0.148,-0.148,-0.1519,-0.1553,-0.1553,-0.1567,-0.1583,-0.1696,-0.1798,-0.1803,-0.2019,-0.2223,-0.2424,-0.2725,-0.2927,-0.3029,-0.323,-0.323,-0.323,-0.323,-0.323,-0.323,-0.323,-0.323,-0.323,-0.323,-0.323,-0.323,-0.323,-0.323,-0.323,-0.323,-0.323,-0.323,-0.323,-0.323,-0.323,-0.323,-0.323,-0.323,-0.323,-0.323,-0.323,-0.323,-0.323,-0.3252,-0.3283,-0.3283,-0.3307,-0.3337,-0.3337,-0.3358,-0.3384,-0.3376,-0.3421,-0.3478,-0.3492,-0.3521,-0.3555,-0.358,-0.3587,-0.3587,-0.3587,-0.3587,-0.3587,-0.3587,-0.3615,-0.3631,-0.3595,-0.3643,-0.37,-0.3726,-0.3752,-0.377,-0.377,-0.377,-0.3778,-0.3804,-0.3763,-0.3753,-0.3815,-0.3778,-0.377,-0.3831,-0.3782,-0.3767,-0.3818,-0.371,-0.3692,-0.3815,-0.3732,-0.371,-0.3781,-0.3785,-0.3768,-0.3732,-0.3706,-0.3676,-0.364,-0.3605,-0.3587,-0.3587,-0.3587,-0.3587,0.0,0.0,0.0,0.0,-0.1436,0.0,-0.1436,-0.1456,-0.1476,-0.1476,-0.15,-0.1521,-0.1521,-0.1523,-0.1631,-0.1953,-0.206,-0.2076,-0.2116,-0.2524,-0.2826,-0.2826,-0.3029,-0.323,-0.323,-0.323,-0.323,-0.323,-0.323,-0.323,-0.323,-0.323,-0.323,-0.323,-0.323,-0.323,-0.323,-0.323,-0.323,-0.323,-0.323,-0.323,-0.323,-0.323,-0.323,-0.323,-0.323,-0.323,-0.323,-0.323,-0.323,-0.323,-0.323,-0.323,-0.323,-0.323,-0.323,-0.323,-0.323,-0.3234,-0.3248,-0.3296,-0.332,-0.335,-0.3455,-0.3492,-0.351,-0.357,-0.3587,-0.3587,-0.3587,-0.3587,-0.3587,-0.3587,-0.3587,-0.3587,-0.3587,-0.3587,-0.3604,-0.3658,-0.3711,-0.3749,-0.3749,-0.3749,-0.3767,-0.3822,-0.3737,-0.3691,-0.3751,-0.3665,-0.3621,-0.3681,-0.364,-0.3651,-0.376,-0.3664,-0.3647,-0.3762,-0.3706,-0.3672,-0.3679,-0.3679,-0.3674,-0.3669,-0.3615,-0.3587,-0.3587,-0.3587,-0.3587,-0.3587,-0.3587,-0.3583,0.0,0.0,0.0,0.0,-0.1436,0.0,-0.1436,-0.144,-0.1444,-0.1444,-0.1468,-0.1489,-0.1489,-0.151,-0.1624,-0.1918,-0.2137,-0.237,-0.2618,-0.2725,-0.2927,-0.313,-0.313,-0.323,-0.323,-0.323,-0.323,-0.323,-0.323,-0.323,-0.323,-0.323,-0.323,-0.323,-0.323,-0.323,-0.323,-0.323,-0.323,-0.323,-0.323,-0.323,-0.323,-0.323,-0.323,-0.323,-0.323,-0.323,-0.323,-0.323,-0.323,-0.323,-0.323,-0.323,-0.323,-0.323,-0.323,-0.323,-0.323,-0.3263,-0.3297,-0.326,-0.3315,-0.3399,-0.3421,-0.3461,-0.351,-0.357,-0.3587,-0.3587,-0.3587,-0.3587,-0.3587,-0.3587,-0.3587,-0.3587,-0.3587,-0.3587,-0.3591,-0.3602,-0.3615,-0.3623,-0.3623,-0.3623,-0.3627,-0.3639,-0.362,-0.3627,-0.3688,-0.3676,-0.3684,-0.3745,-0.374,-0.3744,-0.3767,-0.3703,-0.3692,-0.3764,-0.3666,-0.3627,-0.3676,-0.3679,-0.3655,-0.3606,-0.3594,-0.3587,-0.3587,-0.3587,-0.3587,-0.3587,-0.3587,-0.3561,0.0,0.0,0.0,-0.1436,-0.1436,0.0,0.0,-0.1436,-0.1436,-0.1436,-0.1447,-0.1458,-0.1458,-0.1563,-0.1672,-0.1877,-0.2274,-0.2592,-0.2739,-0.2869,-0.2985,-0.3086,-0.3158,-0.3151,-0.3183,-0.3185,-0.3198,-0.3229,-0.323,-0.323,-0.323,-0.323,-0.323,-0.323,-0.323,-0.323,-0.323,-0.323,-0.323,-0.323,-0.323,-0.323,-0.323,-0.323,-0.323,-0.323,-0.323,-0.323,-0.323,-0.323,-0.323,-0.323,-0.323,-0.323,-0.323,-0.323,-0.323,-0.323,-0.323,-0.3251,-0.3271,-0.324,-0.3271,-0.3334,-0.3394,-0.3473,-0.3548,-0.3579,-0.3587,-0.3587,-0.3587,-0.3587,-0.3587,-0.3587,-0.3587,-0.3587,-0.3587,-0.3587,-0.3587,-0.3587,-0.3587,-0.3587,-0.3587,-0.3587,-0.3598,-0.3628,-0.3606,-0.3609,-0.367,-0.3651,-0.3644,-0.3676,-0.3679,-0.3691,-0.3721,-0.3668,-0.3658,-0.3721,-0.3638,-0.3601,-0.3631,-0.3632,-0.3619,-0.3589,-0.3587,-0.3587,-0.3587,-0.3587,-0.3587,-0.3587,-0.3587,-0.3571,0.0,0.0,0.0,0.0,-0.1436,-0.1436,0.0,0.0,0.0,-0.1436,-0.1436,-0.1436,0.0,0.0,-0.1803,-0.1917,-0.2303,-0.2604,-0.2728,-0.2971,-0.3109,-0.3121,-0.3079,-0.3068,-0.3117,-0.3123,-0.3147,-0.3209,-0.3213,-0.3218,-0.323,-0.323,-0.323,-0.323,-0.323,-0.323,-0.323,-0.323,-0.323,-0.323,-0.323,-0.323,-0.323,-0.323,-0.323,-0.323,-0.323,-0.323,-0.323,-0.323,-0.323,-0.323,-0.323,-0.323,-0.323,-0.323,-0.323,-0.323,-0.323,-0.323,-0.323,-0.323,-0.3238,-0.3266,-0.3365,-0.3477,-0.3568,-0.3556,-0.357,-0.3585,-0.3572,-0.3578,-0.3587,-0.3587,-0.3587,-0.3587,-0.3587,-0.3587,-0.3587,-0.3587,-0.3587,-0.3587,-0.3587,-0.3587,-0.3604,-0.3653,-0.3619,-0.3605,-0.3654,-0.3619,-0.3587,-0.3587,-0.3587,-0.3606,-0.3657,-0.3616,-0.3608,-0.3658,-0.3615,-0.3587,-0.3587,-0.3587,-0.3587,-0.3587,-0.3587,-0.3587,-0.3587,-0.3587,-0.358,-0.357,-0.3582,-0.3575,0.0,0.0,0.0,-0.1436,-0.1436,-0.1436,-0.1436,0.0,-0.1436,-0.1436,0.0,-0.1436,-0.1436,0.0,0.0,-0.2019,-0.2351,-0.2671,-0.281,-0.2943,-0.2999,-0.3053,-0.3053,-0.3147,-0.3059,-0.306,-0.3085,-0.3144,-0.315,-0.3173,-0.3228,-0.323,-0.323,-0.323,-0.323,-0.323,-0.323,-0.323,-0.323,-0.323,-0.323,-0.323,-0.323,-0.323,-0.323,-0.323,-0.323,-0.323,-0.323,-0.323,-0.323,-0.323,-0.323,-0.323,-0.323,-0.323,-0.323,-0.323,-0.323,-0.323,-0.323,-0.323,-0.3267,-0.3313,-0.3327,-0.3414,-0.3496,-0.3446,-0.3507,-0.3575,-0.3521,-0.3546,-0.3587,-0.3587,-0.3587,-0.3587,-0.3587,-0.3587,-0.3587,-0.3587,-0.3587,-0.3587,-0.3587,-0.3587,-0.359,-0.3597,-0.3591,-0.359,-0.3597,-0.3591,-0.3587,-0.3587,-0.3587,-0.359,-0.3597,-0.3591,-0.359,-0.3597,-0.3591,-0.3587,-0.3587,-0.3587,-0.3587,-0.3587,-0.3587,-0.3587,-0.3587,-0.3587,-0.3559,-0.3508,-0.3563,-0.3531,0.0,0.0,-0.1436,-0.1436,-0.1436,-0.1436,-0.1436,-0.1436,-0.1436,-0.1615,0.0,0.0,0.0,0.0,0.0,0.0,-0.2518,-0.2721,-0.2697,-0.2804,-0.2931,-0.2989,-0.2967,-0.2961,-0.2993,-0.3123,-0.306,-0.3086,-0.3087,-0.3113,-0.3174,-0.3179,-0.3194,-0.3229,-0.323,-0.323,-0.323,-0.323,-0.323,-0.323,-0.323,-0.323,-0.323,-0.323,-0.323,-0.323,-0.323,-0.323,-0.323,-0.323,-0.323,-0.323,-0.323,-0.323,-0.323,-0.323,-0.323,-0.323,-0.323,-0.323,-0.323,-0.323,-0.3271,-0.3322,-0.3322,-0.3403,-0.3492,-0.3467,-0.3522,-0.3582,-0.3556,-0.3568,-0.3587,-0.3587,-0.3587,-0.3587,-0.3587,-0.3587,-0.3587,-0.3587,-0.3587,-0.3587,-0.3587,-0.3587,-0.3587,-0.3587,-0.3587,-0.3587,-0.3587,-0.3587,-0.3587,-0.3587,-0.3587,-0.3587,-0.3587,-0.3587,-0.3587,-0.3587,-0.3587,-0.3587,-0.3587,-0.3587,-0.3587,-0.3587,-0.3587,-0.3587,-0.3587,-0.3587,-0.3556,-0.3497,-0.3559,-0.3561,-0.1436,-0.1436,-0.1436,-0.1436,-0.1436,-0.1436,-0.1436,-0.1436,-0.1436,-0.1615,-0.1705,0.0,0.0,0.0,-0.2419,-0.2315,0.0,-0.2868,-0.2583,-0.2773,-0.289,-0.2931,-0.2899,-0.289,-0.2931,-0.2976,-0.3008,-0.3118,-0.3118,-0.3059,-0.3135,-0.3139,-0.3168,-0.3229,-0.323,-0.323,-0.323,-0.323,-0.323,-0.323,-0.323,-0.323,-0.323,-0.323,-0.323,-0.323,-0.323,-0.323,-0.323,-0.323,-0.323,-0.323,-0.323,-0.323,-0.323,-0.323,-0.323,-0.323,-0.323,-0.323,-0.323,-0.323,-0.326,-0.3296,-0.3296,-0.3368,-0.3444,-0.3428,-0.3491,-0.3559,-0.3544,-0.3564,-0.3587,-0.3587,-0.3587,-0.3587,-0.3587,-0.3587,-0.3587,-0.3587,-0.3587,-0.3587,-0.3587,-0.3587,-0.3587,-0.3587,-0.3587,-0.3587,-0.3587,-0.3587,-0.3587,-0.3587,-0.3587,-0.3587,-0.3587,-0.3587,-0.3587,-0.3587,-0.3587,-0.3587,-0.3587,-0.3587,-0.3587,-0.3587,-0.3587,-0.3587,-0.3587,-0.3587,-0.3564,-0.3522,-0.3567,-0.3578,-0.1436,-0.1436,-0.1436,-0.1436,-0.1436,-0.1436,-0.1436,-0.1436,-0.1436,-0.1436,-0.1615,-0.1794,-0.1794,-0.2154,-0.2497,0.0,-0.2658,0.0,0.0,-0.2837,-0.2875,-0.2877,-0.2876,-0.2875,-0.2877,-0.2879,-0.2902,-0.2956,-0.2961,-0.3014,-0.3134,-0.3139,-0.3168,-0.3229,-0.323,-0.323,-0.323,-0.323,-0.323,-0.323,-0.323,-0.323,-0.323,-0.323,-0.323,-0.323,-0.323,-0.323,-0.323,-0.323,-0.323,-0.323,-0.323,-0.323,-0.323,-0.323,-0.323,-0.323,-0.323,-0.323,-0.323,-0.323,-0.3232,-0.3233,-0.3233,-0.3278,-0.3315,-0.3256,-0.3365,-0.3486,-0.3432,-0.3501,-0.3587,-0.3587,-0.3587,-0.3587,-0.3587,-0.3587,-0.3587,-0.3587,-0.3587,-0.3587,-0.3587,-0.3587,-0.3587,-0.3587,-0.3587,-0.3587,-0.3587,-0.3587,-0.3587,-0.3587,-0.3587,-0.3587,-0.3587,-0.3587,-0.3587,-0.3587,-0.3587,-0.3587,-0.3587,-0.3587,-0.3587,-0.3587,-0.3587,-0.3587,-0.3587,-0.3587,-0.3587,-0.3585,-0.3587,-0.3556,-0.1459,-0.1466,-0.1466,-0.1466,-0.1466,-0.146,-0.144,-0.1525,-0.1705,-0.1885,-0.2064,-0.2334,-0.2513,-0.2694,0.0,0.0,0.0,-0.2867,0.0,-0.2861,-0.2875,-0.2875,-0.2875,-0.2875,-0.2875,-0.2875,-0.2882,-0.2902,-0.2903,-0.2937,-0.3015,-0.3059,-0.3108,-0.3168,-0.321,-0.323,-0.323,-0.323,-0.323,-0.323,-0.323,-0.323,-0.323,-0.323,-0.323,-0.323,-0.323,-0.323,-0.323,-0.323,-0.323,-0.323,-0.323,-0.323,-0.323,-0.323,-0.323,-0.323,-0.323,-0.323,-0.323,-0.323,-0.323,-0.323,-0.323,-0.3273,-0.3318,-0.3296,-0.3364,-0.3446,-0.3463,-0.3497,-0.3538,-0.3578,-0.3587,-0.3587,-0.3587,-0.3587,-0.3587,-0.3587,-0.3587,-0.3587,-0.3587,-0.3587,-0.3587,-0.3587,-0.3587,-0.3587,-0.3587,-0.3587,-0.3587,-0.3587,-0.3587,-0.3587,-0.3587,-0.3587,-0.3587,-0.3587,-0.3587,-0.3587,-0.3587,-0.3587,-0.3587,-0.3587,-0.3587,-0.3587,-0.3587,-0.3587,-0.3587,-0.3587,-0.3587,-0.3576,-0.1551,-0.1656,-0.1663,-0.1743,-0.1749,-0.1749,-0.1532,-0.1794,-0.1974,-0.2064,-0.2334,-0.2693,-0.3139,-0.3053,-0.3053,0.0,0.0,0.0,0.0,-0.2875,-0.2875,-0.2875,-0.2875,-0.2875,-0.2875,-0.2875,-0.2875,-0.2875,-0.2875,-0.2899,-0.2955,-0.3111,-0.3076,-0.3138,-0.3199,-0.323,-0.323,-0.323,-0.323,-0.323,-0.323,-0.323,-0.323,-0.323,-0.323,-0.323,-0.323,-0.323,-0.323,-0.323,-0.323,-0.323,-0.323,-0.323,-0.323,-0.323,-0.323,-0.323,-0.323,-0.323,-0.323,-0.323,-0.323,-0.323,-0.323,-0.3258,-0.3298,-0.3342,-0.3367,-0.3403,-0.3503,-0.3512,-0.3512,-0.3572,-0.3587,-0.3587,-0.3587,-0.3587,-0.3587,-0.3587,-0.3587,-0.3587,-0.3587,-0.3587,-0.3587,-0.3587,-0.3587,-0.3587,-0.3587,-0.3587,-0.3587,-0.3587,-0.3587,-0.3587,-0.3587,-0.3587,-0.3587,-0.3587,-0.3587,-0.3587,-0.3587,-0.3587,-0.3598,-0.362,-0.3598,-0.3598,-0.362,-0.3598,-0.3587,-0.3587,-0.3587,-0.3587]},{"header":{"parameterUnit":"m.s-1","parameterCategory":1,"la1":30.6,"la2":29.2853,"lo1":-89.7004,"lo2":-87.6739,"dy":0.0162,"dx":0.0183,"nx":112,"ny":82,"refTime":"2023-07-28T06:00:00:Z","depth":0,"parameterNumber":3,"parameterNumberName":"V-component_of_WINDS"},"data":[0.0,0.0,0.0,0.0,0.0,0.0,0.0,0.0,0.0,0.0,0.0,0.0,0.0,0.0,0.0,0.0,0.0,0.0,0.0,0.0,0.0,0.0,0.0,0.0,0.0,0.0,0.0,0.0,0.0,0.0,0.0,0.0,0.0,0.0,0.0,0.0,0.0,0.0,0.0,0.0,0.0,0.0,0.0,0.0,0.0,0.0,0.0,0.0,0.0,0.0,0.0,0.0,0.0,0.0,0.0,0.0,0.0,0.0,0.0,0.0,0.0,0.0,0.0,0.0,0.0,0.0,0.0,0.0,0.0,0.0,0.0,0.0,0.0,0.0,0.0,0.0,0.0,0.0,0.0,0.0,0.0,0.0,0.0,0.0,0.0,0.0,0.0,0.0,0.0,0.0,-2.7369,-2.8566,-3.1467,-3.3293,-3.3293,-3.3915,-3.3604,-3.1914,0.0,0.0,0.0,0.0,0.0,0.0,0.0,0.0,0.0,0.0,0.0,0.0,0.0,0.0,0.0,0.0,0.0,0.0,0.0,0.0,0.0,0.0,0.0,0.0,0.0,0.0,0.0,0.0,0.0,0.0,0.0,0.0,0.0,0.0,0.0,0.0,0.0,0.0,0.0,0.0,0.0,0.0,0.0,0.0,0.0,0.0,0.0,0.0,0.0,0.0,0.0,0.0,0.0,0.0,0.0,0.0,0.0,0.0,0.0,0.0,0.0,0.0,0.0,0.0,0.0,0.0,0.0,0.0,0.0,0.0,0.0,0.0,0.0,0.0,0.0,0.0,0.0,0.0,0.0,0.0,0.0,0.0,0.0,0.0,0.0,0.0,0.0,0.0,0.0,0.0,0.0,0.0,0.0,0.0,0.0,0.0,0.0,0.0,0.0,0.0,0.0,0.0,0.0,0.0,-2.8068,-3.1098,-3.2536,-3.3293,-3.3293,-3.341,-3.273,-3.1001,0.0,0.0,0.0,0.0,0.0,0.0,0.0,0.0,0.0,0.0,0.0,0.0,0.0,0.0,0.0,0.0,0.0,0.0,0.0,0.0,0.0,0.0,0.0,0.0,0.0,0.0,0.0,0.0,0.0,0.0,0.0,0.0,0.0,0.0,0.0,0.0,0.0,0.0,0.0,0.0,0.0,0.0,0.0,0.0,0.0,0.0,0.0,0.0,0.0,0.0,0.0,0.0,0.0,0.0,0.0,0.0,0.0,0.0,0.0,0.0,0.0,0.0,0.0,0.0,0.0,0.0,0.0,0.0,0.0,0.0,0.0,0.0,0.0,0.0,0.0,0.0,0.0,0.0,0.0,0.0,0.0,0.0,0.0,0.0,0.0,0.0,0.0,0.0,0.0,0.0,0.0,0.0,0.0,0.0,0.0,0.0,0.0,0.0,0.0,0.0,0.0,0.0,0.0,-2.7951,-2.9214,-3.1739,-3.2361,-3.2788,-3.3254,-3.2866,-3.2244,-3.1467,-3.1331,0.0,0.0,0.0,0.0,0.0,0.0,0.0,0.0,0.0,0.0,0.0,0.0,0.0,0.0,0.0,0.0,0.0,0.0,0.0,0.0,0.0,0.0,0.0,0.0,0.0,0.0,0.0,0.0,0.0,0.0,0.0,0.0,0.0,0.0,0.0,0.0,0.0,0.0,0.0,0.0,0.0,0.0,0.0,0.0,0.0,0.0,0.0,0.0,0.0,0.0,0.0,0.0,0.0,0.0,0.0,0.0,0.0,0.0,0.0,0.0,0.0,0.0,0.0,0.0,0.0,0.0,0.0,0.0,0.0,0.0,0.0,0.0,0.0,0.0,0.0,0.0,0.0,0.0,0.0,0.0,0.0,0.0,0.0,0.0,0.0,0.0,0.0,0.0,0.0,0.0,0.0,0.0,0.0,0.0,0.0,0.0,0.0,0.0,0.0,0.0,0.0,0.0,-2.9175,-3.0302,-3.1836,-3.2004,-3.2264,-3.2943,-3.238,-3.2004,-3.2004,-3.1176,0.0,0.0,0.0,0.0,0.0,0.0,0.0,0.0,0.0,0.0,0.0,0.0,0.0,0.0,0.0,0.0,0.0,0.0,0.0,0.0,0.0,0.0,0.0,0.0,0.0,0.0,0.0,0.0,0.0,0.0,0.0,0.0,0.0,0.0,0.0,0.0,0.0,0.0,0.0,0.0,0.0,0.0,0.0,0.0,0.0,0.0,0.0,0.0,0.0,0.0,0.0,0.0,0.0,0.0,0.0,0.0,0.0,0.0,0.0,0.0,0.0,0.0,0.0,0.0,0.0,0.0,0.0,0.0,0.0,0.0,0.0,0.0,0.0,0.0,0.0,0.0,0.0,0.0,0.0,0.0,0.0,0.0,0.0,0.0,0.0,0.0,0.0,0.0,0.0,0.0,0.0,0.0,0.0,0.0,0.0,0.0,0.0,0.0,0.0,0.0,0.0,0.0,-3.0069,-3.0962,-3.1895,-3.2004,-3.2023,-3.2089,-3.2043,-3.2004,-3.2004,-3.1176,0.0,0.0,0.0,0.0,0.0,0.0,0.0,0.0,0.0,0.0,0.0,0.0,0.0,0.0,0.0,0.0,0.0,0.0,0.0,0.0,0.0,0.0,0.0,0.0,0.0,0.0,0.0,0.0,0.0,0.0,0.0,0.0,0.0,0.0,0.0,0.0,0.0,0.0,0.0,0.0,0.0,0.0,0.0,0.0,0.0,0.0,0.0,0.0,0.0,0.0,0.0,0.0,0.0,0.0,0.0,0.0,0.0,0.0,0.0,0.0,0.0,0.0,0.0,0.0,0.0,0.0,0.0,0.0,0.0,0.0,0.0,0.0,0.0,0.0,0.0,0.0,0.0,0.0,0.0,0.0,0.0,0.0,0.0,0.0,0.0,0.0,0.0,0.0,0.0,0.0,0.0,0.0,0.0,0.0,0.0,0.0,0.0,0.0,0.0,0.0,0.0,0.0,-3.0166,-3.0826,-3.1156,-3.1681,-3.2004,-3.2004,-3.2497,-3.2807,-3.2807,0.0,0.0,0.0,0.0,0.0,0.0,0.0,0.0,0.0,0.0,0.0,0.0,0.0,0.0,0.0,0.0,0.0,0.0,0.0,0.0,0.0,0.0,0.0,0.0,0.0,0.0,0.0,0.0,0.0,0.0,0.0,0.0,0.0,0.0,0.0,0.0,0.0,0.0,0.0,0.0,0.0,0.0,0.0,0.0,0.0,0.0,0.0,0.0,0.0,0.0,0.0,0.0,0.0,0.0,0.0,0.0,0.0,0.0,0.0,0.0,0.0,0.0,0.0,0.0,0.0,0.0,0.0,0.0,0.0,0.0,0.0,0.0,0.0,0.0,0.0,0.0,0.0,0.0,0.0,0.0,0.0,0.0,0.0,0.0,0.0,0.0,0.0,0.0,0.0,0.0,0.0,0.0,0.0,0.0,0.0,0.0,0.0,0.0,0.0,0.0,0.0,0.0,-3.0185,-3.0749,-3.1215,-3.1506,-3.2069,-3.2419,-3.2419,-3.2963,-3.341,-3.3662,0.0,0.0,0.0,0.0,0.0,0.0,0.0,0.0,0.0,0.0,0.0,0.0,0.0,0.0,0.0,0.0,0.0,0.0,0.0,0.0,0.0,0.0,0.0,0.0,0.0,0.0,0.0,0.0,0.0,0.0,0.0,0.0,0.0,0.0,0.0,0.0,0.0,0.0,0.0,0.0,0.0,0.0,0.0,0.0,0.0,0.0,0.0,0.0,0.0,0.0,0.0,0.0,0.0,0.0,0.0,0.0,0.0,0.0,0.0,0.0,0.0,0.0,0.0,0.0,0.0,0.0,0.0,0.0,0.0,0.0,0.0,0.0,0.0,0.0,0.0,0.0,0.0,0.0,0.0,0.0,0.0,0.0,0.0,0.0,0.0,0.0,0.0,0.0,0.0,0.0,0.0,0.0,0.0,0.0,0.0,0.0,0.0,0.0,0.0,0.0,0.0,0.0,-3.1895,-3.2004,-3.2341,-3.3215,-3.3313,-3.3313,-3.3313,-3.3313,-3.3662,0.0,0.0,0.0,0.0,0.0,0.0,0.0,0.0,0.0,0.0,0.0,0.0,0.0,0.0,0.0,0.0,0.0,0.0,0.0,0.0,0.0,0.0,0.0,0.0,0.0,0.0,0.0,0.0,0.0,0.0,0.0,0.0,0.0,0.0,0.0,0.0,0.0,0.0,0.0,0.0,0.0,0.0,0.0,0.0,0.0,0.0,0.0,0.0,0.0,0.0,0.0,0.0,0.0,0.0,0.0,0.0,0.0,0.0,0.0,0.0,0.0,0.0,0.0,0.0,0.0,0.0,0.0,0.0,0.0,0.0,0.0,0.0,0.0,0.0,0.0,0.0,0.0,0.0,0.0,0.0,0.0,0.0,0.0,0.0,0.0,0.0,0.0,0.0,0.0,0.0,0.0,0.0,0.0,0.0,0.0,0.0,0.0,0.0,0.0,0.0,0.0,0.0,0.0,-3.2807,-3.2924,-3.3021,-3.3274,-3.3818,-3.4148,-3.4148,-3.4711,-3.5158,-3.541,0.0,0.0,0.0,0.0,0.0,0.0,0.0,0.0,0.0,0.0,0.0,0.0,0.0,0.0,0.0,0.0,0.0,0.0,0.0,0.0,0.0,0.0,0.0,0.0,0.0,0.0,0.0,0.0,0.0,0.0,0.0,0.0,0.0,0.0,0.0,0.0,0.0,0.0,0.0,0.0,0.0,0.0,0.0,0.0,0.0,0.0,0.0,0.0,0.0,0.0,0.0,0.0,0.0,0.0,0.0,0.0,0.0,0.0,0.0,0.0,0.0,0.0,0.0,0.0,0.0,0.0,0.0,0.0,0.0,0.0,0.0,0.0,0.0,0.0,0.0,0.0,0.0,0.0,0.0,0.0,0.0,0.0,0.0,0.0,0.0,0.0,0.0,0.0,0.0,0.0,0.0,0.0,0.0,0.0,0.0,0.0,0.0,0.0,0.0,0.0,0.0,0.0,-3.3662,-3.3779,-3.3915,-3.4264,-3.5041,-3.5546,-3.5546,-3.6012,-3.6323,-3.6323,0.0,0.0,0.0,0.0,0.0,0.0,0.0,0.0,0.0,0.0,0.0,0.0,0.0,0.0,0.0,0.0,0.0,0.0,0.0,0.0,0.0,0.0,0.0,0.0,0.0,0.0,0.0,0.0,0.0,0.0,0.0,0.0,0.0,0.0,0.0,0.0,0.0,0.0,0.0,0.0,0.0,0.0,0.0,0.0,0.0,0.0,0.0,0.0,0.0,0.0,0.0,0.0,0.0,0.0,0.0,0.0,0.0,0.0,0.0,0.0,0.0,0.0,0.0,0.0,0.0,0.0,0.0,0.0,0.0,0.0,0.0,0.0,0.0,0.0,0.0,0.0,0.0,0.0,0.0,0.0,0.0,0.0,0.0,0.0,0.0,0.0,0.0,0.0,0.0,0.0,0.0,0.0,0.0,0.0,0.0,0.0,0.0,0.0,0.0,0.0,0.0,0.0,-3.4517,-3.4692,-3.5041,-3.5838,-3.6692,-3.7217,-3.7217,-3.7217,-3.7217,-3.7217,0.0,0.0,0.0,0.0,0.0,0.0,0.0,0.0,0.0,0.0,0.0,0.0,0.0,0.0,0.0,0.0,0.0,0.0,0.0,0.0,0.0,0.0,0.0,0.0,0.0,0.0,0.0,0.0,0.0,0.0,0.0,0.0,0.0,0.0,0.0,0.0,0.0,0.0,0.0,0.0,0.0,0.0,0.0,0.0,0.0,0.0,0.0,0.0,0.0,0.0,0.0,0.0,0.0,0.0,0.0,0.0,0.0,0.0,0.0,0.0,-3.4036,-3.3308,0.0,0.0,0.0,0.0,0.0,0.0,0.0,0.0,0.0,0.0,0.0,0.0,0.0,0.0,0.0,0.0,0.0,0.0,0.0,0.0,0.0,0.0,0.0,0.0,0.0,0.0,0.0,0.0,0.0,0.0,0.0,0.0,0.0,0.0,0.0,0.0,0.0,0.0,0.0,0.0,-3.541,-3.6129,-3.6615,-3.6809,-3.7605,-3.811,-3.811,-3.811,-3.811,-3.811,-3.7955,0.0,0.0,0.0,0.0,0.0,0.0,0.0,0.0,0.0,0.0,0.0,0.0,0.0,0.0,0.0,0.0,0.0,0.0,0.0,0.0,0.0,0.0,0.0,0.0,0.0,0.0,0.0,0.0,0.0,0.0,0.0,0.0,0.0,0.0,0.0,0.0,0.0,0.0,0.0,0.0,0.0,0.0,0.0,0.0,0.0,0.0,0.0,0.0,0.0,0.0,0.0,0.0,0.0,0.0,0.0,0.0,0.0,0.0,0.0,-3.6716,-3.5788,0.0,0.0,0.0,0.0,0.0,0.0,0.0,0.0,0.0,0.0,0.0,0.0,0.0,0.0,0.0,0.0,0.0,0.0,0.0,0.0,0.0,0.0,0.0,0.0,0.0,0.0,0.0,0.0,0.0,0.0,0.0,0.0,0.0,0.0,0.0,0.0,0.0,0.0,0.0,0.0,-3.6984,-3.743,-3.7722,-3.7722,-3.8499,-3.9023,-3.9023,-3.9023,-3.9023,-3.9023,-3.8635,0.0,0.0,0.0,0.0,0.0,0.0,0.0,0.0,0.0,0.0,0.0,0.0,0.0,0.0,0.0,0.0,0.0,0.0,0.0,0.0,0.0,0.0,0.0,0.0,0.0,0.0,0.0,0.0,0.0,0.0,0.0,0.0,0.0,0.0,0.0,0.0,0.0,0.0,0.0,0.0,0.0,0.0,0.0,0.0,0.0,0.0,0.0,0.0,0.0,0.0,0.0,0.0,0.0,-4.0408,-4.0898,-4.1899,-4.1846,-4.1809,-4.176,-4.0409,-3.9404,-3.8653,-3.7864,0.0,0.0,0.0,0.0,0.0,0.0,0.0,0.0,0.0,0.0,0.0,0.0,0.0,0.0,0.0,0.0,0.0,0.0,0.0,0.0,0.0,0.0,-3.8883,-3.9035,-3.9198,-3.9315,-3.9315,0.0,0.0,0.0,0.0,0.0,0.0,0.0,0.0,0.0,0.0,0.0,-3.8412,-3.8548,-3.8646,-3.8646,-3.9407,-3.9924,-3.9921,-3.9932,-3.9924,-3.9921,-3.9249,-3.884,0.0,0.0,0.0,0.0,0.0,0.0,0.0,0.0,0.0,0.0,0.0,0.0,0.0,0.0,0.0,0.0,0.0,0.0,0.0,0.0,0.0,0.0,0.0,0.0,0.0,0.0,0.0,0.0,0.0,0.0,0.0,0.0,-3.2409,-3.3207,0.0,0.0,0.0,0.0,0.0,0.0,0.0,0.0,0.0,0.0,0.0,0.0,0.0,-3.9645,-4.0576,-4.0567,-4.1383,-4.3005,-4.3069,-4.3903,-4.5421,-4.5472,-4.5499,-4.548,-4.5214,0.0,-3.9535,-3.9401,0.0,0.0,0.0,0.0,0.0,0.0,0.0,0.0,0.0,0.0,0.0,0.0,0.0,0.0,0.0,0.0,0.0,0.0,0.0,0.0,0.0,0.0,-4.085,-4.1616,-4.237,-4.2916,-4.2916,-4.0539,-3.8388,-3.8403,-3.8396,-3.8396,0.0,0.0,0.0,0.0,0.0,0.0,-3.8479,-3.9146,-3.9614,-3.9614,-4.0335,-4.083,-4.0836,-4.0836,-4.083,-4.084,-4.0723,-4.0664,-4.0664,-3.9985,0.0,0.0,0.0,0.0,0.0,0.0,0.0,0.0,0.0,0.0,0.0,0.0,0.0,0.0,0.0,0.0,0.0,0.0,0.0,0.0,0.0,0.0,0.0,0.0,0.0,0.0,0.0,0.0,0.0,-3.2918,-3.379,-3.4655,-3.4728,-3.4704,0.0,0.0,0.0,0.0,0.0,0.0,0.0,0.0,0.0,-4.1779,-4.183,-4.249,-4.3797,-4.4316,-4.5171,-4.6424,-4.6911,-4.7786,-4.8954,-4.8477,-4.8283,-4.8244,-4.7729,-4.6154,-4.386,-4.2431,-4.1332,-4.0602,0.0,0.0,0.0,0.0,-4.0966,-4.0616,-4.1102,-4.1276,-4.1335,-4.1704,0.0,0.0,0.0,0.0,0.0,0.0,0.0,-4.1418,-4.1788,-4.2182,-4.2557,-4.2946,-4.332,-4.3593,-4.3593,-4.2397,-4.132,-4.1319,-4.0925,-4.0584,-4.059,-4.0201,0.0,0.0,0.0,-3.9991,-4.0513,-4.0903,-4.1156,-4.1156,-4.1459,-4.149,-4.1,-4.0933,-4.0945,-4.0942,-4.0942,-4.0961,-4.0994,-4.0662,-4.0257,0.0,0.0,0.0,0.0,0.0,0.0,0.0,0.0,0.0,0.0,0.0,0.0,0.0,0.0,0.0,0.0,0.0,0.0,0.0,0.0,0.0,0.0,0.0,0.0,0.0,0.0,0.0,0.0,-3.4347,-3.5197,-3.6119,-3.6359,-3.6472,0.0,0.0,0.0,0.0,0.0,0.0,-4.0635,-4.0888,-4.2063,-4.4394,-4.4482,-4.5191,-4.6714,-4.7388,-4.8263,-4.9342,-4.9964,-5.0831,-5.1862,-5.123,-5.0918,-5.0878,-5.0226,-4.9426,-4.8386,-4.56,-4.3869,-4.2925,-4.2888,-4.2325,-4.1743,-4.3277,-4.3277,-4.2656,-4.353,-4.3685,-4.3549,-4.3763,-4.384,-4.3802,-4.3569,0.0,0.0,0.0,0.0,-4.3596,-4.362,-4.3779,-4.3937,-4.3941,-4.4137,-4.4293,-4.4293,-4.427,-4.415,-4.37,-4.3095,-4.2661,-4.2666,-4.2115,0.0,-4.1623,-4.1617,-4.1857,-4.25,-4.2578,-4.2578,-4.2578,-4.2564,-4.2303,-4.1682,-4.1395,-4.1271,-4.1286,-4.1071,-4.0972,-4.1018,-4.1037,-4.0738,-4.0115,0.0,0.0,0.0,0.0,0.0,0.0,0.0,0.0,0.0,0.0,0.0,0.0,0.0,0.0,0.0,0.0,0.0,0.0,0.0,0.0,0.0,0.0,0.0,0.0,0.0,0.0,0.0,0.0,0.0,-3.7022,-3.78,0.0,0.0,0.0,0.0,-3.9567,-4.1082,-4.2384,-4.3258,-4.4093,-4.5336,-4.7045,-4.7104,-4.755,-4.8474,-4.8533,-4.9376,-5.1078,-5.118,-5.2119,-5.3747,-5.3715,-5.3708,-5.3689,-5.3585,-5.3008,-5.1882,-4.8502,-4.6152,-4.4656,-4.4676,-4.4132,-4.3491,-4.4404,-4.419,-4.3569,-4.4423,-4.419,-4.3646,-4.4462,-4.4734,-4.4579,-4.3743,-4.3506,0.0,0.0,-4.3558,-4.3618,-4.3671,-4.4258,-4.4843,-4.4904,-4.5561,-4.617,-4.617,-4.6109,-4.5605,-4.4004,-4.3652,-4.3633,-4.3633,0.0,-4.3554,-4.3554,-4.3554,-4.3574,-4.362,-4.3615,-4.3615,-4.3615,-4.3572,-4.3546,-4.3562,-4.275,-4.2255,-4.231,-4.1546,-4.1087,-4.1094,-4.1093,-4.1051,-4.0935,-4.0193,0.0,0.0,0.0,0.0,0.0,0.0,0.0,0.0,0.0,0.0,0.0,0.0,0.0,0.0,0.0,0.0,0.0,0.0,0.0,0.0,0.0,0.0,0.0,0.0,0.0,0.0,0.0,0.0,-3.8714,-3.9529,0.0,-4.0796,-4.1625,-4.2384,-4.2947,-4.4015,-4.5258,-4.6715,-4.7084,-4.8269,-5.0503,-5.0581,-5.1008,-5.1863,-5.2445,-5.3028,-5.365,-5.4241,-5.4847,-5.543,-5.4868,-5.4605,-5.4583,-5.3988,-5.3557,-5.3157,-5.1967,-5.0128,-4.8036,-4.7453,-4.6715,-4.6055,-4.6929,-4.6696,-4.6074,-4.6948,-4.7045,-4.6735,-4.6482,-4.6445,-4.6422,-4.6099,-4.6045,-4.6061,-4.6061,-4.6503,-4.683,-4.6337,-4.6412,-4.6761,-4.7318,-4.7295,-4.7276,-4.7803,-4.7481,-4.692,-4.6334,-4.5271,-4.4472,-4.4472,-4.4043,-4.3691,-4.3647,-4.3646,-4.3842,-4.4392,-4.4471,-4.4471,-4.4471,-4.446,-4.4223,-4.367,-4.3329,-4.2915,-4.2362,-4.2049,-4.164,-4.1113,-4.1094,-4.1094,-4.1053,-4.0779,-4.0351,0.0,0.0,0.0,0.0,0.0,0.0,0.0,0.0,0.0,0.0,0.0,0.0,0.0,0.0,0.0,0.0,0.0,0.0,0.0,0.0,0.0,0.0,0.0,0.0,0.0,0.0,-4.044,-4.1318,-4.2392,-4.3413,-4.4314,-4.5153,-4.5899,-4.6482,-4.728,-4.8369,-4.9804,-4.9904,-5.0817,-5.2776,-5.2834,-5.3137,-5.3724,-5.4307,-5.4735,-5.5046,-5.5633,-5.6197,-5.6718,-5.5866,-5.5622,-5.5843,-5.4968,-5.4587,-5.4575,-5.4319,-5.318,-5.1474,-5.004,-4.8757,-4.7842,-4.8716,-4.8483,-4.7822,-4.8405,-4.8599,-4.8513,-4.7942,-4.7804,-4.7839,-4.7846,-4.7891,-4.7949,-4.7949,-4.8352,-4.8681,-4.8135,-4.7998,-4.8135,-4.8662,-4.8388,-4.8154,-4.8681,-4.8388,-4.7998,-4.7998,-4.6588,-4.5367,-4.5367,-4.4937,-4.4569,-4.4511,-4.4511,-4.4725,-4.5291,-4.5368,-4.5368,-4.5368,-4.5345,-4.511,-4.4569,-4.4213,-4.3802,-4.324,-4.2929,-4.2382,-4.1543,-4.1503,-4.1366,-4.1071,-4.1086,-4.0951,-4.0644,0.0,0.0,0.0,0.0,0.0,0.0,0.0,0.0,0.0,0.0,0.0,0.0,0.0,0.0,0.0,0.0,0.0,0.0,0.0,0.0,0.0,0.0,0.0,-3.9988,-4.2024,-4.3955,-4.4851,-4.6413,-4.7787,-4.8723,-4.9518,-4.999,-5.0029,-5.0801,-5.1638,-5.2445,-5.2541,-5.2941,-5.3759,-5.3805,-5.3841,-5.3876,-5.3915,-5.4343,-5.518,-5.5171,-5.6047,-5.7601,-5.6826,-5.6904,-5.7581,-5.6736,-5.6353,-5.6272,-5.5437,-5.5048,-5.4737,-5.2241,-5.0227,-4.8813,-4.9679,-4.9426,-4.8688,-4.8727,-4.8708,-4.869,-4.8752,-4.8762,-4.8737,-4.8736,-4.8783,-4.8847,-4.8847,-4.886,-4.8876,-4.8857,-4.8857,-4.8896,-4.8915,-4.8915,-4.8935,-4.8954,-4.8915,-4.8876,-4.8876,-4.753,-4.6378,-4.6378,-4.6378,-4.6378,-4.6378,-4.6358,0.0,-4.6339,-4.6319,-4.63,-4.63,-4.6245,-4.6228,-4.6284,-4.5463,-4.4958,-4.4992,-4.42,-4.3317,-4.238,-4.234,-4.1953,-4.1101,-4.1151,-4.1562,-4.2342,0.0,0.0,0.0,0.0,0.0,0.0,0.0,0.0,0.0,0.0,0.0,0.0,0.0,0.0,0.0,0.0,0.0,0.0,0.0,0.0,0.0,0.0,-4.4492,-4.3603,-4.5164,-4.6947,-4.8408,-4.9547,-5.0552,-5.1445,-5.1681,-5.2055,-5.2669,-5.2902,-5.3402,-5.4232,-5.4303,-5.4696,-5.5567,-5.62,-5.6232,-5.5627,-5.6244,-5.6666,-5.69,-5.6905,-5.7468,-5.8454,-5.8246,-5.8253,-5.8454,-5.8221,-5.7781,-5.7217,-5.6982,-5.6135,-5.4873,-5.3538,-5.2333,-5.1389,-5.1687,-5.1269,-5.0653,-5.1277,-5.1082,-5.0555,-5.0577,-5.0191,-4.9719,-4.9725,-4.9725,-4.9748,-4.9748,-5.0191,-5.0535,-4.9911,-5.0204,-5.0848,-5.1472,-5.1629,-5.1804,-5.2429,-5.159,-5.0692,-5.0692,-4.9286,-4.8115,-4.8115,-4.8115,-4.8115,-4.8115,-4.7561,-4.7166,-4.7166,-4.6611,-4.624,-4.6288,-4.628,-4.6284,-4.63,-4.6056,-4.5646,-4.5031,-4.4786,-4.4239,-4.3352,-4.3326,-4.3189,-4.2965,-4.2978,-4.3063,0.0,0.0,0.0,0.0,0.0,0.0,0.0,0.0,0.0,0.0,0.0,0.0,0.0,0.0,0.0,0.0,0.0,0.0,0.0,0.0,0.0,0.0,-4.6705,-4.858,-4.9148,-4.9746,-5.0654,-5.2027,-5.2921,-5.365,-5.4181,-5.4156,-5.4295,-5.482,-5.5171,-5.543,-5.5544,-5.6289,-5.6757,-5.6834,-5.7694,-5.7889,-5.7398,-5.7889,-5.8137,-5.8137,-5.8137,-5.8564,-5.9361,-5.8985,-5.9005,-5.9361,-5.8966,-5.8338,-5.7601,-5.7594,-5.6797,-5.5502,0.0,0.0,0.0,0.0,-5.2796,-5.2452,-5.296,-5.2804,-5.2394,-5.2392,-5.2068,-5.1699,-5.1734,-5.172,-5.1726,-5.1726,-5.2097,-5.237,-5.1863,-5.2117,-5.2526,-5.2663,-5.2975,-5.3288,-5.3424,-5.2956,-5.2487,-5.2479,-5.1386,0.0,-5.043,-4.9536,-4.8798,-4.879,-4.8381,-4.7908,-4.7543,-4.7055,-4.6626,-4.6294,-4.626,-4.626,-4.6269,-4.6269,0.0,0.0,0.0,-4.5114,-4.4236,-4.386,0.0,0.0,0.0,-4.3814,-4.4149,-4.3778,0.0,0.0,-4.1852,-4.1815,0.0,0.0,0.0,0.0,0.0,0.0,0.0,0.0,0.0,0.0,0.0,0.0,0.0,0.0,0.0,0.0,-5.0201,-5.284,-5.5299,-5.5015,-5.4784,-5.5428,-5.6204,-5.6659,-5.6515,-5.6566,-5.657,-5.6476,-5.7312,-5.7487,-5.666,-5.8184,0.0,0.0,0.0,-5.8993,-5.8896,-5.9013,-5.9052,-5.9052,-5.9052,-5.951,-6.0316,-5.9478,-5.9555,-6.0285,-5.9458,-5.8632,-5.7886,-5.7895,-5.7363,-5.6454,-5.5474,-5.4632,-5.3956,-5.3912,-5.3907,-5.393,-5.4027,0.0,0.0,-5.4023,-5.3983,-5.3924,-5.3982,-5.401,-5.401,-5.401,-5.401,-5.401,-5.401,-5.4068,-5.3951,-5.3171,-5.3659,-5.4088,-5.3307,-5.3678,-5.4123,-5.4011,-5.3387,-5.2782,-5.2587,-5.0625,-4.9087,-4.9094,-4.9005,-4.8673,-4.7889,-4.7718,-4.7309,-4.644,-4.6343,0.0,-4.6206,-4.6206,-4.6206,-4.6206,-4.6195,-4.5852,-4.5085,-4.4289,-4.4259,-4.503,-4.4286,-4.4266,-4.5033,-4.4273,-4.389,-4.3897,-4.3681,-4.3591,0.0,0.0,0.0,0.0,0.0,0.0,0.0,0.0,0.0,0.0,0.0,0.0,0.0,0.0,0.0,-5.0421,-5.3376,-5.6179,-5.8089,-5.8797,-5.8679,-5.7433,-5.8065,-5.8047,-5.6718,-5.7779,-5.8261,-5.7562,-5.8286,-5.8667,-5.849,-5.881,-5.8927,-5.8734,-5.9532,-5.9616,-5.8915,-5.9596,-5.9947,-5.9947,-6.0,0.0,-6.125,-6.1063,-6.1058,-6.1155,-6.1039,-6.0497,-5.9707,-5.9755,-5.8882,-5.7361,-5.5739,-5.5023,-5.4842,-5.416,-5.3925,-5.4089,-5.4792,-5.4577,-5.4105,-5.4805,-5.4548,-5.3979,-5.399,-5.401,0.0,-5.401,-5.401,-5.401,-5.401,-5.4517,-5.5005,-5.483,-5.5454,-5.6059,-5.5884,-5.5435,-5.4845,-5.4133,-5.3855,-5.3303,-5.1888,-5.1235,-5.0898,-5.0902,-5.0293,-4.9796,-4.9616,-4.8976,-4.8203,-4.7337,-4.7248,-4.6955,-4.6265,-4.6206,-4.6206,-4.6206,-4.6195,-4.6118,-4.5969,-4.5787,-4.5787,-4.5956,-4.5768,-4.5787,-4.5949,-4.5774,-4.5696,-4.565,-4.4259,-4.3596,0.0,0.0,0.0,0.0,0.0,0.0,0.0,0.0,0.0,0.0,0.0,-4.7,0.0,0.0,-5.2422,-5.3735,-5.6114,-5.826,-5.9528,-6.0444,-6.0536,-5.9256,-5.9452,-5.9207,-5.7977,-5.8554,-5.8821,-5.8431,-5.9185,-5.9452,-5.9011,-5.9823,-6.0093,-5.9661,-6.047,-6.0685,-6.0215,-6.0625,-6.0847,-6.0854,-6.0873,-6.1133,-6.1543,-6.1524,-6.149,-6.1502,-6.1504,-6.1016,-6.0182,-5.9373,-5.8552,-5.7665,-5.6366,-5.5875,-5.5846,-5.5419,-5.5274,-5.5357,-5.5806,-5.5669,-5.5376,-5.5806,-5.5669,-5.5298,-5.5298,-5.5298,-5.5298,-5.5298,-5.5298,-5.5298,-5.5298,-5.5611,-5.5845,-5.5396,-5.5962,-5.6489,-5.604,-5.5918,-5.5777,-5.5338,-5.4898,-5.432,-5.3442,-5.2584,-5.1849,-5.1425,-5.1015,-5.0581,-5.0114,-4.9699,-4.9127,-4.825,-4.7756,-4.7327,-4.6885,-4.6456,-4.6203,-4.6203,-4.6196,-4.6209,-4.6196,-4.6196,-4.6196,-4.6196,-4.6196,-4.6196,-4.6196,-4.6196,-4.6196,-4.6176,-4.5319,-4.491,0.0,0.0,0.0,0.0,0.0,0.0,0.0,0.0,-4.5339,-4.7086,-4.8821,-5.042,-5.1655,-5.3527,-5.5353,-5.6769,-5.846,-5.9806,-6.0453,-6.1151,-6.1354,-6.0703,-6.0583,-6.0175,-5.9187,-5.9293,-5.9375,-5.9276,-6.0077,-6.0251,-5.9549,-6.0854,-6.1287,-6.0584,-6.1229,-6.1577,-6.1506,-6.1509,-6.1511,-6.1516,-6.1518,-6.1542,-6.1601,-6.1539,-6.1538,-6.1578,-6.1533,-6.1169,-6.0466,-5.912,-5.8358,-5.7997,-5.7343,-5.6899,-5.6606,-5.6606,-5.6606,-5.6606,-5.6606,-5.6606,-5.6606,-5.6606,-5.6606,-5.6606,-5.6606,-5.6606,-5.6606,-5.6606,-5.6606,-5.6606,-5.6606,-5.6606,-5.6411,-5.5728,-5.6098,-5.6411,-5.5708,-5.605,-5.647,-5.6288,-5.5822,-5.5353,-5.5009,-5.393,-5.2811,-5.1941,-5.1564,-5.1187,-5.0575,-5.0407,-4.9997,-4.9145,-4.8261,-4.7618,-4.7287,-4.6605,-4.6196,-4.6196,-4.6196,-4.6196,-4.6196,-4.6196,-4.6196,-4.6196,-4.6196,-4.6196,-4.6196,-4.6196,-4.6196,-4.6196,-4.6196,-4.6196,-4.1286,-4.0955,-4.1461,-4.2961,-4.3383,-4.4462,0.0,0.0,-4.9781,-5.1522,-5.3268,-5.4301,-5.3724,-5.6258,-5.8488,-5.8699,-6.018,-6.135,-6.1448,-6.1545,-6.1576,-6.148,-6.1452,-6.0831,-5.9241,-6.0428,-6.0995,-6.0303,-6.0995,-6.1401,-6.1319,-6.1559,-6.162,-6.1465,-6.1542,-6.1578,-6.1492,-6.156,-6.1582,-6.1582,-6.1599,-6.1599,-6.1601,-6.1582,-6.1561,-6.1516,-6.1562,-6.1575,-6.1529,-6.133,-6.0354,-5.8944,-5.887,-5.7914,-5.6606,-5.6606,-5.6606,-5.6606,-5.6606,-5.6606,-5.6606,-5.6606,-5.6606,-5.6606,-5.6606,-5.6606,-5.6606,-5.6606,-5.6606,-5.6606,-5.6606,-5.6606,-5.6586,-5.6489,-5.6528,-5.6567,-5.6489,-5.6528,-5.6343,-5.5516,-5.59,-5.5867,-5.4309,-5.4535,-5.4609,-5.3741,-5.235,-5.1628,-5.2227,-5.1629,-5.0842,-5.0036,-4.9165,-4.8027,-4.6468,-4.6254,-4.6196,-4.6196,-4.6196,-4.6196,-4.6196,-4.6196,-4.6196,-4.6196,-4.6196,-4.6196,-4.6196,-4.6196,-4.6196,-4.6196,-4.6196,-4.6196,-4.3507,-4.3312,0.0,0.0,-4.6605,-4.8183,-5.1515,-5.2664,-5.3502,-5.5217,-5.6951,-5.8061,-5.7691,-5.92,-6.0515,0.0,-6.1127,-6.1595,-6.1606,-6.1158,-6.0662,-6.0146,-6.0083,-6.0203,-6.051,-6.1185,-6.1451,-6.1121,-6.1419,-6.1595,-6.1609,-6.1634,-6.1627,-6.1598,-6.1607,-6.1592,-6.1557,-6.1588,-6.1598,-6.1607,-6.1595,-6.1595,-6.1607,-6.1607,-6.1579,-6.1557,-6.1635,-6.1666,-6.1671,-6.1149,-6.051,-5.9807,-5.93,-5.8675,-5.7933,-5.6957,-5.6606,-5.6606,-5.6606,-5.6606,-5.6606,-5.6606,-5.6606,-5.6606,-5.6606,-5.6606,-5.6606,-5.6606,-5.6606,-5.6606,-5.6606,-5.6606,-5.6606,-5.6606,-5.6606,-5.6582,-5.6558,-5.6548,-5.6419,-5.6036,-5.625,-5.6274,-5.5545,-5.5283,-5.508,-5.4714,-5.3194,-5.2044,-5.1869,-5.153,-5.0984,-5.0127,-4.973,-4.8806,-4.7092,-4.6956,-4.6741,-4.6235,-4.6196,-4.6196,-4.6196,-4.6196,-4.6196,-4.6196,-4.6196,-4.6196,-4.6196,-4.6196,-4.6196,-4.6196,-4.6196,-4.6196,-4.4773,0.0,0.0,-4.83,-4.9995,-5.1826,-5.4652,-5.5782,-5.6736,-5.8431,-5.9776,-6.0594,-6.0341,-6.0826,-6.1236,-6.1237,-6.1236,-6.1333,-6.1568,-6.0633,-5.9717,-5.9074,-5.8587,-5.888,-6.038,-6.0964,-6.1334,-6.1588,-6.1607,-6.1607,-6.1607,-6.1597,-6.1606,-6.1595,-6.1595,-6.1595,-6.1595,-6.1595,-6.1606,-6.1607,-6.1607,-6.1607,-6.1607,-6.1607,-6.1606,-6.1592,-6.1641,-6.1679,-6.1646,-6.1013,-6.0627,-6.0334,-5.971,-5.9319,-5.8948,-5.7734,-5.7148,-5.6899,-5.6684,-5.6606,-5.6606,-5.6606,-5.6606,-5.6606,-5.6606,-5.6606,-5.6606,-5.6582,-5.6563,-5.6563,-5.6577,-5.6577,-5.6577,-5.6577,-5.6577,-5.6553,-5.6503,-5.6491,-5.6498,-5.6498,-5.6496,-5.65,-5.6508,-5.5985,-5.5489,-5.5236,-5.4126,-5.2918,-5.1807,-5.1456,-5.0969,-5.0092,-4.9995,-4.941,-4.7988,-4.7852,-4.7482,-4.6605,-4.6566,-4.6449,-4.6215,-4.6196,-4.6196,-4.6196,-4.6196,-4.6196,-4.6196,-4.6196,-4.6196,-4.6196,-4.6196,-4.6196,0.0,0.0,-4.717,-5.1398,-5.3112,-5.4671,-5.8061,-5.886,-5.9386,-6.112,-6.151,-6.1295,-6.0458,-6.0321,-6.0341,-6.0341,-6.0341,-6.0633,-6.1471,-6.0126,-5.9035,-5.8996,-5.7574,-5.6892,0.0,-5.9347,-6.0692,-6.1549,-6.1607,-6.1607,-6.1607,-6.1606,-6.1595,-6.1607,-6.1595,-6.1595,-6.1607,-6.1607,-6.1607,-6.1607,-6.1607,-6.1607,-6.1607,-6.1607,-6.1595,-6.1595,-6.1595,-6.1634,-6.1701,-6.1681,-6.1154,-6.0393,-6.0373,-5.9846,-5.908,-5.9031,-5.849,-5.7641,-5.6879,-5.6606,-5.6606,-5.6606,-5.6606,-5.6606,-5.6606,-5.6606,-5.6582,-5.6514,-5.6509,-5.6503,-5.6511,-5.6504,-5.6504,-5.6504,-5.6504,-5.6504,-5.6504,-5.6504,-5.6498,-5.6496,-5.6496,-5.6508,-5.6492,-5.6483,-5.6171,-5.5333,-5.5158,-5.4496,-5.2781,-5.1826,-5.0969,-5.0092,-4.9995,-4.9664,-4.8826,-4.8768,-4.8397,-4.7521,-4.7462,-4.7072,-4.6235,-4.6196,-4.6196,-4.6196,-4.6196,-4.6196,-4.6196,-4.6196,-4.6196,-4.6196,-4.6196,-4.6196,0.0,0.0,-5.206,-5.5197,-5.7516,-5.96,-6.1861,-6.2387,-6.2406,-6.2445,-6.1081,-5.9445,-5.8042,-5.7301,-5.7107,-5.7672,-5.8704,-5.9542,-5.9834,-5.9367,-5.8373,-5.6678,-5.6483,0.0,0.0,0.0,0.0,-6.0633,-6.073,-6.0984,-6.1568,-6.1597,-6.1597,-6.1607,-6.1597,-6.1597,-6.1607,-6.1607,-6.1607,-6.1607,-6.1607,-6.1607,-6.1607,-6.1606,-6.1603,-6.1592,-6.1641,-6.1654,-6.1634,-6.1685,-6.1504,-6.1205,-6.1205,-6.103,-6.0698,-6.0158,-5.9404,-5.8552,-5.7687,-5.7024,-5.6536,-5.6536,-5.6536,-5.6536,-5.6536,-5.6536,-5.6536,-5.6511,-5.6491,-5.6491,-5.6504,-5.6933,-5.7226,-5.6641,-5.6933,-5.72,-5.662,-5.6503,-5.6496,-5.65,-5.65,-5.6492,-5.6511,-5.6503,-5.6191,-5.5333,-5.4223,-5.3268,-5.2684,-5.1846,-5.1183,-5.0891,-5.0852,-5.0521,-4.9664,-4.9605,-4.9001,-4.7579,-4.7501,-4.7111,-4.6235,-4.6196,-4.6196,-4.6196,-4.6196,-4.6196,-4.6196,-4.6196,-4.6196,-4.6196,-4.6196,-4.6196,-5.0463,-5.3288,-5.5957,-5.8841,-6.0828,-6.2426,-6.3789,-6.34,-6.2426,-6.1276,-5.9484,-5.7496,-5.547,-5.4652,-5.4457,-5.5022,-5.6015,-5.7145,-5.8353,-5.7749,-5.7029,-5.6619,-5.6249,-5.6054,0.0,0.0,0.0,-6.0146,-6.0594,-6.1003,-6.1568,-6.1607,-6.1607,-6.1607,-6.1607,-6.1607,-6.1607,-6.1607,-6.1607,-6.1607,-6.1597,-6.1597,-6.1597,-6.1595,-6.1603,-6.1592,-6.1654,-6.1641,-6.1595,-6.1648,-6.1648,-6.1595,-6.1595,-6.1595,-6.1497,-6.0671,-5.9806,-5.8936,-5.8097,-5.7226,-5.6504,-5.6504,-5.6719,-5.6914,-5.6582,-5.6719,-5.6888,-5.6588,-5.6491,-5.6569,-5.6854,-5.7342,-5.7693,-5.7459,-5.7576,-5.7607,-5.7053,-5.6695,-5.65,-5.6511,-5.6503,-5.6503,-5.6503,-5.6503,-5.6308,-5.5743,-5.4457,-5.3424,-5.3093,-5.2294,-5.1768,-5.1768,-5.1495,-5.1067,-5.0502,-5.0463,-4.9878,-4.8475,-4.8125,-4.756,-4.6702,-4.6371,-4.6196,-4.6196,-4.6196,-4.6196,-4.6196,-4.6196,-4.6196,-4.6196,-4.6196,-4.6196,-5.3229,-5.6015,-5.8763,-6.2114,-6.2991,-6.3205,-6.3887,-6.2055,-5.9737,-5.8003,-5.6814,-5.5333,0.0,0.0,-5.2372,-5.245,-5.2645,-5.395,-5.7243,-5.5704,-5.5392,0.0,0.0,0.0,0.0,0.0,0.0,-6.0126,0.0,-6.151,-6.1607,-6.1607,-6.1607,-6.1607,-6.1607,-6.1607,-6.1607,-6.1607,-6.1607,-6.1607,-6.1586,-6.1603,-6.1603,-6.1603,-6.1592,-6.1595,-6.1592,-6.16,-6.1595,-6.1595,-6.1595,-6.1595,-6.1595,-6.1595,-6.149,-6.0676,-5.981,-5.8952,-5.8129,-5.7258,-5.6517,-5.6556,-5.7122,-5.7648,-5.6868,-5.72,-5.7687,-5.6866,-5.6625,-5.68,-5.7563,-5.7788,-5.8022,-5.8802,-5.8373,-5.7749,-5.7711,-5.7068,-5.6503,-5.6503,-5.6503,-5.6503,-5.6503,-5.6503,-5.6503,-5.6503,-5.5801,-5.4944,-5.4087,-5.3171,-5.2606,-5.2606,-5.1826,-5.13,-5.13,-5.13,-5.093,-5.0053,-4.9235,-4.8417,-4.754,-4.6663,-4.6196,-4.6196,-4.6196,-4.6196,-4.6196,-4.6196,-4.6196,-4.6196,-4.6196,-4.6196,-5.6775,-5.96,-6.1938,-6.3419,-6.4276,-6.4491,-6.3439,-6.1198,-5.8841,-5.7165,-5.358,-5.0365,0.0,0.0,0.0,-5.0463,-5.3385,0.0,-5.7496,-5.8256,0.0,-5.8081,0.0,-5.7944,-5.7711,-5.8685,0.0,0.0,-5.9893,-6.0224,-6.1529,-6.1607,-6.1607,-6.1607,-6.1607,-6.1607,-6.1607,-6.1607,-6.1607,-6.1607,-6.1597,-6.1597,-6.1597,-6.1595,-6.1603,-6.1592,-6.16,-6.16,-6.1592,-6.1592,-6.1603,-6.1606,-6.1606,-6.1606,-6.1567,-6.1344,-6.072,-5.9843,-5.8994,-5.7728,-5.6597,-5.7201,-5.7533,-5.7806,-5.8234,-5.8527,-5.8644,-5.8421,-5.8362,-5.8401,-5.8626,-5.9152,-5.9522,-5.9094,-5.8821,-5.849,-5.7847,-5.7068,-5.6503,-5.6503,-5.6503,-5.6503,-5.6503,-5.6503,-5.6503,-5.6503,-5.6308,-5.584,-5.4983,-5.3541,-5.2606,-5.2606,-5.1826,-5.13,-5.13,-5.13,-5.093,-5.0053,-4.9235,-4.8417,-4.754,-4.6663,-4.6196,-4.6196,-4.6196,-4.6196,-4.6196,-4.6196,-4.6196,-4.6196,-4.6196,-4.6196,-5.9873,-6.2328,-6.4004,-6.4082,-6.4199,-6.377,-6.1666,-5.9191,-5.6522,-5.3697,-5.0813,0.0,0.0,0.0,0.0,0.0,0.0,0.0,-5.6269,-5.7438,-5.8392,0.0,-5.9503,0.0,-5.9425,-5.9951,-6.0458,0.0,-6.0419,-6.0575,-6.1549,-6.1607,-6.1607,-6.1607,-6.1607,-6.1607,-6.1607,-6.1607,-6.1607,-6.1607,-6.1597,-6.1606,-6.1606,-6.1595,-6.1603,-6.1603,-6.1603,-6.1603,-6.1606,-6.1606,-6.1597,-6.1607,-6.1607,-6.1607,-6.1549,-6.1179,-6.0711,-6.0185,-5.9289,-5.812,-5.7029,-5.7145,-5.7672,-5.8295,-5.8392,-5.8957,-5.9484,-5.9113,-5.8996,-5.9094,-5.9464,-5.9932,-6.0263,-6.0165,-5.9854,-5.9328,-5.8451,-5.7925,-5.7477,-5.7107,-5.7029,-5.6912,-5.6561,-5.6503,-5.6503,-5.6503,-5.6503,-5.6308,-5.5821,-5.4574,-5.3736,-5.3736,-5.2625,-5.1865,-5.1865,-5.1515,-5.1086,-5.0599,-4.9781,-4.8943,-4.8105,-4.7228,-4.6585,-4.6215,-4.6196,-4.6196,-4.6196,-4.6196,-4.6196,-4.6196,-4.6196,-4.6196,-6.2523,-6.414,-6.4939,-6.4413,-6.3419,-6.1861,-5.925,-5.6503,-5.3366,-4.9294,0.0,-4.7287,-4.5124,-4.5436,-4.6391,-4.7482,0.0,-5.0852,-5.4827,-5.5665,-5.7262,-6.0984,-6.0867,-6.0769,-6.1529,-6.0925,-6.0789,-6.1549,-6.1607,-6.1607,-6.1607,-6.1607,-6.1607,-6.1607,-6.1607,-6.1607,-6.1607,-6.1607,-6.1607,-6.1607,-6.1606,-6.1595,-6.1595,-6.1595,-6.1595,-6.1595,-6.1597,-6.1607,-6.1607,-6.1607,-6.1607,-6.1607,-6.1607,-6.1607,-6.151,-6.075,-6.0477,-6.0341,-5.9464,-5.8685,-5.7905,-5.7087,-5.7808,-5.888,-5.8237,-5.9172,-6.0302,-5.9561,-5.9347,-5.9522,-6.0282,-6.0477,-6.0653,-6.1412,-6.0925,-6.0088,-5.9347,-5.9074,-5.8782,-5.8022,-5.7769,-5.7477,-5.6775,-5.6561,-5.6503,-5.6503,-5.6503,-5.6503,-5.6503,-5.5743,-5.5197,-5.5197,-5.3638,-5.2606,-5.2606,-5.1807,-5.13,-5.13,-5.0482,-4.9644,-4.8826,-4.7949,-4.7092,-4.6215,-4.6196,-4.6196,-4.6196,-4.6196,-4.6196,-4.6196,-4.6196,-4.6196,-6.4276,-6.4179,-6.3634,-6.488,-6.2932,-6.0088,-5.7516,-5.3814,0.0,0.0,0.0,-4.3507,-4.378,-4.454,0.0,-4.8202,0.0,0.0,0.0,0.0,-5.9698,0.0,0.0,0.0,0.0,0.0,0.0,0.0,-6.1607,-6.1607,-6.1607,-6.1607,-6.1607,-6.1607,-6.1607,-6.1607,-6.1607,-6.1607,-6.1607,-6.1607,-6.1588,-6.1597,-6.1597,-6.1597,-6.1597,-6.1597,-6.1607,-6.1607,-6.1607,-6.1607,-6.1607,-6.1607,-6.1607,-6.1607,-6.1588,-6.1432,-6.1373,-6.1257,-6.038,-5.9971,-5.9717,-5.8841,-5.8763,-5.9113,-5.9678,-6.0555,-6.1334,-6.1198,-6.114,-6.1179,-6.1334,-6.1373,-6.1412,-6.1568,-6.0925,-6.0263,-6.0107,-5.9503,-5.8957,-5.8802,-5.8178,-5.7652,-5.7516,-5.6931,-5.6503,-5.6503,-5.6503,-5.6503,-5.6503,-5.5743,-5.5197,-5.5197,-5.3638,-5.2606,-5.2606,-5.1807,-5.13,-5.13,-5.0482,-4.9644,-4.8826,-4.7949,-4.7092,-4.6215,-4.6196,-4.6196,-4.6196,-4.6196,-4.6196,-4.6196,-4.6196,-4.6196,-6.416,-6.414,-6.3614,-6.4004,-6.149,-5.8159,-5.5158,0.0,0.0,0.0,0.0,-4.3091,-4.352,0.0,0.0,0.0,0.0,0.0,0.0,0.0,0.0,0.0,0.0,0.0,0.0,0.0,0.0,-6.1607,-6.1607,-6.1607,-6.1607,-6.1607,-6.1607,-6.1607,-6.1607,-6.1607,-6.1607,-6.1607,-6.1607,-6.1607,-6.1607,-6.1607,-6.1607,-6.1607,-6.1607,-6.1607,-6.1607,-6.1607,-6.1607,-6.1607,-6.1607,-6.1607,-6.1607,-6.1607,-6.1607,-6.1607,-6.1607,-6.1549,-6.112,-6.0672,-6.0165,-5.9269,-5.9308,-5.9756,-6.0165,-6.0906,-6.1607,-6.1607,-6.1607,-6.1607,-6.1607,-6.1607,-6.1607,-6.1607,-6.0925,-6.0419,-6.0886,-6.0282,-5.9542,-5.9094,-5.8665,-5.81,-5.7223,-5.6756,-5.6503,-5.6503,-5.6503,-5.6503,-5.6503,-5.6132,-5.5879,-5.5879,-5.432,-5.3288,-5.3288,-5.206,-5.13,-5.13,-5.0911,-5.0112,-4.8845,-4.8397,-4.754,-4.6235,-4.6196,-4.6196,-4.6196,-4.6196,-4.6196,-4.6196,-4.6196,-4.6196,-6.338,-6.3711,-6.3458,-6.301,-6.001,-5.6308,-5.3054,-4.9527,0.0,0.0,-4.2728,-4.3383,-4.3559,0.0,0.0,0.0,0.0,0.0,0.0,0.0,0.0,0.0,0.0,0.0,0.0,0.0,0.0,-6.1607,-6.1607,-6.1607,-6.1607,-6.1607,-6.1607,-6.1607,-6.1607,-6.1607,-6.1607,-6.1607,-6.1607,-6.1607,-6.1607,-6.1607,-6.1607,-6.1607,-6.1607,-6.1607,-6.1607,-6.1607,-6.1607,-6.1607,-6.1607,-6.1607,-6.1607,-6.1607,-6.1607,-6.1607,-6.1607,-6.1607,-6.1607,-6.114,-6.0477,-5.9776,-5.9893,-6.0263,-6.0088,-6.075,-6.1607,-6.1607,-6.1607,-6.1607,-6.1607,-6.1607,-6.1607,-6.1607,-6.1081,-6.0769,-6.1451,-6.1062,-6.038,-5.9698,-5.925,-5.8587,-5.7262,-5.6736,-5.6503,-5.6503,-5.6503,-5.6503,-5.6503,-5.6503,-5.6503,-5.6503,-5.4944,-5.3911,-5.3911,-5.2294,-5.13,-5.13,-5.13,-5.0638,-4.9118,-4.8884,-4.8066,-4.6507,-4.6293,-4.6196,-4.6196,-4.6196,-4.6196,-4.6196,-4.6196,-4.6196,-6.2542,-6.2426,-6.1997,-6.2718,-5.9133,-5.473,-5.2041,0.0,0.0,-4.1753,-4.187,-4.2669,-4.3442,-4.4306,0.0,0.0,0.0,0.0,0.0,0.0,0.0,0.0,0.0,0.0,0.0,0.0,0.0,-6.1607,-6.1607,-6.1607,-6.1607,-6.1607,-6.1607,-6.1607,-6.1607,-6.1607,-6.1607,-6.1607,-6.1607,-6.1607,-6.1607,-6.1607,-6.1607,-6.1607,-6.1607,-6.1607,-6.1607,-6.1607,-6.1607,-6.1607,-6.1607,-6.1607,-6.1607,-6.1607,-6.1607,-6.1607,-6.1607,-6.1607,-6.1607,-6.1549,-6.1471,-6.1393,-6.0886,-6.0146,-5.9367,-6.0282,-6.1607,-6.1607,-6.1607,-6.1607,-6.1607,-6.1607,-6.1607,-6.1607,-6.1549,-6.149,-6.1588,-6.1549,-6.1451,-6.1373,-6.0088,-5.8957,-5.8802,-5.7516,-5.6503,-5.6503,-5.6503,-5.6503,-5.6503,-5.6503,-5.6503,-5.6503,-5.4944,-5.3911,-5.3911,-5.2294,-5.13,-5.13,-5.13,-5.0872,-4.9937,-4.9196,-4.8358,-4.7404,-4.6605,-4.6196,-4.6196,-4.6196,-4.6196,-4.6196,-4.6196,-4.6196,-5.9795,-6.1062,-6.1568,-6.1373,-5.7847,-5.3736,-5.1106,0.0,0.0,-4.152,-4.1344,-4.1987,-4.3344,-4.3877,-4.4695,0.0,0.0,0.0,0.0,0.0,0.0,0.0,0.0,0.0,0.0,0.0,-6.1607,-6.1607,-6.1607,-6.1607,-6.1607,-6.1607,-6.1607,-6.1607,-6.1607,-6.1607,-6.1607,-6.1607,-6.1607,-6.1607,-6.1607,-6.1607,-6.1607,-6.1607,-6.1607,-6.1607,-6.1607,-6.1607,-6.1607,-6.1607,-6.1607,-6.1607,-6.1607,-6.1607,-6.1607,-6.1607,-6.1607,-6.151,-6.1003,-6.0828,-6.073,-6.0204,-5.9795,-5.9542,-5.9737,-6.0263,-6.0828,-6.0828,-6.1198,-6.1607,-6.1607,-6.1607,-6.1607,-6.1607,-6.1607,-6.1607,-6.1607,-6.1198,-6.0828,-6.0828,-5.9406,-5.8217,-5.8217,-5.7262,-5.6503,-5.6503,-5.6503,-5.6503,-5.6503,-5.6503,-5.6503,-5.6503,-5.5411,-5.4476,-5.395,-5.2781,-5.1865,-5.1339,-5.13,-5.0911,-5.0034,-4.9235,-4.8397,-4.7521,-4.6644,-4.6196,-4.6196,-4.6196,-4.6196,-4.6196,-4.6196,-4.6196,-5.6308,-5.8743,-6.0302,-5.9678,-5.6308,-5.2528,0.0,0.0,0.0,-4.1383,-4.1286,-4.189,-4.3325,-4.3819,-4.4462,-4.5962,0.0,-4.68,0.0,0.0,0.0,0.0,0.0,0.0,0.0,0.0,-6.1607,-6.1607,-6.1607,-6.1607,-6.1607,-6.1607,-6.1607,-6.1607,-6.1607,-6.1607,-6.1607,-6.1607,-6.1607,-6.1607,-6.1607,-6.1607,-6.1607,-6.1607,-6.1607,-6.1607,-6.1607,-6.1607,-6.1607,-6.1607,-6.1451,-6.1218,-6.1218,-6.1062,-6.0867,-6.112,-6.1218,-6.1159,-6.0808,-6.0516,-6.0204,-5.9581,-5.9035,-5.8724,-5.9347,-5.9717,-5.9971,-6.0224,-6.0925,-6.1607,-6.1607,-6.1607,-6.1607,-6.1607,-6.1607,-6.1607,-6.1607,-6.112,-6.0672,-6.0672,-5.9269,-5.8081,-5.8081,-5.7204,-5.6503,-5.6503,-5.6503,-5.6503,-5.6503,-5.6503,-5.6503,-5.6503,-5.5957,-5.5139,-5.4009,-5.3093,-5.2236,-5.1359,-5.13,-5.1028,-5.0404,-4.9352,-4.8514,-4.7891,-4.678,-4.6196,-4.6196,-4.6196,-4.6196,-4.6196,-4.6196,-4.6196,-5.2197,-5.5158,-5.773,-5.773,-5.4496,-5.0891,0.0,0.0,-4.2085,-4.1266,-4.1734,-4.2572,-4.3442,-4.4306,-4.5163,-4.6059,-4.6196,0.0,0.0,0.0,0.0,0.0,0.0,0.0,0.0,0.0,-6.1607,-6.1607,-6.1607,-6.1607,-6.1607,-6.1607,-6.1607,-6.1607,-6.1607,-6.1607,-6.1607,-6.1607,-6.1607,-6.1607,-6.1607,-6.1607,-6.1607,-6.1607,-6.1607,-6.1607,-6.1607,-6.1607,-6.1607,-6.1607,-6.1081,-6.0302,-6.0302,-5.9795,-5.9133,-5.999,-6.0302,-6.0438,-6.1295,-6.1023,-6.0302,-6.0282,-5.9113,-5.7711,-5.7711,-5.8334,-5.9191,-6.0068,-6.0925,-6.1607,-6.1607,-6.1607,-6.1607,-6.1607,-6.1607,-6.1607,-6.1607,-6.1588,-6.1588,-6.1588,-6.0185,-5.8996,-5.8996,-5.7594,-5.6503,-5.6503,-5.6503,-5.6503,-5.6503,-5.6503,-5.6503,-5.6503,-5.6483,-5.5782,-5.4048,-5.3093,-5.2236,-5.1359,-5.13,-5.13,-5.13,-4.9683,-4.8806,-4.8787,-4.7072,-4.6196,-4.6196,-4.6196,-4.6196,-4.6196,-4.6196,-4.6196,-4.8475,-5.1183,-5.3171,-5.2586,-5.056,-4.8241,-4.6527,0.0,-4.2065,-4.1266,-4.1305,-4.1909,-4.3344,-4.3838,-4.4481,-4.5962,-4.6196,0.0,0.0,0.0,0.0,0.0,0.0,0.0,0.0,0.0,-6.1607,-6.1607,-6.1607,-6.1607,-6.1607,-6.1607,-6.1607,-6.1607,-6.1607,-6.1607,-6.1607,-6.1607,-6.1607,-6.1607,-6.1607,-6.1607,-6.1607,-6.1607,-6.1607,-6.1607,-6.1607,-6.1607,-6.1607,-6.1607,-6.1432,-6.112,-6.0536,-6.0126,-5.9854,-5.9522,-5.9406,-5.9367,-5.9055,-5.8743,-5.8509,-5.8509,-5.7769,-5.697,-5.7535,-5.7886,-5.8412,-5.9893,-6.0925,-6.1607,-6.1607,-6.1607,-6.1607,-6.1607,-6.1607,-6.1607,-6.1607,-6.112,-6.0886,-6.1471,-6.0185,-5.8996,-5.8996,-5.8061,-5.7126,-5.658,-5.6503,-5.6503,-5.6503,-5.6503,-5.6503,-5.6503,-5.6503,-5.6035,-5.4885,-5.3989,-5.3112,-5.2236,-5.1632,-5.13,-5.13,-5.0229,-4.9352,-4.8806,-4.7676,-4.68,-4.6196,-4.6196,-4.6196,-4.6196,-4.6196,-4.6196,0.0,-4.7423,-4.9313,-4.9118,-4.7774,0.0,0.0,0.0,-4.1714,-4.1208,-4.111,-4.1617,-4.3286,-4.3598,-4.4169,-4.5923,-4.6196,0.0,0.0,0.0,0.0,0.0,0.0,0.0,0.0,-6.1218,-6.1607,-6.1607,-6.1607,-6.1607,-6.1607,-6.1607,-6.1607,-6.1607,-6.1607,-6.1607,-6.1607,-6.1607,-6.1607,-6.1607,-6.1607,-6.1607,-6.1607,-6.1607,-6.1607,-6.1607,-6.1607,-6.1412,0.0,-6.1101,-6.0711,-6.0068,-5.9522,-5.9133,-5.8841,-5.8607,-5.8509,-5.847,-5.8256,-5.7983,-5.7691,-5.7691,-5.7165,-5.658,-5.7107,-5.7691,-5.8412,-5.9503,-6.0672,-6.1607,-6.1607,-6.1607,-6.1607,-6.1607,-6.1607,-6.1607,-6.1607,-6.1179,-6.0847,-6.1062,-5.9971,-5.8899,-5.8568,-5.7808,-5.7068,-5.658,-5.6503,-5.6503,-5.6503,-5.6503,-5.6503,-5.6503,-5.6503,-5.6269,-5.5743,-5.4593,-5.3541,-5.2664,-5.1787,-5.13,-5.13,-5.0463,-4.9625,-4.8826,-4.793,-4.7072,-4.6196,-4.6196,-4.6196,-4.6196,-4.6196,-4.6196,0.0,0.0,0.0,0.0,0.0,0.0,0.0,0.0,0.0,-4.111,-4.1149,-4.1675,-4.3305,-4.3663,-4.4247,-4.5923,-4.6196,0.0,0.0,0.0,0.0,0.0,0.0,0.0,-5.8918,-6.0575,-6.1607,-6.1607,-6.1607,-6.1607,-6.1607,-6.1607,-6.1607,-6.1607,-6.1607,-6.1607,-6.1607,-6.1607,-6.1607,-6.1607,-6.1607,-6.1607,-6.1607,-6.1607,-6.1607,-6.1607,-6.1607,-6.1101,-6.0302,-6.0302,-5.9308,-5.7788,-5.7711,-5.7243,-5.6658,-5.736,-5.7613,-5.773,-5.8529,-5.8295,-5.7613,-5.7613,-5.7107,-5.6503,-5.6503,-5.7672,-5.8996,-5.8996,-6.0263,-6.1607,-6.1607,-6.1607,-6.1607,-6.1607,-6.1607,-6.1607,-6.1607,-6.1549,-6.1276,-6.0458,-5.96,-5.8724,-5.7847,-5.7068,-5.6561,-5.6503,-5.6503,-5.6503,-5.6503,-5.6503,-5.6503,-5.6503,-5.6503,-5.6503,-5.6503,-5.4963,-5.3619,-5.2742,-5.1865,-5.1359,-5.13,-5.0521,-4.9703,-4.8904,-4.7969,-4.7072,-4.6196,-4.6196,-4.6196,-4.6196,-4.6196,-4.6196,-3.8987,0.0,-4.152,-4.2396,-4.2299,0.0,0.0,0.0,0.0,0.0,0.0,0.0,0.0,-4.415,-4.4949,0.0,0.0,0.0,0.0,0.0,0.0,0.0,0.0,0.0,-5.9113,-6.0575,-6.1607,-6.1607,-6.1607,-6.1607,-6.1607,-6.1607,-6.1607,-6.1607,-6.1607,-6.1607,-6.1607,-6.1607,-6.1607,-6.1607,-6.1607,-6.1607,-6.1607,-6.1607,-6.1607,-6.1607,-6.1607,-6.1101,-6.0302,-6.0302,-5.9659,-5.8626,-5.7964,-5.7574,-5.736,-5.6931,-5.6775,-5.6814,-5.7009,-5.6951,-5.6775,-5.6775,-5.6639,-5.6503,-5.6503,-5.7672,-5.8996,-5.8996,-6.0263,-6.1607,-6.1607,-6.1607,-6.1607,-6.1607,-6.1607,-6.1607,-6.1607,-6.1081,-6.0536,-6.0341,-5.96,-5.8724,-5.7847,-5.7535,-5.7204,-5.658,-5.6503,-5.6503,-5.6503,-5.6503,-5.6503,-5.6503,-5.6503,-5.6503,-5.6503,-5.5509,-5.4515,-5.3658,-5.2781,-5.2002,-5.1339,-5.1106,-5.0599,-4.9722,-4.8261,-4.7072,-4.6196,-4.6196,-4.6196,-4.6196,-4.6196,-4.6196,-3.8266,-3.9143,-4.0019,-4.0877,-4.111,-4.111,0.0,0.0,0.0,0.0,0.0,0.0,0.0,0.0,0.0,0.0,0.0,0.0,0.0,0.0,0.0,0.0,0.0,-6.0341,0.0,-6.1042,-6.1607,-6.1607,-6.1607,-6.1607,-6.1607,-6.1607,-6.1607,-6.1607,-6.1607,-6.1607,-6.1607,-6.1607,-6.1607,-6.1607,-6.1607,-6.1607,-6.1588,-6.1198,-6.1003,-6.0984,-6.0575,-5.9912,-5.9113,-5.9113,-5.8607,-5.7808,-5.7321,-5.7145,-5.7107,-5.6658,-5.6503,-5.6503,-5.6503,-5.6503,-5.6503,-5.6503,-5.6503,-5.6503,-5.6503,-5.7379,-5.849,-5.888,-5.9971,-6.1101,-6.149,-6.1607,-6.1607,-6.1607,-6.1607,-6.149,-6.1081,-6.0633,-6.0068,-5.925,-5.8724,-5.8139,-5.7282,-5.7145,-5.699,-5.6561,-5.6503,-5.6503,-5.6503,-5.6503,-5.6503,-5.6503,-5.6503,-5.6503,-5.6503,-5.6074,-5.5411,-5.4554,-5.3307,-5.2391,-5.1924,-5.1515,-5.0891,-5.0014,-4.8748,-4.7852,-4.7384,-4.6995,-4.68,-4.678,-4.6391,-4.6196,-3.8458,-3.9427,-4.0331,-4.0955,-4.111,-4.111,0.0,0.0,0.0,0.0,0.0,0.0,0.0,0.0,0.0,0.0,0.0,0.0,0.0,0.0,0.0,0.0,0.0,0.0,-6.1081,-6.1432,-6.1607,-6.1607,-6.1607,-6.1607,-6.1607,-6.1607,-6.1607,-6.1607,-6.1607,-6.1607,-6.1607,-6.1607,-6.1607,-6.1607,-6.1607,-6.1529,-6.1373,-6.0633,-6.0224,-6.0068,-5.9328,-5.8509,-5.7691,-5.7691,-5.7223,-5.6503,-5.6503,-5.6503,-5.6503,-5.6503,-5.6503,-5.6503,-5.6503,-5.6503,-5.6503,-5.6503,-5.6503,-5.6503,-5.6503,-5.697,-5.7691,-5.8548,-5.9425,-6.0263,-6.1003,-6.1198,-6.1198,-6.1198,-6.1198,-6.1003,-6.0263,-5.999,-5.9464,-5.7983,-5.7594,-5.7301,-5.6619,-5.6503,-5.6503,-5.6503,-5.6503,-5.6503,-5.6503,-5.6503,-5.6503,-5.6503,-5.6503,-5.6503,-5.6503,-5.6386,-5.6035,-5.545,-5.3755,-5.2684,-5.2411,-5.169,-5.0891,-5.0014,-4.9333,-4.8923,-4.8806,-4.793,-4.7501,-4.7482,-4.6605,-4.6196,-3.9359,-4.0734,-4.1773,-4.1247,-4.111,-4.111,0.0,0.0,0.0,0.0,0.0,0.0,0.0,0.0,0.0,0.0,0.0,0.0,0.0,0.0,0.0,0.0,0.0,-6.073,-5.9522,-6.073,-6.1607,-6.1607,-6.1607,-6.1607,-6.1607,-6.1607,-6.1607,-6.1607,-6.1607,-6.1607,-6.1607,-6.1607,-6.1607,-6.1607,-6.1607,-6.1218,-6.0497,-6.036,-5.9893,-5.9191,-5.9055,-5.8509,-5.7691,-5.7691,-5.7223,-5.6503,-5.6503,-5.6503,-5.6503,-5.6503,-5.6503,-5.6503,-5.6503,-5.6503,-5.6503,-5.6503,-5.6503,-5.6503,-5.6503,-5.658,-5.6853,-5.7672,-5.8529,-5.923,-5.9367,-5.9406,-5.9406,-5.9406,-5.9406,-5.9367,-5.923,-5.8626,-5.8022,-5.7749,-5.7145,-5.6639,-5.6522,-5.6503,-5.6503,-5.6503,-5.6503,-5.6503,-5.6503,-5.6503,-5.6503,-5.6503,-5.6503,-5.6503,-5.6503,-5.5821,-5.5665,-5.6249,-5.4652,-5.3034,-5.1554,-5.1378,-5.0891,-5.0014,-4.9878,-4.9488,-4.8806,-4.793,-4.7501,-4.7482,-4.6605,-4.6196,-3.9566,-4.0672,-4.1631,-4.1768,-4.2128,-4.2338,0.0,0.0,0.0,0.0,0.0,0.0,0.0,0.0,0.0,0.0,0.0,0.0,0.0,0.0,-5.623,0.0,0.0,-6.0243,-6.038,-6.112,-6.1607,-6.1607,-6.1607,-6.1607,-6.1607,-6.1607,-6.1373,-6.0906,-6.0906,-6.0672,-6.0204,-6.0204,-6.0438,-6.0886,-6.0419,-5.999,-5.9581,-5.9113,-5.8685,-5.8276,-5.7847,-5.7418,-5.7048,-5.7048,-5.6834,-5.6503,-5.6503,-5.6503,-5.6503,-5.6503,-5.6503,-5.6503,-5.6503,-5.6503,-5.6503,-5.6503,-5.6503,-5.6503,-5.6503,-5.6503,-5.658,-5.6951,-5.7652,-5.8412,-5.888,-5.8996,-5.8996,-5.8996,-5.8996,-5.886,-5.8392,-5.7983,-5.7574,-5.7145,-5.6756,-5.6503,-5.6503,-5.6503,-5.6503,-5.6503,-5.6503,-5.6503,-5.6503,-5.6503,-5.6503,-5.6503,-5.6503,-5.6503,-5.6503,-5.5704,-5.5178,-5.51,-5.434,-5.3327,-5.206,-5.1554,-5.1106,-5.0716,-5.0696,-5.0521,-5.0151,-4.9274,-4.8845,-4.8826,-4.7501,-4.6897,-3.9863,-4.0683,-4.1426,-4.1949,0.0,0.0,0.0,0.0,0.0,0.0,0.0,0.0,0.0,0.0,0.0,0.0,0.0,0.0,0.0,-5.584,-5.6951,-5.8431,-5.9191,-6.0126,-6.1471,-6.1607,-6.151,-6.1315,-6.1471,-6.1412,-6.1003,-6.1179,-6.0906,-6.001,-5.999,-5.9678,-5.9016,-5.8802,-5.9133,-5.999,-5.9328,-5.888,-5.8665,-5.8003,-5.7594,-5.7379,-5.6775,-5.6503,-5.6503,-5.6503,-5.6503,-5.6503,-5.6503,-5.6503,-5.6503,-5.6503,-5.6503,-5.6503,-5.6503,-5.6503,-5.6503,-5.6503,-5.6503,-5.6503,-5.6503,-5.6503,-5.6503,-5.6503,-5.6931,-5.7574,-5.8237,-5.8412,-5.8412,-5.8412,-5.8412,-5.8237,-5.7555,-5.7418,-5.7243,-5.6619,-5.6503,-5.6503,-5.6503,-5.6503,-5.6503,-5.6503,-5.6503,-5.6503,-5.6503,-5.6503,-5.6503,-5.6503,-5.6503,-5.6425,-5.621,-5.5587,-5.4827,-5.397,-5.3716,-5.321,-5.2333,-5.1651,-5.13,-5.13,-5.13,-5.13,-5.13,-5.0424,-4.9995,-4.9956,-4.8495,-4.7793,-4.0754,-4.1582,-4.2025,-4.1286,0.0,0.0,-4.4367,0.0,0.0,0.0,0.0,0.0,0.0,0.0,0.0,0.0,0.0,0.0,-5.8295,0.0,-6.0282,-6.1218,-6.1373,-6.1451,-6.1588,-6.1607,-6.1257,-6.0458,-6.114,-6.0886,-5.9269,-5.9951,-5.999,-5.9113,-5.9094,-5.9055,-5.8996,-5.8198,-5.8237,-5.9094,-5.9035,-5.8587,-5.7788,-5.773,-5.7282,-5.658,-5.6522,-5.6503,-5.6503,-5.6503,-5.6503,-5.6503,-5.6503,-5.6503,-5.6503,-5.6503,-5.6503,-5.6503,-5.6503,-5.6503,-5.6503,-5.6503,-5.6503,-5.6503,-5.6503,-5.6503,-5.6503,-5.6503,-5.6541,-5.66,-5.6658,-5.6678,-5.6678,-5.6678,-5.6678,-5.6658,-5.66,-5.658,-5.6561,-5.6503,-5.6503,-5.6503,-5.6503,-5.6503,-5.6503,-5.6503,-5.6503,-5.6503,-5.6503,-5.6503,-5.6503,-5.6503,-5.6503,-5.6171,-5.5353,-5.5236,-5.4827,-5.397,-5.3151,-5.2294,-5.1437,-5.1339,-5.13,-5.13,-5.13,-5.13,-5.13,-5.0424,-4.9995,-4.9976,-4.9118,-4.8709,-4.0791,-4.1252,-4.155,-4.1753,0.0,0.0,0.0,0.0,0.0,0.0,0.0,0.0,0.0,0.0,0.0,0.0,0.0,-5.7282,-5.8782,-5.9756,-6.0419,-6.075,-6.0302,-6.0204,-6.073,-6.0302,-5.9854,-5.9522,-5.9795,-5.9698,-5.9035,-5.9308,-5.9094,-5.8217,-5.8178,-5.7944,-5.7438,-5.7126,-5.7126,-5.7438,-5.7438,-5.7262,-5.6951,-5.6951,-5.6795,-5.6503,-5.6503,-5.6503,-5.6503,-5.6503,-5.6503,-5.6503,-5.6503,-5.6503,-5.6503,-5.6503,-5.6503,-5.6503,-5.6503,-5.6503,-5.6503,-5.6503,-5.6503,-5.6503,-5.6503,-5.6503,-5.6503,-5.6503,-5.6503,-5.6503,-5.6503,-5.6503,-5.6503,-5.6503,-5.6503,-5.6503,-5.6503,-5.6503,-5.6503,-5.6503,-5.6503,-5.6503,-5.6503,-5.6503,-5.6503,-5.6503,-5.6503,-5.6503,-5.6503,-5.6503,-5.6503,-5.6503,-5.6503,-5.6152,-5.5275,-5.5197,-5.4593,-5.319,-5.2781,-5.245,-5.2119,-5.1593,-5.13,-5.13,-5.13,-5.13,-5.13,-5.0969,-5.0813,-5.0794,-4.9937,-4.9547,-4.0766,-4.0992,-4.1203,0.0,0.0,0.0,0.0,0.0,0.0,0.0,0.0,0.0,0.0,0.0,0.0,0.0,-5.5876,-5.7942,-5.8538,-5.9356,-5.9893,-5.9893,-5.9367,-5.923,-5.9834,-5.9347,-5.888,-5.8607,-5.8841,-5.8763,-5.8237,-5.8451,-5.8198,-5.734,-5.7321,-5.7048,-5.6503,-5.6503,-5.6503,-5.6503,-5.621,-5.623,-5.6503,-5.6503,-5.6503,-5.6503,-5.6503,-5.6503,-5.6503,-5.6503,-5.6503,-5.6503,-5.6503,-5.6503,-5.6503,-5.6503,-5.6503,-5.6503,-5.6503,-5.6503,-5.6503,-5.6503,-5.6503,-5.6503,-5.6503,-5.6503,-5.6503,-5.6503,-5.6503,-5.6503,-5.6503,-5.6503,-5.6503,-5.6503,-5.6503,-5.6503,-5.6503,-5.6503,-5.6503,-5.6503,-5.6503,-5.6503,-5.6503,-5.6503,-5.6503,-5.6503,-5.6503,-5.6503,-5.6503,-5.6503,-5.6503,-5.6503,-5.6503,-5.6249,-5.5665,-5.5353,-5.4574,-5.3093,-5.2742,-5.2489,-5.2197,-5.1612,-5.13,-5.13,-5.13,-5.13,-5.13,-5.13,-5.13,-5.13,-5.0696,-5.0404,-4.0774,-4.0998,0.0,0.0,0.0,0.0,0.0,0.0,0.0,0.0,0.0,0.0,0.0,0.0,0.0,-5.2486,-5.5516,-5.7783,-5.7783,-5.8488,-5.8996,-5.8996,-5.8977,-5.8977,-5.8996,-5.8977,-5.8626,-5.7749,-5.847,-5.8237,-5.658,-5.7243,-5.7301,-5.6503,-5.6483,-5.6483,-5.6483,-5.6483,-5.6483,-5.6464,-5.5606,-5.5645,-5.6483,-5.6483,-5.6483,-5.6483,-5.6483,-5.6483,-5.6483,-5.6483,-5.6483,-5.6483,-5.6483,-5.6483,-5.6483,-5.6483,-5.6483,-5.6503,-5.6503,-5.6503,-5.6503,-5.6483,-5.6483,-5.6483,-5.6483,-5.6483,-5.6483,-5.6483,-5.6483,-5.6503,-5.6503,-5.6503,-5.6503,-5.6503,-5.6503,-5.6503,-5.6503,-5.6503,-5.6503,-5.6503,-5.6503,-5.6503,-5.6503,-5.6503,-5.6503,-5.6503,-5.6503,-5.6503,-5.6503,-5.6503,-5.6503,-5.6503,-5.6503,-5.6503,-5.6503,-5.5704,-5.4827,-5.397,-5.3073,-5.2216,-5.1339,-5.13,-5.13,-5.13,-5.13,-5.13,-5.13,-5.13,-5.13,-5.13,-5.13,-5.13,-4.0928,0.0,0.0,0.0,0.0,0.0,0.0,0.0,0.0,0.0,0.0,0.0,0.0,0.0,0.0,-5.3481,-5.5418,-5.6886,-5.6886,-5.7591,-5.8081,-5.8081,-5.7594,-5.7457,-5.8022,-5.7574,-5.7126,-5.6873,-5.6522,-5.6113,-5.5606,-5.5821,-5.5548,-5.471,-5.5275,-5.5295,-5.4671,-5.4671,-5.4671,-5.4671,-5.4418,-5.4749,-5.5567,-5.4944,-5.4671,-5.4671,-5.4671,-5.4671,-5.4671,-5.4671,-5.4671,-5.4671,-5.4671,-5.5041,-5.5587,-5.5587,-5.5976,-5.6503,-5.6503,-5.6503,-5.6405,-5.5782,-5.5587,-5.547,-5.4866,-5.51,-5.5587,-5.5587,-5.6035,-5.6503,-5.6503,-5.6503,-5.6503,-5.6503,-5.6503,-5.6503,-5.6503,-5.6503,-5.6503,-5.6503,-5.6503,-5.6503,-5.6503,-5.6503,-5.6503,-5.6503,-5.6503,-5.6503,-5.6503,-5.6503,-5.6503,-5.6503,-5.6503,-5.6503,-5.6503,-5.5704,-5.4827,-5.397,-5.3073,-5.2216,-5.1339,-5.13,-5.13,-5.13,-5.13,-5.13,-5.13,-5.13,-5.13,-5.13,-5.13,-5.13,-4.0961,0.0,0.0,0.0,0.0,0.0,0.0,0.0,0.0,0.0,0.0,0.0,-5.4267,-5.4156,0.0,-5.3897,-5.5367,-5.6386,-5.6028,-5.6695,-5.7223,-5.7223,-5.6795,-5.6541,-5.6697,-5.6269,-5.5848,-5.5486,-5.4983,-5.4671,-5.4679,-5.4671,-5.4437,-5.3931,-5.4418,-5.4437,-5.3911,-5.3911,-5.3911,-5.3911,-5.356,-5.3658,-5.4164,-5.3989,-5.3911,-5.3911,-5.3911,-5.3911,-5.3911,-5.3911,-5.3911,-5.3911,-5.3911,-5.4223,-5.4691,-5.4691,-5.5022,-5.547,-5.547,-5.547,-5.5372,-5.4846,-5.4691,-5.4652,-5.4476,-5.4788,-5.5275,-5.5626,-5.6093,-5.6503,-5.6503,-5.6503,-5.6503,-5.6503,-5.6503,-5.6503,-5.6503,-5.6503,-5.6503,-5.6503,-5.6503,-5.6503,-5.6503,-5.6503,-5.6503,-5.6503,-5.6503,-5.6503,-5.6503,-5.6503,-5.6503,-5.6503,-5.6503,-5.6503,-5.6503,-5.5704,-5.4827,-5.397,-5.3073,-5.2216,-5.1339,-5.13,-5.13,-5.13,-5.13,-5.13,-5.13,-5.13,-5.13,-5.13,-5.13,-5.1106,0.0,0.0,0.0,0.0,0.0,0.0,0.0,0.0,0.0,0.0,0.0,0.0,-5.495,-5.4479,-5.3982,-5.3916,-5.5237,-5.5991,-5.519,-5.5759,-5.6249,-5.6249,-5.6249,-5.5957,-5.5158,-5.508,-5.4757,-5.3954,-5.3822,-5.3783,-5.3779,-5.3783,-5.3755,-5.3677,-5.3736,-5.3736,-5.3658,-5.3658,-5.3658,-5.3658,-5.2859,-5.2489,-5.2508,-5.3307,-5.3658,-5.3658,-5.3658,-5.3658,-5.3658,-5.3658,-5.3658,-5.3658,-5.3658,-5.3716,-5.3775,-5.3775,-5.3833,-5.3911,-5.3911,-5.3911,-5.3892,-5.3814,-5.3775,-5.3911,-5.4632,-5.4905,-5.5139,-5.5918,-5.6249,-5.6386,-5.6386,-5.6444,-5.6503,-5.6503,-5.6503,-5.6503,-5.6503,-5.6503,-5.6503,-5.6503,-5.6503,-5.6503,-5.6503,-5.6503,-5.6503,-5.6503,-5.6503,-5.6503,-5.6503,-5.6503,-5.6503,-5.6503,-5.6503,-5.6503,-5.6503,-5.5626,-5.4749,-5.395,-5.3015,-5.2138,-5.1339,-5.13,-5.13,-5.13,-5.13,-5.13,-5.13,-5.13,-5.1261,-5.1183,-5.1183,-5.0716,0.0,0.0,0.0,0.0,0.0,0.0,0.0,0.0,0.0,0.0,0.0,-5.4045,-5.422,-5.4118,-5.4006,-5.3972,-5.4254,-5.4392,-5.4215,-5.4336,-5.4457,-5.4457,-5.4457,-5.4398,-5.4203,-5.4184,-5.4106,-5.3919,-5.3268,-5.2879,-5.2887,-5.2879,-5.2567,-5.1885,-5.2528,-5.2547,-5.1865,-5.1865,-5.1865,-5.1865,-5.1671,-5.1573,-5.1593,-5.1768,-5.1865,-5.1865,-5.1865,-5.1865,-5.1865,-5.1865,-5.1865,-5.1865,-5.1865,-5.2275,-5.2879,-5.2879,-5.3307,-5.3911,-5.3911,-5.3911,-5.3794,-5.3093,-5.2879,-5.2801,-5.2294,-5.2625,-5.321,-5.3385,-5.4418,-5.5489,-5.5489,-5.5996,-5.6503,-5.6503,-5.6503,-5.6503,-5.6503,-5.6503,-5.6503,-5.6503,-5.6503,-5.6503,-5.6503,-5.6503,-5.6503,-5.6503,-5.6503,-5.6503,-5.6503,-5.6503,-5.6503,-5.6503,-5.6503,-5.6503,-5.6503,-5.5061,-5.4106,-5.3911,-5.245,-5.1495,-5.132,-5.13,-5.13,-5.13,-5.13,-5.13,-5.13,-5.13,-5.095,-5.0287,-5.0287,-4.9839,0.0,0.0,0.0,0.0,0.0,0.0,0.0,0.0,0.0,0.0,0.0,-5.4006,-5.4001,-5.4006,-5.3869,-5.344,-5.3663,-5.3748,-5.335,-5.3646,-5.3911,-5.3911,-5.3911,-5.3736,-5.3327,-5.3288,-5.312,-5.2726,-5.1873,-5.1367,-5.1408,-5.1016,-5.0579,-5.0112,-5.0541,-5.056,-5.0112,-5.0092,-5.0092,-5.0092,-5.0092,-5.0092,-5.0131,-5.093,-5.13,-5.13,-5.13,-5.13,-5.13,-5.13,-5.13,-5.13,-5.13,-5.1573,-5.1982,-5.1982,-5.2275,-5.2664,-5.2664,-5.2664,-5.2586,-5.2138,-5.1982,-5.1963,-5.1924,-5.2236,-5.2684,-5.3093,-5.3892,-5.4574,-5.4574,-5.5217,-5.5879,-5.5879,-5.6191,-5.6503,-5.6503,-5.6503,-5.6503,-5.6503,-5.6503,-5.6503,-5.6503,-5.6503,-5.6503,-5.6503,-5.6503,-5.6503,-5.6503,-5.6503,-5.6503,-5.6503,-5.6503,-5.6503,-5.6503,-5.5275,-5.4515,-5.4515,-5.3288,-5.2353,-5.1943,-5.1924,-5.1729,-5.132,-5.13,-5.13,-5.13,-5.13,-5.0852,-4.9995,-4.9995,-4.9352,0.0,0.0,0.0,0.0,0.0,0.0,0.0,0.0,0.0,0.0,-5.1219,-5.3327,-5.3327,-5.3444,-5.3318,-5.2595,-5.3039,-5.3215,-5.2477,-5.2995,-5.3405,-5.3249,-5.3229,-5.2898,-5.2041,-5.1943,-5.1666,-5.0992,-5.0231,-4.9815,-4.9867,-4.9198,-4.8806,-4.8806,-4.8806,-4.8806,-4.8806,-4.8806,-4.8806,-4.8806,-4.8806,-4.8806,-4.8845,-5.0248,-5.0872,-5.0872,-5.0872,-5.0872,-5.0872,-5.1028,-5.1086,-5.1086,-5.1242,-5.13,-5.13,-5.13,-5.13,-5.13,-5.13,-5.13,-5.13,-5.13,-5.13,-5.1437,-5.2158,-5.2372,-5.2528,-5.3249,-5.356,-5.3677,-5.3677,-5.4437,-5.5197,-5.5197,-5.5879,-5.6503,-5.6503,-5.6503,-5.6503,-5.6503,-5.6503,-5.6503,-5.6503,-5.6503,-5.6503,-5.6503,-5.6503,-5.6503,-5.6503,-5.6366,-5.6269,-5.6269,-5.6269,-5.621,-5.6054,-5.5392,-5.4983,-5.4983,-5.4164,-5.3346,-5.2625,-5.2606,-5.2197,-5.132,-5.13,-5.13,-5.13,-5.13,-5.0852,-4.9995,-4.9859,-4.8962,0.0,0.0,0.0,0.0,0.0,0.0,0.0,0.0,0.0,0.0,-4.9774,-5.0614,-5.0614,-5.1238,-5.1703,-5.1591,-5.1659,-5.1661,-5.1505,-5.1561,-5.1378,-5.0618,-5.0521,-5.0209,-4.9391,-4.9313,-4.9255,-4.9165,-4.9028,-4.8962,-4.897,-4.8872,-4.8806,-4.8806,-4.8806,-4.8806,-4.8806,-4.8806,-4.8806,-4.8806,-4.8806,-4.8806,-4.8806,-4.9021,-4.9138,-4.9138,-4.9138,-4.9138,-4.9196,-4.9898,-5.017,-5.0248,-5.1008,-5.13,-5.13,-5.13,-5.13,-5.13,-5.13,-5.13,-5.13,-5.13,-5.13,-5.132,-5.1437,-5.1476,-5.1495,-5.1612,-5.2197,-5.2781,-5.2781,-5.3989,-5.5197,-5.5197,-5.5879,-5.6503,-5.6503,-5.6503,-5.6503,-5.6503,-5.6503,-5.6503,-5.6503,-5.6503,-5.6503,-5.6503,-5.6503,-5.6503,-5.6503,-5.584,-5.5372,-5.5372,-5.5372,-5.508,-5.432,-5.4145,-5.4067,-5.4067,-5.3268,-5.2723,-5.2606,-5.2606,-5.2197,-5.132,-5.13,-5.13,-5.13,-5.13,-5.0852,-4.9976,-4.9274,-4.8436,0.0,0.0,0.0,0.0,0.0,0.0,0.0,0.0,0.0,-4.7393,-4.8096,-4.8837,-4.9286,-4.9677,-4.9946,-4.9933,-4.9947,-4.9931,-4.9894,-4.99,-4.9756,-4.9372,-4.9333,-4.9196,-4.8826,-4.8806,-4.8794,-4.8801,-4.8346,-4.8073,-4.8061,-4.7606,-4.7345,-4.7345,-4.7345,-4.7345,-4.7345,-4.7345,-4.7345,-4.7345,-4.7345,-4.7345,-4.7345,-4.7345,-4.7871,-4.8806,-4.8806,-4.8806,-4.8826,-4.9177,-4.9333,-4.941,-5.0248,-5.0579,-5.0638,-5.1125,-5.13,-5.13,-5.13,-5.13,-5.13,-5.13,-5.13,-5.13,-5.13,-5.13,-5.13,-5.13,-5.1573,-5.1865,-5.1865,-5.3171,-5.4476,-5.4476,-5.5509,-5.6503,-5.6503,-5.6503,-5.6503,-5.6503,-5.6503,-5.6503,-5.6503,-5.6503,-5.6503,-5.6503,-5.6503,-5.6503,-5.6503,-5.6171,-5.5743,-5.5256,-5.5197,-5.4846,-5.397,-5.3911,-5.3911,-5.3911,-5.3541,-5.3112,-5.2625,-5.2606,-5.2197,-5.132,-5.13,-5.13,-5.13,-5.13,-5.0852,-4.9995,-4.9644,-4.8768,0.0,0.0,0.0,0.0,0.0,0.0,0.0,0.0,0.0,0.0,-4.6827,-4.7451,-4.8057,-4.8505,-4.8794,-4.8806,-4.8801,-4.8791,-4.8788,-4.8802,-4.8711,-4.8502,-4.8483,-4.8378,-4.8164,-4.8144,-4.8132,-4.8146,-4.7547,-4.7177,-4.7171,-4.6553,-4.6196,-4.6196,-4.6196,-4.6196,-4.6196,-4.6196,-4.6196,-4.6196,-4.6196,-4.6196,-4.6196,-4.6196,-4.6917,-4.8144,-4.8144,-4.8144,-4.8164,-4.8378,-4.8475,-4.8573,-4.9605,-4.9995,-5.0112,-5.0989,-5.13,-5.13,-5.13,-5.13,-5.13,-5.13,-5.13,-5.13,-5.13,-5.13,-5.13,-5.13,-5.13,-5.13,-5.13,-5.2586,-5.3911,-5.3911,-5.5236,-5.6503,-5.6503,-5.6503,-5.6503,-5.6503,-5.6503,-5.6503,-5.6503,-5.6503,-5.6503,-5.6503,-5.6503,-5.6503,-5.6503,-5.6308,-5.5918,-5.5275,-5.5197,-5.4768,-5.3658,-5.3775,-5.3814,-5.358,-5.358,-5.3385,-5.2957,-5.2723,-5.2294,-5.1632,-5.1417,-5.13,-5.13,-5.13,-5.0969,-5.0326,-5.0092,-4.9333,0.0,0.0,0.0,0.0,0.0,0.0,0.0,0.0,0.0,-4.6124,-4.6339,-4.6378,-4.6417,-4.7725,-4.8798,-4.8798,-4.8806,-4.8796,-4.8796,-4.8794,-4.8484,-4.7665,-4.7574,-4.7248,-4.641,-4.6332,-4.6332,-4.6332,-4.6293,-4.6274,-4.6274,-4.6215,-4.6196,-4.6196,-4.6196,-4.6196,-4.6196,-4.6196,-4.6196,-4.6196,-4.6196,-4.6196,-4.6196,-4.6196,-4.6254,-4.6332,-4.6332,-4.6332,-4.6391,-4.7228,-4.756,-4.7735,-4.9352,-4.9995,-5.0112,-5.0989,-5.13,-5.13,-5.13,-5.13,-5.13,-5.13,-5.13,-5.13,-5.13,-5.13,-5.13,-5.13,-5.13,-5.13,-5.13,-5.2586,-5.3911,-5.3911,-5.5236,-5.6503,-5.6503,-5.6503,-5.6503,-5.6503,-5.6503,-5.6503,-5.6503,-5.6503,-5.6503,-5.6503,-5.6503,-5.6503,-5.6503,-5.5782,-5.5256,-5.5197,-5.5197,-5.4515,-5.282,-5.3424,-5.356,-5.2723,-5.2664,-5.3015,-5.3794,-5.3034,-5.2586,-5.2528,-5.1729,-5.13,-5.13,-5.13,-5.1281,-5.1203,-5.0385,-4.9956,0.0,0.0,0.0,0.0,0.0,0.0,0.0,0.0,-4.509,-4.5402,-4.5909,-4.63,-4.63,-4.6788,-4.7198,-4.7198,-4.7194,-4.721,-4.7201,-4.7192,-4.7064,-4.6716,-4.6664,-4.6541,-4.6235,-4.6196,-4.6196,-4.6196,-4.6196,-4.6196,-4.6196,-4.6196,-4.6196,-4.6196,-4.6196,-4.6196,-4.6196,-4.6196,-4.6196,-4.6196,-4.6196,-4.6196,-4.6196,-4.6196,-4.6196,-4.6196,-4.6196,-4.6196,-4.6215,-4.6546,-4.6663,-4.678,-4.793,-4.8748,-4.9333,-5.0151,-5.0813,-5.13,-5.13,-5.13,-5.13,-5.13,-5.13,-5.13,-5.13,-5.13,-5.13,-5.13,-5.13,-5.13,-5.13,-5.2177,-5.321,-5.3775,-5.4807,-5.5509,-5.4944,-5.5704,-5.6503,-5.6503,-5.6503,-5.6503,-5.6503,-5.6503,-5.6503,-5.6503,-5.6503,-5.6503,-5.6503,-5.623,-5.5821,-5.5256,-5.471,-5.3892,-5.2703,-5.2372,-5.2333,-5.2586,-5.2606,-5.2995,-5.3853,-5.3599,-5.3424,-5.3424,-5.2586,-5.1865,-5.13,-5.13,-5.13,-5.13,-5.0989,-5.0521,0.0,0.0,0.0,0.0,0.0,0.0,0.0,0.0,-4.4641,-4.4933,-4.5695,-4.63,-4.63,-4.63,-4.63,-4.63,-4.63,-4.63,-4.6292,-4.6284,-4.6255,-4.6215,-4.6203,-4.619,-4.6196,-4.6196,-4.6196,-4.6196,-4.6196,-4.6196,-4.6196,-4.6196,-4.6196,-4.6196,-4.6196,-4.6196,-4.6196,-4.6196,-4.6196,-4.6196,-4.6196,-4.6196,-4.6196,-4.6196,-4.6196,-4.6196,-4.6196,-4.6196,-4.6196,-4.6196,-4.6196,-4.6293,-4.715,-4.7852,-4.8456,-4.9294,-4.9956,-5.0463,-5.0463,-5.0463,-5.0502,-5.0774,-5.0852,-5.093,-5.1203,-5.13,-5.13,-5.13,-5.13,-5.13,-5.13,-5.1943,-5.282,-5.3697,-5.434,-5.4613,-5.4028,-5.5275,-5.6405,-5.6113,-5.6288,-5.6503,-5.6503,-5.6503,-5.6503,-5.6503,-5.6249,-5.6054,-5.6054,-5.5801,-5.5528,-5.5236,-5.4418,-5.3677,-5.3093,-5.2236,-5.1982,-5.2567,-5.2606,-5.2995,-5.3853,-5.3619,-5.3599,-5.3892,-5.2762,-5.2021,-5.1749,-5.1437,-5.13,-5.13,-5.13,-5.0989,0.0,0.0,0.0,0.0,0.0,0.0,0.0,0.0,-4.3899,-4.4758,-4.5636,-4.6261,-4.6261,-4.628,-4.63,-4.63,-4.63,-4.63,-4.63,-4.6245,-4.6206,-4.6206,-4.6203,-4.6196,-4.6196,-4.6196,-4.6196,-4.6196,-4.6196,-4.6196,-4.6196,-4.6196,-4.6196,-4.6196,-4.6196,-4.6196,-4.6196,-4.6196,-4.6196,-4.6196,-4.6196,-4.6196,-4.6196,-4.6196,-4.6196,-4.6196,-4.6196,-4.6196,-4.6196,-4.6196,-4.6196,-4.6274,-4.7131,-4.7482,-4.7599,-4.8456,-4.8787,-4.8806,-4.8806,-4.8826,-4.8962,-4.9722,-4.9995,-5.019,-5.1008,-5.1281,-5.13,-5.13,-5.13,-5.13,-5.13,-5.1924,-5.2781,-5.3619,-5.3833,-5.3853,-5.3833,-5.5197,-5.6171,-5.5333,-5.584,-5.6425,-5.6425,-5.6425,-5.6425,-5.6425,-5.5704,-5.5178,-5.5197,-5.4457,-5.4281,-5.5158,-5.4457,-5.395,-5.395,-5.3112,-5.2625,-5.2664,-5.2625,-5.2995,-5.3911,-5.3132,-5.3054,-5.3892,-5.2236,-5.1787,-5.2606,-5.1729,-5.13,-5.13,-5.13,-5.13,-4.1108,0.0,0.0,0.0,0.0,0.0,0.0,0.0,-4.2825,-4.3079,-4.4309,-4.5363,-4.5363,-4.587,-4.63,-4.63,-4.63,-4.6296,-4.6292,-4.6284,-4.6255,-4.6215,-4.6203,-4.619,-4.6196,-4.6196,-4.6196,-4.6196,-4.6196,-4.6196,-4.6196,-4.6196,-4.6196,-4.6196,-4.6196,-4.6196,-4.6196,-4.6196,-4.6196,-4.6196,-4.6196,-4.6196,-4.6196,-4.6196,-4.6196,-4.6196,-4.6196,-4.6196,-4.6196,-4.6196,-4.6196,-4.6215,-4.6468,-4.6936,-4.7521,-4.7774,-4.8261,-4.8806,-4.8806,-4.9177,-4.9605,-4.9255,-4.9956,-5.0872,-5.0482,-5.0794,-5.13,-5.13,-5.13,-5.13,-5.13,-5.1476,-5.1729,-5.1963,-5.2508,-5.2801,-5.2158,-5.3385,-5.4554,-5.432,-5.4457,-5.4613,-5.4613,-5.4613,-5.4613,-5.4613,-5.4418,-5.4496,-5.5119,-5.5002,-5.5178,-5.6054,-5.5353,-5.4846,-5.4846,-5.3463,-5.3151,-5.4398,-5.3307,-5.3268,-5.4788,-5.4613,-5.4301,-5.3911,-5.3424,-5.2995,-5.2606,-5.1729,-5.13,-5.13,-5.13,-5.13,0.0,0.0,0.0,0.0,0.0,0.0,-4.1108,-4.1771,-4.2396,-4.2396,-4.3509,-4.4465,-4.4465,-4.4875,-4.5324,-4.5711,-4.5765,-4.5882,-4.6245,-4.6275,-4.6245,-4.6209,-4.6196,-4.6209,-4.6196,-4.6196,-4.6196,-4.6196,-4.6196,-4.6196,-4.6196,-4.6196,-4.6196,-4.6196,-4.6196,-4.6196,-4.6196,-4.6196,-4.6196,-4.6196,-4.6196,-4.6196,-4.6196,-4.6196,-4.6196,-4.6196,-4.6196,-4.6196,-4.6196,-4.6196,-4.6196,-4.6196,-4.6196,-4.6507,-4.6956,-4.6956,-4.7287,-4.7715,-4.7715,-4.8027,-4.8397,-4.828,-4.8923,-4.9742,-4.9937,-5.0346,-5.0833,-5.1203,-5.13,-5.13,-5.13,-5.13,-5.13,-5.13,-5.169,-5.1924,-5.1417,-5.2099,-5.2918,-5.3288,-5.3658,-5.3911,-5.3911,-5.3911,-5.4028,-5.4398,-5.3814,-5.3677,-5.4554,-5.4028,-5.3911,-5.4788,-5.4087,-5.3872,-5.4593,-5.3054,-5.2801,-5.4554,-5.3366,-5.3054,-5.4067,-5.4126,-5.3892,-5.3366,-5.2995,-5.2567,-5.206,-5.1554,-5.13,-5.13,-5.13,-5.13,0.0,0.0,0.0,0.0,-4.1108,0.0,-4.1108,-4.1693,-4.2259,-4.2259,-4.2942,-4.3567,-4.3567,-4.3626,-4.3954,-4.4723,-4.4933,-4.5284,-4.6162,-4.624,-4.6203,-4.6203,-4.6209,-4.6196,-4.6196,-4.6196,-4.6196,-4.6196,-4.6196,-4.6196,-4.6196,-4.6196,-4.6196,-4.6196,-4.6196,-4.6196,-4.6196,-4.6196,-4.6196,-4.6196,-4.6196,-4.6196,-4.6196,-4.6196,-4.6196,-4.6196,-4.6196,-4.6196,-4.6196,-4.6196,-4.6196,-4.6196,-4.6196,-4.6196,-4.6196,-4.6196,-4.6196,-4.6196,-4.6196,-4.6254,-4.6449,-4.7131,-4.7482,-4.791,-4.941,-4.9937,-5.019,-5.1047,-5.13,-5.13,-5.13,-5.13,-5.13,-5.13,-5.13,-5.13,-5.13,-5.13,-5.1534,-5.2314,-5.3073,-5.3619,-5.3619,-5.3619,-5.3872,-5.4652,-5.3444,-5.2781,-5.3638,-5.2411,-5.1787,-5.2645,-5.206,-5.2216,-5.3775,-5.2391,-5.2158,-5.3794,-5.2995,-5.2508,-5.2606,-5.2606,-5.2547,-5.2469,-5.169,-5.13,-5.13,-5.13,-5.13,-5.13,-5.13,-5.1242,0.0,0.0,0.0,0.0,-4.1108,0.0,-4.1108,-4.1225,-4.1342,-4.1342,-4.2045,-4.265,-4.265,-4.3235,-4.3759,-4.3923,-4.4499,-4.5231,-4.6098,-4.6209,-4.6196,-4.6203,-4.6203,-4.6196,-4.6196,-4.6196,-4.6196,-4.6196,-4.6196,-4.6196,-4.6196,-4.6196,-4.6196,-4.6196,-4.6196,-4.6196,-4.6196,-4.6196,-4.6196,-4.6196,-4.6196,-4.6196,-4.6196,-4.6196,-4.6196,-4.6196,-4.6196,-4.6196,-4.6196,-4.6196,-4.6196,-4.6196,-4.6196,-4.6196,-4.6196,-4.6196,-4.6196,-4.6196,-4.6196,-4.6663,-4.715,-4.6624,-4.7404,-4.8612,-4.8923,-4.9488,-5.019,-5.1047,-5.13,-5.13,-5.13,-5.13,-5.13,-5.13,-5.13,-5.13,-5.13,-5.13,-5.1359,-5.1515,-5.169,-5.1807,-5.1807,-5.1807,-5.1865,-5.2041,-5.1768,-5.1865,-5.2742,-5.2567,-5.2684,-5.356,-5.3483,-5.3541,-5.3872,-5.2957,-5.2801,-5.3833,-5.243,-5.1865,-5.2567,-5.2606,-5.2275,-5.1573,-5.1398,-5.13,-5.13,-5.13,-5.13,-5.13,-5.13,-5.093,0.0,0.0,0.0,-4.1108,-4.1108,0.0,0.0,-4.1108,-4.1108,-4.1108,-4.1439,-4.1752,-4.1752,-4.2119,-4.2545,-4.2986,-4.3397,-4.3947,-4.4779,-4.528,-4.5547,-4.556,-4.5163,-4.5066,-4.5514,-4.5553,-4.5728,-4.6176,-4.6196,-4.6196,-4.6196,-4.6196,-4.6196,-4.6196,-4.6196,-4.6196,-4.6196,-4.6196,-4.6196,-4.6196,-4.6196,-4.6196,-4.6196,-4.6196,-4.6196,-4.6196,-4.6196,-4.6196,-4.6196,-4.6196,-4.6196,-4.6196,-4.6196,-4.6196,-4.6196,-4.6196,-4.6196,-4.6196,-4.6196,-4.6488,-4.678,-4.6332,-4.678,-4.7676,-4.8534,-4.9664,-5.0735,-5.1183,-5.13,-5.13,-5.13,-5.13,-5.13,-5.13,-5.13,-5.13,-5.13,-5.13,-5.13,-5.13,-5.13,-5.13,-5.13,-5.13,-5.1456,-5.1885,-5.1573,-5.1612,-5.2489,-5.2216,-5.2119,-5.2567,-5.2606,-5.2781,-5.321,-5.245,-5.2314,-5.321,-5.2021,-5.1495,-5.1924,-5.1943,-5.1749,-5.132,-5.13,-5.13,-5.13,-5.13,-5.13,-5.13,-5.13,-5.1067,0.0,0.0,0.0,0.0,-4.1108,-4.1108,0.0,0.0,0.0,-4.1108,-4.1108,-4.1108,0.0,0.0,-4.1289,-4.1811,-4.2183,-4.2577,-4.3058,-4.3864,-4.4462,-4.4637,-4.4033,-4.3877,-4.4579,-4.4656,-4.5007,-4.5884,-4.5942,-4.602,-4.6196,-4.6196,-4.6196,-4.6196,-4.6196,-4.6196,-4.6196,-4.6196,-4.6196,-4.6196,-4.6196,-4.6196,-4.6196,-4.6196,-4.6196,-4.6196,-4.6196,-4.6196,-4.6196,-4.6196,-4.6196,-4.6196,-4.6196,-4.6196,-4.6196,-4.6196,-4.6196,-4.6196,-4.6196,-4.6196,-4.6196,-4.6196,-4.6313,-4.6702,-4.8125,-4.9722,-5.1028,-5.0852,-5.1047,-5.1261,-5.1086,-5.1164,-5.13,-5.13,-5.13,-5.13,-5.13,-5.13,-5.13,-5.13,-5.13,-5.13,-5.13,-5.13,-5.1534,-5.2236,-5.1749,-5.1554,-5.2255,-5.1749,-5.13,-5.13,-5.13,-5.1573,-5.2294,-5.171,-5.1593,-5.2314,-5.169,-5.13,-5.13,-5.13,-5.13,-5.13,-5.13,-5.13,-5.13,-5.13,-5.1203,-5.1047,-5.1222,-5.1125,0.0,0.0,0.0,-4.1108,-4.1108,-4.1108,-4.1108,0.0,-4.1108,-4.1108,0.0,-4.1108,-4.1108,0.0,0.0,-4.0203,-4.1398,-4.2161,-4.1487,-4.2085,-4.2883,-4.3663,-4.3663,-4.3637,-4.3741,-4.376,-4.4111,-4.4968,-4.5046,-4.5377,-4.6157,-4.6196,-4.6196,-4.6196,-4.6196,-4.6196,-4.6196,-4.6196,-4.6196,-4.6196,-4.6196,-4.6196,-4.6196,-4.6196,-4.6196,-4.6196,-4.6196,-4.6196,-4.6196,-4.6196,-4.6196,-4.6196,-4.6196,-4.6196,-4.6196,-4.6196,-4.6196,-4.6196,-4.6196,-4.6196,-4.6196,-4.6196,-4.6722,-4.7384,-4.7579,-4.8826,-4.9995,-4.9274,-5.0151,-5.1125,-5.0346,-5.0716,-5.13,-5.13,-5.13,-5.13,-5.13,-5.13,-5.13,-5.13,-5.13,-5.13,-5.13,-5.13,-5.1339,-5.1437,-5.1359,-5.1339,-5.1437,-5.1359,-5.13,-5.13,-5.13,-5.1339,-5.1437,-5.1359,-5.1339,-5.1437,-5.1359,-5.13,-5.13,-5.13,-5.13,-5.13,-5.13,-5.13,-5.13,-5.13,-5.0891,-5.017,-5.095,-5.0502,0.0,0.0,-4.1108,-4.1108,-4.1108,-4.1108,-4.1108,-4.1108,-4.1108,-4.1101,0.0,0.0,0.0,0.0,0.0,0.0,-4.1173,-4.1512,-4.1142,-4.1389,-4.1909,-4.2747,-4.2435,-4.2338,-4.2806,-4.3305,-4.376,-4.413,-4.415,-4.452,-4.5397,-4.5455,-4.567,-4.6176,-4.6196,-4.6196,-4.6196,-4.6196,-4.6196,-4.6196,-4.6196,-4.6196,-4.6196,-4.6196,-4.6196,-4.6196,-4.6196,-4.6196,-4.6196,-4.6196,-4.6196,-4.6196,-4.6196,-4.6196,-4.6196,-4.6196,-4.6196,-4.6196,-4.6196,-4.6196,-4.6196,-4.6196,-4.678,-4.7501,-4.7501,-4.867,-4.9937,-4.9586,-5.0365,-5.1222,-5.0852,-5.1028,-5.13,-5.13,-5.13,-5.13,-5.13,-5.13,-5.13,-5.13,-5.13,-5.13,-5.13,-5.13,-5.13,-5.13,-5.13,-5.13,-5.13,-5.13,-5.13,-5.13,-5.13,-5.13,-5.13,-5.13,-5.13,-5.13,-5.13,-5.13,-5.13,-5.13,-5.13,-5.13,-5.13,-5.13,-5.13,-5.13,-5.0852,-5.0014,-5.0891,-5.093,-4.1108,-4.1108,-4.1108,-4.1108,-4.1108,-4.1108,-4.1108,-4.1108,-4.1108,-4.1101,-4.1097,0.0,0.0,0.0,-4.1022,-4.0774,0.0,-4.1013,-4.0778,-4.0941,-4.1325,-4.1909,-4.1461,-4.1325,-4.1909,-4.2552,-4.302,-4.3227,-4.3227,-4.3741,-4.4832,-4.489,-4.5299,-4.6176,-4.6196,-4.6196,-4.6196,-4.6196,-4.6196,-4.6196,-4.6196,-4.6196,-4.6196,-4.6196,-4.6196,-4.6196,-4.6196,-4.6196,-4.6196,-4.6196,-4.6196,-4.6196,-4.6196,-4.6196,-4.6196,-4.6196,-4.6196,-4.6196,-4.6196,-4.6196,-4.6196,-4.6196,-4.6624,-4.7131,-4.7131,-4.8164,-4.9255,-4.9021,-4.9917,-5.0891,-5.0677,-5.0969,-5.13,-5.13,-5.13,-5.13,-5.13,-5.13,-5.13,-5.13,-5.13,-5.13,-5.13,-5.13,-5.13,-5.13,-5.13,-5.13,-5.13,-5.13,-5.13,-5.13,-5.13,-5.13,-5.13,-5.13,-5.13,-5.13,-5.13,-5.13,-5.13,-5.13,-5.13,-5.13,-5.13,-5.13,-5.13,-5.13,-5.0969,-5.0365,-5.1008,-5.1164,-4.1108,-4.1108,-4.1108,-4.1108,-4.1108,-4.1108,-4.1108,-4.1108,-4.1108,-4.1108,-4.1101,-4.1094,-4.1094,-4.1096,-4.0822,0.0,-4.0557,0.0,0.0,-4.0565,-4.111,-4.1149,-4.113,-4.111,-4.1149,-4.1169,-4.15,-4.2279,-4.2338,-4.3098,-4.4812,-4.489,-4.5299,-4.6176,-4.6196,-4.6196,-4.6196,-4.6196,-4.6196,-4.6196,-4.6196,-4.6196,-4.6196,-4.6196,-4.6196,-4.6196,-4.6196,-4.6196,-4.6196,-4.6196,-4.6196,-4.6196,-4.6196,-4.6196,-4.6196,-4.6196,-4.6196,-4.6196,-4.6196,-4.6196,-4.6196,-4.6196,-4.6215,-4.6235,-4.6235,-4.6878,-4.7404,-4.6566,-4.8125,-4.9859,-4.9079,-5.0073,-5.13,-5.13,-5.13,-5.13,-5.13,-5.13,-5.13,-5.13,-5.13,-5.13,-5.13,-5.13,-5.13,-5.13,-5.13,-5.13,-5.13,-5.13,-5.13,-5.13,-5.13,-5.13,-5.13,-5.13,-5.13,-5.13,-5.13,-5.13,-5.13,-5.13,-5.13,-5.13,-5.13,-5.13,-5.13,-5.13,-5.13,-5.1261,-5.13,-5.0852,-4.1791,-4.1967,-4.1967,-4.1967,-4.1967,-4.181,-4.1225,-4.1104,-4.1097,-4.1109,-4.11,-4.1106,-4.1095,-4.1103,0.0,0.0,0.0,-4.0994,0.0,-4.0916,-4.111,-4.111,-4.111,-4.111,-4.111,-4.111,-4.1208,-4.15,-4.152,-4.2007,-4.3117,-4.3741,-4.4442,-4.5299,-4.5903,-4.6196,-4.6196,-4.6196,-4.6196,-4.6196,-4.6196,-4.6196,-4.6196,-4.6196,-4.6196,-4.6196,-4.6196,-4.6196,-4.6196,-4.6196,-4.6196,-4.6196,-4.6196,-4.6196,-4.6196,-4.6196,-4.6196,-4.6196,-4.6196,-4.6196,-4.6196,-4.6196,-4.6196,-4.6196,-4.6196,-4.68,-4.7443,-4.7131,-4.8105,-4.9274,-4.9527,-5.0014,-5.0599,-5.1164,-5.13,-5.13,-5.13,-5.13,-5.13,-5.13,-5.13,-5.13,-5.13,-5.13,-5.13,-5.13,-5.13,-5.13,-5.13,-5.13,-5.13,-5.13,-5.13,-5.13,-5.13,-5.13,-5.13,-5.13,-5.13,-5.13,-5.13,-5.13,-5.13,-5.13,-5.13,-5.13,-5.13,-5.13,-5.13,-5.13,-5.13,-5.1145,-4.1788,-4.2155,-4.2331,-4.2015,-4.2171,-4.2171,-4.13,-4.1094,-4.1105,-4.11,-4.1106,-4.1084,-4.1032,-4.1078,-4.1078,0.0,0.0,0.0,0.0,-4.111,-4.111,-4.111,-4.111,-4.111,-4.111,-4.111,-4.111,-4.111,-4.111,-4.1461,-4.226,-4.313,-4.3994,-4.4871,-4.5748,-4.6196,-4.6196,-4.6196,-4.6196,-4.6196,-4.6196,-4.6196,-4.6196,-4.6196,-4.6196,-4.6196,-4.6196,-4.6196,-4.6196,-4.6196,-4.6196,-4.6196,-4.6196,-4.6196,-4.6196,-4.6196,-4.6196,-4.6196,-4.6196,-4.6196,-4.6196,-4.6196,-4.6196,-4.6196,-4.6196,-4.6585,-4.717,-4.7793,-4.8144,-4.867,-5.0092,-5.0229,-5.0229,-5.1086,-5.13,-5.13,-5.13,-5.13,-5.13,-5.13,-5.13,-5.13,-5.13,-5.13,-5.13,-5.13,-5.13,-5.13,-5.13,-5.13,-5.13,-5.13,-5.13,-5.13,-5.13,-5.13,-5.13,-5.13,-5.13,-5.13,-5.13,-5.13,-5.1456,-5.1768,-5.1456,-5.1456,-5.1768,-5.1456,-5.13,-5.13,-5.13,-5.13]}]]